<?xml version="1.0" encoding="UTF-8" standalone="no" ?>
<gpx xmlns="http://www.topografix.com/GPX/1/1" xmlns:xsi="http://www.w3.org/2001/XMLSchema-instance" xsi:schemaLocation="http://www.topografix.com/GPX/1/1 http://www.topografix.com/GPX/1/1/gpx.xsd" version="1.1" creator="VisuGPX - https://www.visugpx.com">
  <metadata>
    <name>Arboretum de Chatenay Bois de vERRIERES</name>
    <desc><![CDATA[AVF ANTONY Arboretum de Chatenay Bois de vERRIERES]]></desc>
  </metadata>
  <trk>
    <name><![CDATA[Track 043]]></name>
    <desc><![CDATA[8 nov. 2016  9:08 am]]></desc>
    <trkseg>
      <trkpt lat="48.74827" lon="2.2941">
        <ele>50.669</ele>
        <time>2016-11-08T08:08:42.003Z</time>
      </trkpt>
      <trkpt lat="48.74826" lon="2.2941">
        <ele>50.686</ele>
        <time>2016-11-08T08:08:43.660Z</time>
      </trkpt>
      <trkpt lat="48.74823" lon="2.29396">
        <ele>50.775</ele>
        <time>2016-11-08T08:08:54.655Z</time>
      </trkpt>
      <trkpt lat="48.74815" lon="2.29387">
        <ele>50.961</ele>
        <time>2016-11-08T08:09:05.850Z</time>
      </trkpt>
      <trkpt lat="48.74809" lon="2.29376">
        <ele>51.398</ele>
        <time>2016-11-08T08:09:14.497Z</time>
      </trkpt>
      <trkpt lat="48.74804" lon="2.29363">
        <ele>52.092</ele>
        <time>2016-11-08T08:09:22.126Z</time>
      </trkpt>
      <trkpt lat="48.74811" lon="2.29351">
        <ele>52.585</ele>
        <time>2016-11-08T08:09:30.718Z</time>
      </trkpt>
      <trkpt lat="48.74816" lon="2.29339">
        <ele>52.578</ele>
        <time>2016-11-08T08:09:39.966Z</time>
      </trkpt>
      <trkpt lat="48.74817" lon="2.29325">
        <ele>52.425</ele>
        <time>2016-11-08T08:09:49.387Z</time>
      </trkpt>
      <trkpt lat="48.74811" lon="2.29312">
        <ele>52.504</ele>
        <time>2016-11-08T08:09:59.445Z</time>
      </trkpt>
      <trkpt lat="48.74804" lon="2.29303">
        <ele>52.875</ele>
        <time>2016-11-08T08:10:08.573Z</time>
      </trkpt>
      <trkpt lat="48.74797" lon="2.29294">
        <ele>53.439</ele>
        <time>2016-11-08T08:10:17.355Z</time>
      </trkpt>
      <trkpt lat="48.74791" lon="2.29281">
        <ele>53.982</ele>
        <time>2016-11-08T08:10:26.581Z</time>
      </trkpt>
      <trkpt lat="48.74785" lon="2.2927">
        <ele>54.386</ele>
        <time>2016-11-08T08:10:34.584Z</time>
      </trkpt>
      <trkpt lat="48.74779" lon="2.29258">
        <ele>54.773</ele>
        <time>2016-11-08T08:10:42.229Z</time>
      </trkpt>
      <trkpt lat="48.74773" lon="2.29249">
        <ele>55.262</ele>
        <time>2016-11-08T08:10:49.949Z</time>
      </trkpt>
      <trkpt lat="48.74766" lon="2.29239">
        <ele>55.78</ele>
        <time>2016-11-08T08:10:58.321Z</time>
      </trkpt>
      <trkpt lat="48.74758" lon="2.2923">
        <ele>56.118</ele>
        <time>2016-11-08T08:11:06.398Z</time>
      </trkpt>
      <trkpt lat="48.74751" lon="2.2922">
        <ele>56.187</ele>
        <time>2016-11-08T08:11:13.944Z</time>
      </trkpt>
      <trkpt lat="48.74745" lon="2.29208">
        <ele>56.079</ele>
        <time>2016-11-08T08:11:22.197Z</time>
      </trkpt>
      <trkpt lat="48.74739" lon="2.29196">
        <ele>55.909</ele>
        <time>2016-11-08T08:11:30.323Z</time>
      </trkpt>
      <trkpt lat="48.74733" lon="2.29184">
        <ele>55.732</ele>
        <time>2016-11-08T08:11:38.347Z</time>
      </trkpt>
      <trkpt lat="48.74728" lon="2.29171">
        <ele>55.569</ele>
        <time>2016-11-08T08:11:46.507Z</time>
      </trkpt>
      <trkpt lat="48.74721" lon="2.29162">
        <ele>55.427</ele>
        <time>2016-11-08T08:11:54.618Z</time>
      </trkpt>
      <trkpt lat="48.74715" lon="2.2915">
        <ele>55.484</ele>
        <time>2016-11-08T08:12:03.604Z</time>
      </trkpt>
      <trkpt lat="48.74707" lon="2.29142">
        <ele>55.668</ele>
        <time>2016-11-08T08:12:12.083Z</time>
      </trkpt>
      <trkpt lat="48.74699" lon="2.29134">
        <ele>55.598</ele>
        <time>2016-11-08T08:12:20.785Z</time>
      </trkpt>
      <trkpt lat="48.74695" lon="2.2912">
        <ele>55.47</ele>
        <time>2016-11-08T08:12:28.190Z</time>
      </trkpt>
      <trkpt lat="48.7469" lon="2.29107">
        <ele>55.392</ele>
        <time>2016-11-08T08:12:35.367Z</time>
      </trkpt>
      <trkpt lat="48.74684" lon="2.29096">
        <ele>55.407</ele>
        <time>2016-11-08T08:12:41.913Z</time>
      </trkpt>
      <trkpt lat="48.74678" lon="2.29085">
        <ele>55.533</ele>
        <time>2016-11-08T08:12:48.951Z</time>
      </trkpt>
      <trkpt lat="48.74671" lon="2.29074">
        <ele>55.825</ele>
        <time>2016-11-08T08:12:57.081Z</time>
      </trkpt>
      <trkpt lat="48.74667" lon="2.29061">
        <ele>56.207</ele>
        <time>2016-11-08T08:13:03.656Z</time>
      </trkpt>
      <trkpt lat="48.7466" lon="2.29051">
        <ele>56.376</ele>
        <time>2016-11-08T08:13:10.298Z</time>
      </trkpt>
      <trkpt lat="48.74652" lon="2.29043">
        <ele>55.804</ele>
        <time>2016-11-08T08:13:18.318Z</time>
      </trkpt>
      <trkpt lat="48.74645" lon="2.29033">
        <ele>55.624</ele>
        <time>2016-11-08T08:13:27.122Z</time>
      </trkpt>
      <trkpt lat="48.74641" lon="2.29021">
        <ele>55.88</ele>
        <time>2016-11-08T08:13:34.164Z</time>
      </trkpt>
      <trkpt lat="48.74638" lon="2.29008">
        <ele>56.701</ele>
        <time>2016-11-08T08:13:40.739Z</time>
      </trkpt>
      <trkpt lat="48.74634" lon="2.28995">
        <ele>56.219</ele>
        <time>2016-11-08T08:13:47.466Z</time>
      </trkpt>
      <trkpt lat="48.74631" lon="2.28981">
        <ele>56.026</ele>
        <time>2016-11-08T08:13:54.538Z</time>
      </trkpt>
      <trkpt lat="48.74626" lon="2.28968">
        <ele>55.974</ele>
        <time>2016-11-08T08:14:02.342Z</time>
      </trkpt>
      <trkpt lat="48.74622" lon="2.28955">
        <ele>56.065</ele>
        <time>2016-11-08T08:14:10.716Z</time>
      </trkpt>
      <trkpt lat="48.74617" lon="2.28941">
        <ele>56.593</ele>
        <time>2016-11-08T08:14:18.682Z</time>
      </trkpt>
      <trkpt lat="48.7462" lon="2.28927">
        <ele>57.091</ele>
        <time>2016-11-08T08:14:25.710Z</time>
      </trkpt>
      <trkpt lat="48.74621" lon="2.28913">
        <ele>57.528</ele>
        <time>2016-11-08T08:14:32.884Z</time>
      </trkpt>
      <trkpt lat="48.74617" lon="2.289">
        <ele>57.821</ele>
        <time>2016-11-08T08:14:41.737Z</time>
      </trkpt>
      <trkpt lat="48.7461" lon="2.28889">
        <ele>58.118</ele>
        <time>2016-11-08T08:14:52.417Z</time>
      </trkpt>
      <trkpt lat="48.74608" lon="2.28874">
        <ele>58.374</ele>
        <time>2016-11-08T08:15:02.325Z</time>
      </trkpt>
      <trkpt lat="48.74605" lon="2.2886">
        <ele>58.489</ele>
        <time>2016-11-08T08:15:10.295Z</time>
      </trkpt>
      <trkpt lat="48.74605" lon="2.28845">
        <ele>58.502</ele>
        <time>2016-11-08T08:15:16.411Z</time>
      </trkpt>
      <trkpt lat="48.74598" lon="2.28835">
        <ele>58.519</ele>
        <time>2016-11-08T08:15:22.755Z</time>
      </trkpt>
      <trkpt lat="48.74594" lon="2.28822">
        <ele>58.6</ele>
        <time>2016-11-08T08:15:30.050Z</time>
      </trkpt>
      <trkpt lat="48.7459" lon="2.28809">
        <ele>58.63</ele>
        <time>2016-11-08T08:15:38.183Z</time>
      </trkpt>
      <trkpt lat="48.74587" lon="2.28796">
        <ele>58.508</ele>
        <time>2016-11-08T08:15:45.880Z</time>
      </trkpt>
      <trkpt lat="48.74586" lon="2.28781">
        <ele>58.181</ele>
        <time>2016-11-08T08:15:52.905Z</time>
      </trkpt>
      <trkpt lat="48.74586" lon="2.28767">
        <ele>57.671</ele>
        <time>2016-11-08T08:15:58.784Z</time>
      </trkpt>
      <trkpt lat="48.74585" lon="2.28752">
        <ele>57.176</ele>
        <time>2016-11-08T08:16:05.073Z</time>
      </trkpt>
      <trkpt lat="48.74584" lon="2.28737">
        <ele>56.838</ele>
        <time>2016-11-08T08:16:13.958Z</time>
      </trkpt>
      <trkpt lat="48.74593" lon="2.2873">
        <ele>56.482</ele>
        <time>2016-11-08T08:16:23.139Z</time>
      </trkpt>
      <trkpt lat="48.746" lon="2.28719">
        <ele>55.958</ele>
        <time>2016-11-08T08:16:30.359Z</time>
      </trkpt>
      <trkpt lat="48.74606" lon="2.28707">
        <ele>55.379</ele>
        <time>2016-11-08T08:16:37.293Z</time>
      </trkpt>
      <trkpt lat="48.74612" lon="2.28696">
        <ele>54.97</ele>
        <time>2016-11-08T08:16:44.351Z</time>
      </trkpt>
      <trkpt lat="48.7462" lon="2.28688">
        <ele>54.85</ele>
        <time>2016-11-08T08:16:51.997Z</time>
      </trkpt>
      <trkpt lat="48.74628" lon="2.2868">
        <ele>55.146</ele>
        <time>2016-11-08T08:16:59.579Z</time>
      </trkpt>
      <trkpt lat="48.74636" lon="2.28672">
        <ele>55.779</ele>
        <time>2016-11-08T08:17:07.441Z</time>
      </trkpt>
      <trkpt lat="48.74645" lon="2.28665">
        <ele>56.345</ele>
        <time>2016-11-08T08:17:15.600Z</time>
      </trkpt>
      <trkpt lat="48.74653" lon="2.28655">
        <ele>56.653</ele>
        <time>2016-11-08T08:17:23.475Z</time>
      </trkpt>
      <trkpt lat="48.74661" lon="2.28647">
        <ele>56.863</ele>
        <time>2016-11-08T08:17:30.455Z</time>
      </trkpt>
      <trkpt lat="48.74667" lon="2.28637">
        <ele>57.118</ele>
        <time>2016-11-08T08:17:38.792Z</time>
      </trkpt>
      <trkpt lat="48.74676" lon="2.2863">
        <ele>57.72</ele>
        <time>2016-11-08T08:17:48.950Z</time>
      </trkpt>
      <trkpt lat="48.74684" lon="2.28623">
        <ele>58.005</ele>
        <time>2016-11-08T08:17:57.182Z</time>
      </trkpt>
      <trkpt lat="48.74691" lon="2.28614">
        <ele>58.047</ele>
        <time>2016-11-08T08:18:04.593Z</time>
      </trkpt>
      <trkpt lat="48.74697" lon="2.28602">
        <ele>58.13</ele>
        <time>2016-11-08T08:18:13.000Z</time>
      </trkpt>
      <trkpt lat="48.74697" lon="2.28602">
        <ele>58.181</ele>
        <time>2016-11-08T08:18:22.000Z</time>
      </trkpt>
      <trkpt lat="48.74697" lon="2.28602">
        <ele>58.185</ele>
        <time>2016-11-08T08:18:22.100Z</time>
      </trkpt>
      <trkpt lat="48.74707" lon="2.28591">
        <ele>58.156</ele>
        <time>2016-11-08T08:18:55.499Z</time>
      </trkpt>
      <trkpt lat="48.74714" lon="2.28582">
        <ele>58.206</ele>
        <time>2016-11-08T08:19:02.206Z</time>
      </trkpt>
      <trkpt lat="48.74721" lon="2.28572">
        <ele>58.434</ele>
        <time>2016-11-08T08:19:08.013Z</time>
      </trkpt>
      <trkpt lat="48.7473" lon="2.28564">
        <ele>58.751</ele>
        <time>2016-11-08T08:19:13.409Z</time>
      </trkpt>
      <trkpt lat="48.74737" lon="2.28554">
        <ele>59.076</ele>
        <time>2016-11-08T08:19:19.384Z</time>
      </trkpt>
      <trkpt lat="48.74741" lon="2.28539">
        <ele>59.459</ele>
        <time>2016-11-08T08:19:26.000Z</time>
      </trkpt>
      <trkpt lat="48.74741" lon="2.28539">
        <ele>59.846</ele>
        <time>2016-11-08T08:19:37.000Z</time>
      </trkpt>
      <trkpt lat="48.74741" lon="2.28539">
        <ele>60.044</ele>
        <time>2016-11-08T08:19:37.100Z</time>
      </trkpt>
      <trkpt lat="48.74753" lon="2.2853">
        <ele>60.002</ele>
        <time>2016-11-08T08:19:52.635Z</time>
      </trkpt>
      <trkpt lat="48.74758" lon="2.2852">
        <ele>60.041</ele>
        <time>2016-11-08T08:20:00.407Z</time>
      </trkpt>
      <trkpt lat="48.74766" lon="2.28512">
        <ele>60.44</ele>
        <time>2016-11-08T08:20:07.173Z</time>
      </trkpt>
      <trkpt lat="48.74773" lon="2.28504">
        <ele>60.965</ele>
        <time>2016-11-08T08:20:14.001Z</time>
      </trkpt>
      <trkpt lat="48.7478" lon="2.28494">
        <ele>61.277</ele>
        <time>2016-11-08T08:20:21.776Z</time>
      </trkpt>
      <trkpt lat="48.74789" lon="2.28489">
        <ele>61.379</ele>
        <time>2016-11-08T08:20:29.822Z</time>
      </trkpt>
      <trkpt lat="48.74798" lon="2.28483">
        <ele>61.45</ele>
        <time>2016-11-08T08:20:37.507Z</time>
      </trkpt>
      <trkpt lat="48.74804" lon="2.28473">
        <ele>61.658</ele>
        <time>2016-11-08T08:20:45.103Z</time>
      </trkpt>
      <trkpt lat="48.74813" lon="2.28467">
        <ele>62.077</ele>
        <time>2016-11-08T08:20:53.370Z</time>
      </trkpt>
      <trkpt lat="48.7482" lon="2.28457">
        <ele>62.663</ele>
        <time>2016-11-08T08:21:01.162Z</time>
      </trkpt>
      <trkpt lat="48.74825" lon="2.28446">
        <ele>63.251</ele>
        <time>2016-11-08T08:21:08.544Z</time>
      </trkpt>
      <trkpt lat="48.74834" lon="2.28439">
        <ele>63.692</ele>
        <time>2016-11-08T08:21:16.064Z</time>
      </trkpt>
      <trkpt lat="48.74841" lon="2.2843">
        <ele>64.009</ele>
        <time>2016-11-08T08:21:23.395Z</time>
      </trkpt>
      <trkpt lat="48.74847" lon="2.28421">
        <ele>64.306</ele>
        <time>2016-11-08T08:21:30.227Z</time>
      </trkpt>
      <trkpt lat="48.74854" lon="2.2841">
        <ele>64.605</ele>
        <time>2016-11-08T08:21:38.000Z</time>
      </trkpt>
      <trkpt lat="48.74854" lon="2.2841">
        <ele>64.851</ele>
        <time>2016-11-08T08:21:49.000Z</time>
      </trkpt>
      <trkpt lat="48.74854" lon="2.2841">
        <ele>64.96</ele>
        <time>2016-11-08T08:21:49.100Z</time>
      </trkpt>
      <trkpt lat="48.74865" lon="2.28407">
        <ele>64.92</ele>
        <time>2016-11-08T08:21:59.000Z</time>
      </trkpt>
      <trkpt lat="48.74865" lon="2.28407">
        <ele>64.842</ele>
        <time>2016-11-08T08:22:05.000Z</time>
      </trkpt>
      <trkpt lat="48.74865" lon="2.28407">
        <ele>64.812</ele>
        <time>2016-11-08T08:22:56.530Z</time>
      </trkpt>
      <trkpt lat="48.74876" lon="2.28406">
        <ele>64.821</ele>
        <time>2016-11-08T08:23:20.095Z</time>
      </trkpt>
      <trkpt lat="48.74879" lon="2.28392">
        <ele>65.16</ele>
        <time>2016-11-08T08:23:37.516Z</time>
      </trkpt>
      <trkpt lat="48.74883" lon="2.28379">
        <ele>66.037</ele>
        <time>2016-11-08T08:23:50.150Z</time>
      </trkpt>
      <trkpt lat="48.74891" lon="2.28372">
        <ele>66.951</ele>
        <time>2016-11-08T08:23:58.361Z</time>
      </trkpt>
      <trkpt lat="48.74899" lon="2.28365">
        <ele>67.398</ele>
        <time>2016-11-08T08:24:05.900Z</time>
      </trkpt>
      <trkpt lat="48.74905" lon="2.28354">
        <ele>67.486</ele>
        <time>2016-11-08T08:24:14.177Z</time>
      </trkpt>
      <trkpt lat="48.74912" lon="2.28345">
        <ele>67.445</ele>
        <time>2016-11-08T08:24:22.296Z</time>
      </trkpt>
      <trkpt lat="48.74918" lon="2.28334">
        <ele>67.411</ele>
        <time>2016-11-08T08:24:31.025Z</time>
      </trkpt>
      <trkpt lat="48.74925" lon="2.28323">
        <ele>67.436</ele>
        <time>2016-11-08T08:24:39.772Z</time>
      </trkpt>
      <trkpt lat="48.74933" lon="2.28316">
        <ele>67.487</ele>
        <time>2016-11-08T08:24:47.904Z</time>
      </trkpt>
      <trkpt lat="48.74939" lon="2.28303">
        <ele>67.524</ele>
        <time>2016-11-08T08:24:55.615Z</time>
      </trkpt>
      <trkpt lat="48.74946" lon="2.28292">
        <ele>67.626</ele>
        <time>2016-11-08T08:25:03.288Z</time>
      </trkpt>
      <trkpt lat="48.74956" lon="2.28294">
        <ele>67.885</ele>
        <time>2016-11-08T08:25:12.404Z</time>
      </trkpt>
      <trkpt lat="48.74963" lon="2.28285">
        <ele>68.215</ele>
        <time>2016-11-08T08:25:22.100Z</time>
      </trkpt>
      <trkpt lat="48.74967" lon="2.28272">
        <ele>68.498</ele>
        <time>2016-11-08T08:25:30.525Z</time>
      </trkpt>
      <trkpt lat="48.74971" lon="2.2826">
        <ele>68.709</ele>
        <time>2016-11-08T08:25:38.279Z</time>
      </trkpt>
      <trkpt lat="48.74979" lon="2.28254">
        <ele>68.83</ele>
        <time>2016-11-08T08:25:45.552Z</time>
      </trkpt>
      <trkpt lat="48.74987" lon="2.28247">
        <ele>68.865</ele>
        <time>2016-11-08T08:25:52.727Z</time>
      </trkpt>
      <trkpt lat="48.74995" lon="2.28238">
        <ele>68.88</ele>
        <time>2016-11-08T08:26:00.866Z</time>
      </trkpt>
      <trkpt lat="48.75002" lon="2.28227">
        <ele>68.951</ele>
        <time>2016-11-08T08:26:11.525Z</time>
      </trkpt>
      <trkpt lat="48.75012" lon="2.2823">
        <ele>69.164</ele>
        <time>2016-11-08T08:26:22.853Z</time>
      </trkpt>
      <trkpt lat="48.75018" lon="2.28241">
        <ele>69.674</ele>
        <time>2016-11-08T08:26:29.207Z</time>
      </trkpt>
      <trkpt lat="48.75025" lon="2.2825">
        <ele>70.523</ele>
        <time>2016-11-08T08:26:35.327Z</time>
      </trkpt>
      <trkpt lat="48.75034" lon="2.28258">
        <ele>71.478</ele>
        <time>2016-11-08T08:26:42.602Z</time>
      </trkpt>
      <trkpt lat="48.75043" lon="2.28265">
        <ele>72.494</ele>
        <time>2016-11-08T08:26:51.503Z</time>
      </trkpt>
      <trkpt lat="48.75052" lon="2.28264">
        <ele>73.704</ele>
        <time>2016-11-08T08:27:00.778Z</time>
      </trkpt>
      <trkpt lat="48.7506" lon="2.28256">
        <ele>74.89</ele>
        <time>2016-11-08T08:27:10.313Z</time>
      </trkpt>
      <trkpt lat="48.75069" lon="2.28251">
        <ele>75.699</ele>
        <time>2016-11-08T08:27:18.226Z</time>
      </trkpt>
      <trkpt lat="48.75078" lon="2.28245">
        <ele>76.094</ele>
        <time>2016-11-08T08:27:25.808Z</time>
      </trkpt>
      <trkpt lat="48.75087" lon="2.28239">
        <ele>76.241</ele>
        <time>2016-11-08T08:27:33.437Z</time>
      </trkpt>
      <trkpt lat="48.75096" lon="2.28233">
        <ele>76.357</ele>
        <time>2016-11-08T08:27:41.989Z</time>
      </trkpt>
      <trkpt lat="48.75105" lon="2.28229">
        <ele>76.544</ele>
        <time>2016-11-08T08:27:51.631Z</time>
      </trkpt>
      <trkpt lat="48.75114" lon="2.28223">
        <ele>76.977</ele>
        <time>2016-11-08T08:28:02.793Z</time>
      </trkpt>
      <trkpt lat="48.75122" lon="2.28216">
        <ele>77.985</ele>
        <time>2016-11-08T08:28:14.187Z</time>
      </trkpt>
      <trkpt lat="48.75131" lon="2.28222">
        <ele>79.653</ele>
        <time>2016-11-08T08:28:25.204Z</time>
      </trkpt>
      <trkpt lat="48.7514" lon="2.28222">
        <ele>81.451</ele>
        <time>2016-11-08T08:28:36.592Z</time>
      </trkpt>
      <trkpt lat="48.75145" lon="2.28209">
        <ele>82.671</ele>
        <time>2016-11-08T08:28:46.562Z</time>
      </trkpt>
      <trkpt lat="48.75149" lon="2.28197">
        <ele>83.103</ele>
        <time>2016-11-08T08:28:55.038Z</time>
      </trkpt>
      <trkpt lat="48.75158" lon="2.28192">
        <ele>82.903</ele>
        <time>2016-11-08T08:29:02.410Z</time>
      </trkpt>
      <trkpt lat="48.75166" lon="2.28185">
        <ele>82.78</ele>
        <time>2016-11-08T08:29:09.234Z</time>
      </trkpt>
      <trkpt lat="48.75175" lon="2.28177">
        <ele>82.787</ele>
        <time>2016-11-08T08:29:16.691Z</time>
      </trkpt>
      <trkpt lat="48.75183" lon="2.28171">
        <ele>82.792</ele>
        <time>2016-11-08T08:29:23.751Z</time>
      </trkpt>
      <trkpt lat="48.75192" lon="2.28167">
        <ele>82.735</ele>
        <time>2016-11-08T08:29:30.699Z</time>
      </trkpt>
      <trkpt lat="48.752" lon="2.28159">
        <ele>82.704</ele>
        <time>2016-11-08T08:29:37.751Z</time>
      </trkpt>
      <trkpt lat="48.75206" lon="2.28147">
        <ele>82.725</ele>
        <time>2016-11-08T08:29:45.978Z</time>
      </trkpt>
      <trkpt lat="48.75213" lon="2.28138">
        <ele>82.663</ele>
        <time>2016-11-08T08:29:53.892Z</time>
      </trkpt>
      <trkpt lat="48.75221" lon="2.28129">
        <ele>82.652</ele>
        <time>2016-11-08T08:30:03.156Z</time>
      </trkpt>
      <trkpt lat="48.75228" lon="2.2812">
        <ele>82.718</ele>
        <time>2016-11-08T08:30:10.589Z</time>
      </trkpt>
      <trkpt lat="48.75236" lon="2.28112">
        <ele>82.654</ele>
        <time>2016-11-08T08:30:17.948Z</time>
      </trkpt>
      <trkpt lat="48.75244" lon="2.28105">
        <ele>82.384</ele>
        <time>2016-11-08T08:30:24.708Z</time>
      </trkpt>
      <trkpt lat="48.75253" lon="2.28096">
        <ele>82.146</ele>
        <time>2016-11-08T08:30:32.300Z</time>
      </trkpt>
      <trkpt lat="48.75263" lon="2.28093">
        <ele>81.753</ele>
        <time>2016-11-08T08:30:39.925Z</time>
      </trkpt>
      <trkpt lat="48.75268" lon="2.28079">
        <ele>81.341</ele>
        <time>2016-11-08T08:30:48.097Z</time>
      </trkpt>
      <trkpt lat="48.75272" lon="2.28066">
        <ele>80.894</ele>
        <time>2016-11-08T08:30:56.508Z</time>
      </trkpt>
      <trkpt lat="48.75279" lon="2.28055">
        <ele>80.184</ele>
        <time>2016-11-08T08:31:05.023Z</time>
      </trkpt>
      <trkpt lat="48.75287" lon="2.28045">
        <ele>80.031</ele>
        <time>2016-11-08T08:31:13.768Z</time>
      </trkpt>
      <trkpt lat="48.75294" lon="2.28035">
        <ele>79.834</ele>
        <time>2016-11-08T08:31:21.275Z</time>
      </trkpt>
      <trkpt lat="48.75302" lon="2.28025">
        <ele>79.805</ele>
        <time>2016-11-08T08:31:30.043Z</time>
      </trkpt>
      <trkpt lat="48.7531" lon="2.28016">
        <ele>79.743</ele>
        <time>2016-11-08T08:31:37.924Z</time>
      </trkpt>
      <trkpt lat="48.75313" lon="2.28002">
        <ele>79.728</ele>
        <time>2016-11-08T08:31:45.381Z</time>
      </trkpt>
      <trkpt lat="48.75316" lon="2.27988">
        <ele>79.748</ele>
        <time>2016-11-08T08:31:52.782Z</time>
      </trkpt>
      <trkpt lat="48.75322" lon="2.27977">
        <ele>79.727</ele>
        <time>2016-11-08T08:32:00.814Z</time>
      </trkpt>
      <trkpt lat="48.75329" lon="2.27966">
        <ele>79.651</ele>
        <time>2016-11-08T08:32:08.043Z</time>
      </trkpt>
      <trkpt lat="48.75336" lon="2.27958">
        <ele>79.637</ele>
        <time>2016-11-08T08:32:14.454Z</time>
      </trkpt>
      <trkpt lat="48.75344" lon="2.27948">
        <ele>79.646</ele>
        <time>2016-11-08T08:32:21.364Z</time>
      </trkpt>
      <trkpt lat="48.7535" lon="2.27938">
        <ele>79.692</ele>
        <time>2016-11-08T08:32:28.119Z</time>
      </trkpt>
      <trkpt lat="48.75355" lon="2.27926">
        <ele>79.817</ele>
        <time>2016-11-08T08:32:35.961Z</time>
      </trkpt>
      <trkpt lat="48.75355" lon="2.27912">
        <ele>80.024</ele>
        <time>2016-11-08T08:32:43.571Z</time>
      </trkpt>
      <trkpt lat="48.75356" lon="2.27897">
        <ele>80.157</ele>
        <time>2016-11-08T08:32:50.993Z</time>
      </trkpt>
      <trkpt lat="48.75356" lon="2.27883">
        <ele>80.069</ele>
        <time>2016-11-08T08:32:58.489Z</time>
      </trkpt>
      <trkpt lat="48.75357" lon="2.27868">
        <ele>79.84</ele>
        <time>2016-11-08T08:33:06.390Z</time>
      </trkpt>
      <trkpt lat="48.75364" lon="2.27858">
        <ele>79.661</ele>
        <time>2016-11-08T08:33:14.604Z</time>
      </trkpt>
      <trkpt lat="48.75372" lon="2.2785">
        <ele>79.62</ele>
        <time>2016-11-08T08:33:22.512Z</time>
      </trkpt>
      <trkpt lat="48.75377" lon="2.27839">
        <ele>79.734</ele>
        <time>2016-11-08T08:33:29.780Z</time>
      </trkpt>
      <trkpt lat="48.75384" lon="2.27829">
        <ele>79.971</ele>
        <time>2016-11-08T08:33:37.482Z</time>
      </trkpt>
      <trkpt lat="48.75394" lon="2.27829">
        <ele>80.307</ele>
        <time>2016-11-08T08:33:45.771Z</time>
      </trkpt>
      <trkpt lat="48.754" lon="2.27819">
        <ele>80.775</ele>
        <time>2016-11-08T08:33:54.001Z</time>
      </trkpt>
      <trkpt lat="48.75405" lon="2.27807">
        <ele>81.363</ele>
        <time>2016-11-08T08:34:02.739Z</time>
      </trkpt>
      <trkpt lat="48.75411" lon="2.27795">
        <ele>81.922</ele>
        <time>2016-11-08T08:34:11.127Z</time>
      </trkpt>
      <trkpt lat="48.75414" lon="2.2778">
        <ele>82.307</ele>
        <time>2016-11-08T08:34:19.745Z</time>
      </trkpt>
      <trkpt lat="48.75416" lon="2.27765">
        <ele>82.482</ele>
        <time>2016-11-08T08:34:28.459Z</time>
      </trkpt>
      <trkpt lat="48.75422" lon="2.27755">
        <ele>82.524</ele>
        <time>2016-11-08T08:34:36.916Z</time>
      </trkpt>
      <trkpt lat="48.75429" lon="2.27746">
        <ele>82.565</ele>
        <time>2016-11-08T08:34:44.995Z</time>
      </trkpt>
      <trkpt lat="48.75435" lon="2.27735">
        <ele>82.818</ele>
        <time>2016-11-08T08:34:52.929Z</time>
      </trkpt>
      <trkpt lat="48.75442" lon="2.27724">
        <ele>83.393</ele>
        <time>2016-11-08T08:35:01.762Z</time>
      </trkpt>
      <trkpt lat="48.75447" lon="2.27712">
        <ele>84.133</ele>
        <time>2016-11-08T08:35:10.547Z</time>
      </trkpt>
      <trkpt lat="48.75447" lon="2.27697">
        <ele>84.75</ele>
        <time>2016-11-08T08:35:19.319Z</time>
      </trkpt>
      <trkpt lat="48.75442" lon="2.27685">
        <ele>85.061</ele>
        <time>2016-11-08T08:35:27.165Z</time>
      </trkpt>
      <trkpt lat="48.75434" lon="2.27677">
        <ele>84.994</ele>
        <time>2016-11-08T08:35:34.609Z</time>
      </trkpt>
      <trkpt lat="48.75427" lon="2.27667">
        <ele>84.577</ele>
        <time>2016-11-08T08:35:41.960Z</time>
      </trkpt>
      <trkpt lat="48.75425" lon="2.27654">
        <ele>84.04</ele>
        <time>2016-11-08T08:35:48.466Z</time>
      </trkpt>
      <trkpt lat="48.75426" lon="2.27639">
        <ele>83.7</ele>
        <time>2016-11-08T08:35:55.454Z</time>
      </trkpt>
      <trkpt lat="48.75432" lon="2.27627">
        <ele>83.669</ele>
        <time>2016-11-08T08:36:02.998Z</time>
      </trkpt>
      <trkpt lat="48.75437" lon="2.27615">
        <ele>83.837</ele>
        <time>2016-11-08T08:36:10.806Z</time>
      </trkpt>
      <trkpt lat="48.75443" lon="2.27604">
        <ele>84.065</ele>
        <time>2016-11-08T08:36:18.466Z</time>
      </trkpt>
      <trkpt lat="48.75449" lon="2.27593">
        <ele>84.298</ele>
        <time>2016-11-08T08:36:26.335Z</time>
      </trkpt>
      <trkpt lat="48.75455" lon="2.27582">
        <ele>84.548</ele>
        <time>2016-11-08T08:36:34.443Z</time>
      </trkpt>
      <trkpt lat="48.75461" lon="2.2757">
        <ele>84.85</ele>
        <time>2016-11-08T08:36:42.850Z</time>
      </trkpt>
      <trkpt lat="48.75463" lon="2.27554">
        <ele>85.261</ele>
        <time>2016-11-08T08:36:51.302Z</time>
      </trkpt>
      <trkpt lat="48.75466" lon="2.27541">
        <ele>85.731</ele>
        <time>2016-11-08T08:36:59.119Z</time>
      </trkpt>
      <trkpt lat="48.75467" lon="2.27527">
        <ele>86.1</ele>
        <time>2016-11-08T08:37:07.547Z</time>
      </trkpt>
      <trkpt lat="48.75471" lon="2.27514">
        <ele>86.302</ele>
        <time>2016-11-08T08:37:17.414Z</time>
      </trkpt>
      <trkpt lat="48.75477" lon="2.27495">
        <ele>86.469</ele>
        <time>2016-11-08T08:37:29.774Z</time>
      </trkpt>
      <trkpt lat="48.75479" lon="2.27482">
        <ele>86.846</ele>
        <time>2016-11-08T08:37:39.588Z</time>
      </trkpt>
      <trkpt lat="48.7547" lon="2.27475">
        <ele>87.658</ele>
        <time>2016-11-08T08:37:54.815Z</time>
      </trkpt>
      <trkpt lat="48.75461" lon="2.27471">
        <ele>88.598</ele>
        <time>2016-11-08T08:38:06.999Z</time>
      </trkpt>
      <trkpt lat="48.75461" lon="2.27471">
        <ele>89.067</ele>
        <time>2016-11-08T08:38:11.999Z</time>
      </trkpt>
      <trkpt lat="48.75461" lon="2.27471">
        <ele>89.029</ele>
        <time>2016-11-08T08:38:44.825Z</time>
      </trkpt>
      <trkpt lat="48.75462" lon="2.27456">
        <ele>88.866</ele>
        <time>2016-11-08T08:39:03.718Z</time>
      </trkpt>
      <trkpt lat="48.75469" lon="2.27446">
        <ele>88.894</ele>
        <time>2016-11-08T08:39:13.184Z</time>
      </trkpt>
      <trkpt lat="48.75476" lon="2.27438">
        <ele>88.88</ele>
        <time>2016-11-08T08:39:21.421Z</time>
      </trkpt>
      <trkpt lat="48.75482" lon="2.27448">
        <ele>88.816</ele>
        <time>2016-11-08T08:39:29.073Z</time>
      </trkpt>
      <trkpt lat="48.75489" lon="2.2746">
        <ele>88.812</ele>
        <time>2016-11-08T08:39:37.212Z</time>
      </trkpt>
      <trkpt lat="48.75497" lon="2.27469">
        <ele>88.954</ele>
        <time>2016-11-08T08:39:44.767Z</time>
      </trkpt>
      <trkpt lat="48.75505" lon="2.27476">
        <ele>89.294</ele>
        <time>2016-11-08T08:39:52.326Z</time>
      </trkpt>
      <trkpt lat="48.75514" lon="2.27483">
        <ele>89.364</ele>
        <time>2016-11-08T08:39:59.999Z</time>
      </trkpt>
      <trkpt lat="48.75514" lon="2.27483">
        <ele>89.459</ele>
        <time>2016-11-08T08:40:03.999Z</time>
      </trkpt>
      <trkpt lat="48.75514" lon="2.27483">
        <ele>89.473</ele>
        <time>2016-11-08T08:40:07.698Z</time>
      </trkpt>
      <trkpt lat="48.75524" lon="2.27479">
        <ele>89.357</ele>
        <time>2016-11-08T08:40:30.114Z</time>
      </trkpt>
      <trkpt lat="48.75533" lon="2.27474">
        <ele>89.203</ele>
        <time>2016-11-08T08:40:39.865Z</time>
      </trkpt>
      <trkpt lat="48.75537" lon="2.27461">
        <ele>88.853</ele>
        <time>2016-11-08T08:40:48.007Z</time>
      </trkpt>
      <trkpt lat="48.75542" lon="2.27448">
        <ele>88.625</ele>
        <time>2016-11-08T08:40:55.956Z</time>
      </trkpt>
      <trkpt lat="48.75545" lon="2.27433">
        <ele>88.371</ele>
        <time>2016-11-08T08:41:04.227Z</time>
      </trkpt>
      <trkpt lat="48.75547" lon="2.27419">
        <ele>87.888</ele>
        <time>2016-11-08T08:41:11.696Z</time>
      </trkpt>
      <trkpt lat="48.7555" lon="2.27405">
        <ele>88.156</ele>
        <time>2016-11-08T08:41:19.526Z</time>
      </trkpt>
      <trkpt lat="48.75553" lon="2.2739">
        <ele>88.2</ele>
        <time>2016-11-08T08:41:26.600Z</time>
      </trkpt>
      <trkpt lat="48.75557" lon="2.27376">
        <ele>88.176</ele>
        <time>2016-11-08T08:41:33.197Z</time>
      </trkpt>
      <trkpt lat="48.75561" lon="2.27363">
        <ele>88.227</ele>
        <time>2016-11-08T08:41:39.665Z</time>
      </trkpt>
      <trkpt lat="48.75562" lon="2.27349">
        <ele>88.396</ele>
        <time>2016-11-08T08:41:47.087Z</time>
      </trkpt>
      <trkpt lat="48.75566" lon="2.27336">
        <ele>88.687</ele>
        <time>2016-11-08T08:41:55.362Z</time>
      </trkpt>
      <trkpt lat="48.75573" lon="2.27326">
        <ele>89.016</ele>
        <time>2016-11-08T08:42:03.525Z</time>
      </trkpt>
      <trkpt lat="48.75578" lon="2.27314">
        <ele>89.283</ele>
        <time>2016-11-08T08:42:11.794Z</time>
      </trkpt>
      <trkpt lat="48.75588" lon="2.2731">
        <ele>89.46</ele>
        <time>2016-11-08T08:42:20.059Z</time>
      </trkpt>
      <trkpt lat="48.75597" lon="2.27306">
        <ele>89.629</ele>
        <time>2016-11-08T08:42:27.747Z</time>
      </trkpt>
      <trkpt lat="48.75604" lon="2.27297">
        <ele>89.76</ele>
        <time>2016-11-08T08:42:34.954Z</time>
      </trkpt>
      <trkpt lat="48.75605" lon="2.27284">
        <ele>90.293</ele>
        <time>2016-11-08T08:42:42.919Z</time>
      </trkpt>
      <trkpt lat="48.75599" lon="2.27272">
        <ele>90.471</ele>
        <time>2016-11-08T08:42:52.078Z</time>
      </trkpt>
      <trkpt lat="48.75594" lon="2.27259">
        <ele>90.863</ele>
        <time>2016-11-08T08:43:01.657Z</time>
      </trkpt>
      <trkpt lat="48.75598" lon="2.27245">
        <ele>91.194</ele>
        <time>2016-11-08T08:43:09.913Z</time>
      </trkpt>
      <trkpt lat="48.75604" lon="2.27234">
        <ele>91.529</ele>
        <time>2016-11-08T08:43:16.219Z</time>
      </trkpt>
      <trkpt lat="48.75611" lon="2.27224">
        <ele>91.628</ele>
        <time>2016-11-08T08:43:22.325Z</time>
      </trkpt>
      <trkpt lat="48.75618" lon="2.27214">
        <ele>91.251</ele>
        <time>2016-11-08T08:43:29.158Z</time>
      </trkpt>
      <trkpt lat="48.75623" lon="2.27202">
        <ele>91.317</ele>
        <time>2016-11-08T08:43:36.001Z</time>
      </trkpt>
      <trkpt lat="48.75631" lon="2.27193">
        <ele>91.75</ele>
        <time>2016-11-08T08:43:43.342Z</time>
      </trkpt>
      <trkpt lat="48.75637" lon="2.27182">
        <ele>92.46</ele>
        <time>2016-11-08T08:43:51.186Z</time>
      </trkpt>
      <trkpt lat="48.75643" lon="2.2717">
        <ele>93.116</ele>
        <time>2016-11-08T08:43:59.387Z</time>
      </trkpt>
      <trkpt lat="48.75649" lon="2.27158">
        <ele>93.643</ele>
        <time>2016-11-08T08:44:07.850Z</time>
      </trkpt>
      <trkpt lat="48.75656" lon="2.27149">
        <ele>93.98</ele>
        <time>2016-11-08T08:44:15.447Z</time>
      </trkpt>
      <trkpt lat="48.75663" lon="2.2714">
        <ele>95.355</ele>
        <time>2016-11-08T08:44:23.180Z</time>
      </trkpt>
      <trkpt lat="48.7567" lon="2.2713">
        <ele>95.561</ele>
        <time>2016-11-08T08:44:31.113Z</time>
      </trkpt>
      <trkpt lat="48.75677" lon="2.27119">
        <ele>95.453</ele>
        <time>2016-11-08T08:44:38.891Z</time>
      </trkpt>
      <trkpt lat="48.75684" lon="2.27109">
        <ele>95.479</ele>
        <time>2016-11-08T08:44:46.999Z</time>
      </trkpt>
      <trkpt lat="48.75684" lon="2.27109">
        <ele>95.552</ele>
        <time>2016-11-08T08:44:51.999Z</time>
      </trkpt>
      <trkpt lat="48.75684" lon="2.27109">
        <ele>95.511</ele>
        <time>2016-11-08T08:45:42.814Z</time>
      </trkpt>
      <trkpt lat="48.75698" lon="2.27097">
        <ele>95.455</ele>
        <time>2016-11-08T08:46:06.280Z</time>
      </trkpt>
      <trkpt lat="48.75707" lon="2.27094">
        <ele>95.777</ele>
        <time>2016-11-08T08:46:15.765Z</time>
      </trkpt>
      <trkpt lat="48.75716" lon="2.27087">
        <ele>96.814</ele>
        <time>2016-11-08T08:46:23.535Z</time>
      </trkpt>
      <trkpt lat="48.75725" lon="2.27082">
        <ele>98.112</ele>
        <time>2016-11-08T08:46:31.219Z</time>
      </trkpt>
      <trkpt lat="48.75734" lon="2.27076">
        <ele>99.01</ele>
        <time>2016-11-08T08:46:38.137Z</time>
      </trkpt>
      <trkpt lat="48.75741" lon="2.27068">
        <ele>99.479</ele>
        <time>2016-11-08T08:46:45.156Z</time>
      </trkpt>
      <trkpt lat="48.75747" lon="2.27057">
        <ele>99.746</ele>
        <time>2016-11-08T08:46:52.498Z</time>
      </trkpt>
      <trkpt lat="48.75755" lon="2.27049">
        <ele>99.947</ele>
        <time>2016-11-08T08:46:59.922Z</time>
      </trkpt>
      <trkpt lat="48.75762" lon="2.27038">
        <ele>100.191</ele>
        <time>2016-11-08T08:47:07.551Z</time>
      </trkpt>
      <trkpt lat="48.75766" lon="2.27025">
        <ele>100.5</ele>
        <time>2016-11-08T08:47:14.999Z</time>
      </trkpt>
      <trkpt lat="48.75766" lon="2.27025">
        <ele>100.754</ele>
        <time>2016-11-08T08:47:20.999Z</time>
      </trkpt>
      <trkpt lat="48.75766" lon="2.27025">
        <ele>100.84</ele>
        <time>2016-11-08T08:47:21.099Z</time>
      </trkpt>
      <trkpt lat="48.7577" lon="2.27008">
        <ele>100.784</ele>
        <time>2016-11-08T08:47:39.459Z</time>
      </trkpt>
      <trkpt lat="48.7577" lon="2.26992">
        <ele>100.789</ele>
        <time>2016-11-08T08:47:50.020Z</time>
      </trkpt>
      <trkpt lat="48.75771" lon="2.26979">
        <ele>100.998</ele>
        <time>2016-11-08T08:47:58.967Z</time>
      </trkpt>
      <trkpt lat="48.75772" lon="2.26964">
        <ele>101.256</ele>
        <time>2016-11-08T08:48:09.599Z</time>
      </trkpt>
      <trkpt lat="48.75778" lon="2.26951">
        <ele>101.394</ele>
        <time>2016-11-08T08:48:20.907Z</time>
      </trkpt>
      <trkpt lat="48.75775" lon="2.26937">
        <ele>101.39</ele>
        <time>2016-11-08T08:48:32.141Z</time>
      </trkpt>
      <trkpt lat="48.75773" lon="2.26923">
        <ele>101.274</ele>
        <time>2016-11-08T08:48:43.033Z</time>
      </trkpt>
      <trkpt lat="48.75776" lon="2.2691">
        <ele>101.067</ele>
        <time>2016-11-08T08:48:54.383Z</time>
      </trkpt>
      <trkpt lat="48.75781" lon="2.26896">
        <ele>100.801</ele>
        <time>2016-11-08T08:49:04.636Z</time>
      </trkpt>
      <trkpt lat="48.75785" lon="2.26882">
        <ele>100.608</ele>
        <time>2016-11-08T08:49:14.456Z</time>
      </trkpt>
      <trkpt lat="48.75789" lon="2.26868">
        <ele>100.585</ele>
        <time>2016-11-08T08:49:24.713Z</time>
      </trkpt>
      <trkpt lat="48.75792" lon="2.26855">
        <ele>100.643</ele>
        <time>2016-11-08T08:49:33.932Z</time>
      </trkpt>
      <trkpt lat="48.75795" lon="2.26842">
        <ele>100.683</ele>
        <time>2016-11-08T08:49:43.032Z</time>
      </trkpt>
      <trkpt lat="48.758" lon="2.26828">
        <ele>100.779</ele>
        <time>2016-11-08T08:49:52.712Z</time>
      </trkpt>
      <trkpt lat="48.75804" lon="2.26814">
        <ele>101.103</ele>
        <time>2016-11-08T08:50:01.975Z</time>
      </trkpt>
      <trkpt lat="48.75806" lon="2.268">
        <ele>101.71</ele>
        <time>2016-11-08T08:50:11.243Z</time>
      </trkpt>
      <trkpt lat="48.75804" lon="2.26786">
        <ele>102.516</ele>
        <time>2016-11-08T08:50:20.921Z</time>
      </trkpt>
      <trkpt lat="48.75807" lon="2.26772">
        <ele>103.419</ele>
        <time>2016-11-08T08:50:30.043Z</time>
      </trkpt>
      <trkpt lat="48.75809" lon="2.26758">
        <ele>104.227</ele>
        <time>2016-11-08T08:50:40.457Z</time>
      </trkpt>
      <trkpt lat="48.75812" lon="2.26744">
        <ele>104.714</ele>
        <time>2016-11-08T08:50:51.018Z</time>
      </trkpt>
      <trkpt lat="48.75816" lon="2.26732">
        <ele>104.902</ele>
        <time>2016-11-08T08:51:00.299Z</time>
      </trkpt>
      <trkpt lat="48.75819" lon="2.26719">
        <ele>105.057</ele>
        <time>2016-11-08T08:51:09.381Z</time>
      </trkpt>
      <trkpt lat="48.7582" lon="2.26703">
        <ele>105.47</ele>
        <time>2016-11-08T08:51:19.436Z</time>
      </trkpt>
      <trkpt lat="48.7582" lon="2.2669">
        <ele>106.257</ele>
        <time>2016-11-08T08:51:27.999Z</time>
      </trkpt>
      <trkpt lat="48.7582" lon="2.2669">
        <ele>107.143</ele>
        <time>2016-11-08T08:51:32.999Z</time>
      </trkpt>
      <trkpt lat="48.7582" lon="2.2669">
        <ele>107.618</ele>
        <time>2016-11-08T08:55:26.708Z</time>
      </trkpt>
      <trkpt lat="48.75819" lon="2.26675">
        <ele>107.535</ele>
        <time>2016-11-08T08:55:47.335Z</time>
      </trkpt>
      <trkpt lat="48.75817" lon="2.26661">
        <ele>108.049</ele>
        <time>2016-11-08T08:55:58.078Z</time>
      </trkpt>
      <trkpt lat="48.75814" lon="2.26646">
        <ele>110.024</ele>
        <time>2016-11-08T08:56:07.401Z</time>
      </trkpt>
      <trkpt lat="48.75813" lon="2.26632">
        <ele>112.391</ele>
        <time>2016-11-08T08:56:16.147Z</time>
      </trkpt>
      <trkpt lat="48.75814" lon="2.26618">
        <ele>114.065</ele>
        <time>2016-11-08T08:56:24.488Z</time>
      </trkpt>
      <trkpt lat="48.75819" lon="2.26606">
        <ele>115.255</ele>
        <time>2016-11-08T08:56:33.157Z</time>
      </trkpt>
      <trkpt lat="48.75827" lon="2.26597">
        <ele>116.254</ele>
        <time>2016-11-08T08:56:45.257Z</time>
      </trkpt>
      <trkpt lat="48.75835" lon="2.2659">
        <ele>117.254</ele>
        <time>2016-11-08T08:56:57.690Z</time>
      </trkpt>
      <trkpt lat="48.75842" lon="2.26581">
        <ele>118.316</ele>
        <time>2016-11-08T08:57:12.769Z</time>
      </trkpt>
      <trkpt lat="48.75845" lon="2.26568">
        <ele>119.212</ele>
        <time>2016-11-08T08:57:28.546Z</time>
      </trkpt>
      <trkpt lat="48.75854" lon="2.26564">
        <ele>120.163</ele>
        <time>2016-11-08T08:57:44.947Z</time>
      </trkpt>
      <trkpt lat="48.75858" lon="2.26552">
        <ele>121.933</ele>
        <time>2016-11-08T08:57:58.701Z</time>
      </trkpt>
      <trkpt lat="48.75852" lon="2.26541">
        <ele>124.505</ele>
        <time>2016-11-08T08:58:10.781Z</time>
      </trkpt>
      <trkpt lat="48.75844" lon="2.26532">
        <ele>126.856</ele>
        <time>2016-11-08T08:58:20.657Z</time>
      </trkpt>
      <trkpt lat="48.75837" lon="2.26521">
        <ele>128.272</ele>
        <time>2016-11-08T08:58:29.532Z</time>
      </trkpt>
      <trkpt lat="48.75831" lon="2.26509">
        <ele>128.956</ele>
        <time>2016-11-08T08:58:38.877Z</time>
      </trkpt>
      <trkpt lat="48.75824" lon="2.26499">
        <ele>129.492</ele>
        <time>2016-11-08T08:58:47.550Z</time>
      </trkpt>
      <trkpt lat="48.75817" lon="2.26489">
        <ele>130.094</ele>
        <time>2016-11-08T08:58:56.214Z</time>
      </trkpt>
      <trkpt lat="48.75811" lon="2.2648">
        <ele>130.647</ele>
        <time>2016-11-08T08:59:03.650Z</time>
      </trkpt>
      <trkpt lat="48.75804" lon="2.26471">
        <ele>131.151</ele>
        <time>2016-11-08T08:59:11.581Z</time>
      </trkpt>
      <trkpt lat="48.75797" lon="2.26462">
        <ele>131.611</ele>
        <time>2016-11-08T08:59:19.731Z</time>
      </trkpt>
      <trkpt lat="48.7579" lon="2.26452">
        <ele>131.905</ele>
        <time>2016-11-08T08:59:28.286Z</time>
      </trkpt>
      <trkpt lat="48.75783" lon="2.26441">
        <ele>131.994</ele>
        <time>2016-11-08T08:59:38.000Z</time>
      </trkpt>
      <trkpt lat="48.75783" lon="2.26441">
        <ele>131.967</ele>
        <time>2016-11-08T08:59:48.000Z</time>
      </trkpt>
      <trkpt lat="48.75783" lon="2.26441">
        <ele>131.902</ele>
        <time>2016-11-08T08:59:48.100Z</time>
      </trkpt>
      <trkpt lat="48.75779" lon="2.26418">
        <ele>131.852</ele>
        <time>2016-11-08T09:00:07.379Z</time>
      </trkpt>
      <trkpt lat="48.75776" lon="2.26404">
        <ele>131.89</ele>
        <time>2016-11-08T09:00:17.336Z</time>
      </trkpt>
      <trkpt lat="48.7577" lon="2.26393">
        <ele>132.245</ele>
        <time>2016-11-08T09:00:26.239Z</time>
      </trkpt>
      <trkpt lat="48.75764" lon="2.26382">
        <ele>133.047</ele>
        <time>2016-11-08T09:00:35.507Z</time>
      </trkpt>
      <trkpt lat="48.75758" lon="2.26371">
        <ele>134.052</ele>
        <time>2016-11-08T09:00:44.789Z</time>
      </trkpt>
      <trkpt lat="48.75751" lon="2.26361">
        <ele>134.968</ele>
        <time>2016-11-08T09:00:53.717Z</time>
      </trkpt>
      <trkpt lat="48.75745" lon="2.2635">
        <ele>135.708</ele>
        <time>2016-11-08T09:01:01.682Z</time>
      </trkpt>
      <trkpt lat="48.75738" lon="2.26339">
        <ele>136.303</ele>
        <time>2016-11-08T09:01:09.581Z</time>
      </trkpt>
      <trkpt lat="48.75731" lon="2.26328">
        <ele>136.82</ele>
        <time>2016-11-08T09:01:16.842Z</time>
      </trkpt>
      <trkpt lat="48.75726" lon="2.26317">
        <ele>137.233</ele>
        <time>2016-11-08T09:01:24.675Z</time>
      </trkpt>
      <trkpt lat="48.7572" lon="2.26306">
        <ele>137.526</ele>
        <time>2016-11-08T09:01:32.557Z</time>
      </trkpt>
      <trkpt lat="48.75714" lon="2.26295">
        <ele>137.806</ele>
        <time>2016-11-08T09:01:40.217Z</time>
      </trkpt>
      <trkpt lat="48.75708" lon="2.26283">
        <ele>138.145</ele>
        <time>2016-11-08T09:01:47.997Z</time>
      </trkpt>
      <trkpt lat="48.75702" lon="2.26271">
        <ele>138.514</ele>
        <time>2016-11-08T09:01:56.195Z</time>
      </trkpt>
      <trkpt lat="48.757" lon="2.26258">
        <ele>138.837</ele>
        <time>2016-11-08T09:02:03.918Z</time>
      </trkpt>
      <trkpt lat="48.75697" lon="2.26244">
        <ele>139.156</ele>
        <time>2016-11-08T09:02:11.703Z</time>
      </trkpt>
      <trkpt lat="48.75698" lon="2.2623">
        <ele>139.6</ele>
        <time>2016-11-08T09:02:19.864Z</time>
      </trkpt>
      <trkpt lat="48.75701" lon="2.26217">
        <ele>140.162</ele>
        <time>2016-11-08T09:02:28.425Z</time>
      </trkpt>
      <trkpt lat="48.75705" lon="2.26204">
        <ele>140.794</ele>
        <time>2016-11-08T09:02:37.425Z</time>
      </trkpt>
      <trkpt lat="48.75708" lon="2.2619">
        <ele>141.472</ele>
        <time>2016-11-08T09:02:46.517Z</time>
      </trkpt>
      <trkpt lat="48.75712" lon="2.26177">
        <ele>142.197</ele>
        <time>2016-11-08T09:02:56.537Z</time>
      </trkpt>
      <trkpt lat="48.75718" lon="2.26166">
        <ele>143.05</ele>
        <time>2016-11-08T09:03:06.172Z</time>
      </trkpt>
      <trkpt lat="48.75724" lon="2.26155">
        <ele>144.018</ele>
        <time>2016-11-08T09:03:15.616Z</time>
      </trkpt>
      <trkpt lat="48.75734" lon="2.26154">
        <ele>144.912</ele>
        <time>2016-11-08T09:03:23.352Z</time>
      </trkpt>
      <trkpt lat="48.75743" lon="2.26154">
        <ele>145.554</ele>
        <time>2016-11-08T09:03:30.049Z</time>
      </trkpt>
      <trkpt lat="48.75753" lon="2.26156">
        <ele>145.947</ele>
        <time>2016-11-08T09:03:36.780Z</time>
      </trkpt>
      <trkpt lat="48.75762" lon="2.26161">
        <ele>146.247</ele>
        <time>2016-11-08T09:03:43.680Z</time>
      </trkpt>
      <trkpt lat="48.7577" lon="2.26168">
        <ele>146.546</ele>
        <time>2016-11-08T09:03:50.913Z</time>
      </trkpt>
      <trkpt lat="48.75778" lon="2.26176">
        <ele>146.859</ele>
        <time>2016-11-08T09:03:59.155Z</time>
      </trkpt>
      <trkpt lat="48.75784" lon="2.26188">
        <ele>147.249</ele>
        <time>2016-11-08T09:04:07.006Z</time>
      </trkpt>
      <trkpt lat="48.75788" lon="2.26201">
        <ele>147.815</ele>
        <time>2016-11-08T09:04:14.120Z</time>
      </trkpt>
      <trkpt lat="48.75794" lon="2.26212">
        <ele>148.517</ele>
        <time>2016-11-08T09:04:21.192Z</time>
      </trkpt>
      <trkpt lat="48.75799" lon="2.26225">
        <ele>149.133</ele>
        <time>2016-11-08T09:04:28.802Z</time>
      </trkpt>
      <trkpt lat="48.75803" lon="2.26239">
        <ele>149.57</ele>
        <time>2016-11-08T09:04:36.686Z</time>
      </trkpt>
      <trkpt lat="48.75808" lon="2.26252">
        <ele>149.984</ele>
        <time>2016-11-08T09:04:44.673Z</time>
      </trkpt>
      <trkpt lat="48.75811" lon="2.26266">
        <ele>150.425</ele>
        <time>2016-11-08T09:04:53.086Z</time>
      </trkpt>
      <trkpt lat="48.75815" lon="2.26278">
        <ele>150.757</ele>
        <time>2016-11-08T09:05:01.062Z</time>
      </trkpt>
      <trkpt lat="48.75821" lon="2.26289">
        <ele>150.92</ele>
        <time>2016-11-08T09:05:09.324Z</time>
      </trkpt>
      <trkpt lat="48.75828" lon="2.26298">
        <ele>151.074</ele>
        <time>2016-11-08T09:05:18.312Z</time>
      </trkpt>
      <trkpt lat="48.75837" lon="2.26302">
        <ele>151.464</ele>
        <time>2016-11-08T09:05:26.810Z</time>
      </trkpt>
      <trkpt lat="48.75845" lon="2.26307">
        <ele>152.128</ele>
        <time>2016-11-08T09:05:35.904Z</time>
      </trkpt>
      <trkpt lat="48.75855" lon="2.26305">
        <ele>152.93</ele>
        <time>2016-11-08T09:05:45.369Z</time>
      </trkpt>
      <trkpt lat="48.75864" lon="2.26304">
        <ele>153.762</ele>
        <time>2016-11-08T09:05:54.926Z</time>
      </trkpt>
      <trkpt lat="48.75873" lon="2.263">
        <ele>154.514</ele>
        <time>2016-11-08T09:06:04.047Z</time>
      </trkpt>
      <trkpt lat="48.75882" lon="2.26293">
        <ele>155.112</ele>
        <time>2016-11-08T09:06:13.500Z</time>
      </trkpt>
      <trkpt lat="48.75889" lon="2.26284">
        <ele>155.618</ele>
        <time>2016-11-08T09:06:22.591Z</time>
      </trkpt>
      <trkpt lat="48.75893" lon="2.26271">
        <ele>156.172</ele>
        <time>2016-11-08T09:06:31.380Z</time>
      </trkpt>
      <trkpt lat="48.75896" lon="2.26256">
        <ele>156.861</ele>
        <time>2016-11-08T09:06:40.426Z</time>
      </trkpt>
      <trkpt lat="48.75896" lon="2.26242">
        <ele>157.649</ele>
        <time>2016-11-08T09:06:48.547Z</time>
      </trkpt>
      <trkpt lat="48.75897" lon="2.26228">
        <ele>158.466</ele>
        <time>2016-11-08T09:06:57.131Z</time>
      </trkpt>
      <trkpt lat="48.75899" lon="2.26213">
        <ele>159.258</ele>
        <time>2016-11-08T09:07:06.614Z</time>
      </trkpt>
      <trkpt lat="48.75899" lon="2.26199">
        <ele>159.996</ele>
        <time>2016-11-08T09:07:14.875Z</time>
      </trkpt>
      <trkpt lat="48.759" lon="2.26185">
        <ele>160.665</ele>
        <time>2016-11-08T09:07:22.825Z</time>
      </trkpt>
      <trkpt lat="48.75902" lon="2.26171">
        <ele>161.274</ele>
        <time>2016-11-08T09:07:30.768Z</time>
      </trkpt>
      <trkpt lat="48.75904" lon="2.26157">
        <ele>161.855</ele>
        <time>2016-11-08T09:07:38.599Z</time>
      </trkpt>
      <trkpt lat="48.75908" lon="2.26143">
        <ele>162.459</ele>
        <time>2016-11-08T09:07:47.080Z</time>
      </trkpt>
      <trkpt lat="48.75911" lon="2.2613">
        <ele>163.117</ele>
        <time>2016-11-08T09:07:55.129Z</time>
      </trkpt>
      <trkpt lat="48.75912" lon="2.26116">
        <ele>163.846</ele>
        <time>2016-11-08T09:08:03.026Z</time>
      </trkpt>
      <trkpt lat="48.75912" lon="2.26101">
        <ele>164.58</ele>
        <time>2016-11-08T09:08:10.960Z</time>
      </trkpt>
      <trkpt lat="48.75911" lon="2.26087">
        <ele>165.219</ele>
        <time>2016-11-08T09:08:18.772Z</time>
      </trkpt>
      <trkpt lat="48.75906" lon="2.26075">
        <ele>165.704</ele>
        <time>2016-11-08T09:08:26.588Z</time>
      </trkpt>
      <trkpt lat="48.759" lon="2.26065">
        <ele>166.018</ele>
        <time>2016-11-08T09:08:34.389Z</time>
      </trkpt>
      <trkpt lat="48.75892" lon="2.26057">
        <ele>166.107</ele>
        <time>2016-11-08T09:08:42.368Z</time>
      </trkpt>
      <trkpt lat="48.75884" lon="2.26047">
        <ele>165.895</ele>
        <time>2016-11-08T09:08:50.542Z</time>
      </trkpt>
      <trkpt lat="48.75877" lon="2.26036">
        <ele>165.456</ele>
        <time>2016-11-08T09:08:58.416Z</time>
      </trkpt>
      <trkpt lat="48.7587" lon="2.26027">
        <ele>165.039</ele>
        <time>2016-11-08T09:09:06.207Z</time>
      </trkpt>
      <trkpt lat="48.75861" lon="2.2602">
        <ele>164.703</ele>
        <time>2016-11-08T09:09:14.129Z</time>
      </trkpt>
      <trkpt lat="48.75854" lon="2.26011">
        <ele>164.359</ele>
        <time>2016-11-08T09:09:21.907Z</time>
      </trkpt>
      <trkpt lat="48.75849" lon="2.26001">
        <ele>164.12</ele>
        <time>2016-11-08T09:09:29.385Z</time>
      </trkpt>
      <trkpt lat="48.7584" lon="2.25992">
        <ele>164.099</ele>
        <time>2016-11-08T09:09:38.000Z</time>
      </trkpt>
      <trkpt lat="48.7584" lon="2.25992">
        <ele>164.148</ele>
        <time>2016-11-08T09:09:43.000Z</time>
      </trkpt>
      <trkpt lat="48.7584" lon="2.25992">
        <ele>164.117</ele>
        <time>2016-11-08T09:10:26.049Z</time>
      </trkpt>
      <trkpt lat="48.75849" lon="2.2599">
        <ele>163.968</ele>
        <time>2016-11-08T09:10:55.000Z</time>
      </trkpt>
      <trkpt lat="48.75849" lon="2.2599">
        <ele>163.921</ele>
        <time>2016-11-08T09:11:02.000Z</time>
      </trkpt>
      <trkpt lat="48.75849" lon="2.2599">
        <ele>163.85</ele>
        <time>2016-11-08T09:11:02.100Z</time>
      </trkpt>
      <trkpt lat="48.75857" lon="2.25977">
        <ele>163.774</ele>
        <time>2016-11-08T09:11:43.036Z</time>
      </trkpt>
      <trkpt lat="48.7585" lon="2.25988">
        <ele>163.73</ele>
        <time>2016-11-08T09:11:50.532Z</time>
      </trkpt>
      <trkpt lat="48.75841" lon="2.25988">
        <ele>163.722</ele>
        <time>2016-11-08T09:11:58.000Z</time>
      </trkpt>
      <trkpt lat="48.75841" lon="2.25988">
        <ele>163.736</ele>
        <time>2016-11-08T09:12:12.000Z</time>
      </trkpt>
      <trkpt lat="48.75841" lon="2.25988">
        <ele>163.724</ele>
        <time>2016-11-08T09:15:49.335Z</time>
      </trkpt>
      <trkpt lat="48.75829" lon="2.25979">
        <ele>163.656</ele>
        <time>2016-11-08T09:16:05.000Z</time>
      </trkpt>
      <trkpt lat="48.75829" lon="2.25979">
        <ele>163.579</ele>
        <time>2016-11-08T09:16:11.000Z</time>
      </trkpt>
      <trkpt lat="48.75829" lon="2.25979">
        <ele>163.53</ele>
        <time>2016-11-08T09:16:17.824Z</time>
      </trkpt>
      <trkpt lat="48.75825" lon="2.25966">
        <ele>163.431</ele>
        <time>2016-11-08T09:16:36.682Z</time>
      </trkpt>
      <trkpt lat="48.75821" lon="2.25954">
        <ele>163.452</ele>
        <time>2016-11-08T09:16:49.127Z</time>
      </trkpt>
      <trkpt lat="48.75816" lon="2.25943">
        <ele>163.615</ele>
        <time>2016-11-08T09:16:58.872Z</time>
      </trkpt>
      <trkpt lat="48.75812" lon="2.25931">
        <ele>163.854</ele>
        <time>2016-11-08T09:17:07.710Z</time>
      </trkpt>
      <trkpt lat="48.75808" lon="2.25917">
        <ele>164.048</ele>
        <time>2016-11-08T09:17:17.078Z</time>
      </trkpt>
      <trkpt lat="48.75805" lon="2.25904">
        <ele>164.17</ele>
        <time>2016-11-08T09:17:24.942Z</time>
      </trkpt>
      <trkpt lat="48.75798" lon="2.25892">
        <ele>164.269</ele>
        <time>2016-11-08T09:17:33.216Z</time>
      </trkpt>
      <trkpt lat="48.75793" lon="2.25881">
        <ele>164.404</ele>
        <time>2016-11-08T09:17:41.178Z</time>
      </trkpt>
      <trkpt lat="48.7579" lon="2.25866">
        <ele>164.562</ele>
        <time>2016-11-08T09:17:50.277Z</time>
      </trkpt>
      <trkpt lat="48.75787" lon="2.25853">
        <ele>164.703</ele>
        <time>2016-11-08T09:17:58.959Z</time>
      </trkpt>
      <trkpt lat="48.75784" lon="2.25839">
        <ele>164.838</ele>
        <time>2016-11-08T09:18:08.025Z</time>
      </trkpt>
      <trkpt lat="48.75782" lon="2.25825">
        <ele>165.005</ele>
        <time>2016-11-08T09:18:16.323Z</time>
      </trkpt>
      <trkpt lat="48.75779" lon="2.25813">
        <ele>165.186</ele>
        <time>2016-11-08T09:18:24.023Z</time>
      </trkpt>
      <trkpt lat="48.75775" lon="2.25799">
        <ele>165.337</ele>
        <time>2016-11-08T09:18:32.143Z</time>
      </trkpt>
      <trkpt lat="48.7577" lon="2.25786">
        <ele>165.444</ele>
        <time>2016-11-08T09:18:39.998Z</time>
      </trkpt>
      <trkpt lat="48.75766" lon="2.25773">
        <ele>165.582</ele>
        <time>2016-11-08T09:18:48.910Z</time>
      </trkpt>
      <trkpt lat="48.75763" lon="2.2576">
        <ele>165.819</ele>
        <time>2016-11-08T09:18:58.135Z</time>
      </trkpt>
      <trkpt lat="48.75759" lon="2.25747">
        <ele>166.117</ele>
        <time>2016-11-08T09:19:07.754Z</time>
      </trkpt>
      <trkpt lat="48.75754" lon="2.25734">
        <ele>166.416</ele>
        <time>2016-11-08T09:19:15.979Z</time>
      </trkpt>
      <trkpt lat="48.75751" lon="2.25719">
        <ele>166.685</ele>
        <time>2016-11-08T09:19:23.542Z</time>
      </trkpt>
      <trkpt lat="48.75746" lon="2.25706">
        <ele>166.882</ele>
        <time>2016-11-08T09:19:31.168Z</time>
      </trkpt>
      <trkpt lat="48.75742" lon="2.25691">
        <ele>166.986</ele>
        <time>2016-11-08T09:19:39.401Z</time>
      </trkpt>
      <trkpt lat="48.75743" lon="2.25677">
        <ele>167.017</ele>
        <time>2016-11-08T09:19:46.826Z</time>
      </trkpt>
      <trkpt lat="48.75744" lon="2.25663">
        <ele>167.094</ele>
        <time>2016-11-08T09:19:54.728Z</time>
      </trkpt>
      <trkpt lat="48.75744" lon="2.25649">
        <ele>167.362</ele>
        <time>2016-11-08T09:20:03.174Z</time>
      </trkpt>
      <trkpt lat="48.75747" lon="2.25635">
        <ele>167.793</ele>
        <time>2016-11-08T09:20:10.827Z</time>
      </trkpt>
      <trkpt lat="48.7575" lon="2.25622">
        <ele>168.224</ele>
        <time>2016-11-08T09:20:18.680Z</time>
      </trkpt>
      <trkpt lat="48.75753" lon="2.25608">
        <ele>168.522</ele>
        <time>2016-11-08T09:20:26.827Z</time>
      </trkpt>
      <trkpt lat="48.75758" lon="2.25595">
        <ele>168.693</ele>
        <time>2016-11-08T09:20:35.217Z</time>
      </trkpt>
      <trkpt lat="48.7576" lon="2.25581">
        <ele>168.834</ele>
        <time>2016-11-08T09:20:43.128Z</time>
      </trkpt>
      <trkpt lat="48.75764" lon="2.25567">
        <ele>168.967</ele>
        <time>2016-11-08T09:20:52.098Z</time>
      </trkpt>
      <trkpt lat="48.75767" lon="2.25554">
        <ele>169.022</ele>
        <time>2016-11-08T09:21:00.597Z</time>
      </trkpt>
      <trkpt lat="48.75766" lon="2.2554">
        <ele>168.983</ele>
        <time>2016-11-08T09:21:09.287Z</time>
      </trkpt>
      <trkpt lat="48.7577" lon="2.25525">
        <ele>168.922</ele>
        <time>2016-11-08T09:21:18.455Z</time>
      </trkpt>
      <trkpt lat="48.75773" lon="2.25512">
        <ele>168.9</ele>
        <time>2016-11-08T09:21:24.929Z</time>
      </trkpt>
      <trkpt lat="48.75776" lon="2.25498">
        <ele>168.899</ele>
        <time>2016-11-08T09:21:31.600Z</time>
      </trkpt>
      <trkpt lat="48.75774" lon="2.25483">
        <ele>168.889</ele>
        <time>2016-11-08T09:21:39.046Z</time>
      </trkpt>
      <trkpt lat="48.75777" lon="2.25468">
        <ele>168.879</ele>
        <time>2016-11-08T09:21:47.463Z</time>
      </trkpt>
      <trkpt lat="48.75782" lon="2.25457">
        <ele>168.891</ele>
        <time>2016-11-08T09:21:54.828Z</time>
      </trkpt>
      <trkpt lat="48.75783" lon="2.25442">
        <ele>168.928</ele>
        <time>2016-11-08T09:22:02.566Z</time>
      </trkpt>
      <trkpt lat="48.75791" lon="2.25432">
        <ele>168.989</ele>
        <time>2016-11-08T09:22:10.188Z</time>
      </trkpt>
      <trkpt lat="48.75789" lon="2.25418">
        <ele>169.06</ele>
        <time>2016-11-08T09:22:17.018Z</time>
      </trkpt>
      <trkpt lat="48.75789" lon="2.25404">
        <ele>169.128</ele>
        <time>2016-11-08T09:22:24.629Z</time>
      </trkpt>
      <trkpt lat="48.75792" lon="2.2539">
        <ele>169.193</ele>
        <time>2016-11-08T09:22:32.536Z</time>
      </trkpt>
      <trkpt lat="48.75795" lon="2.25375">
        <ele>169.212</ele>
        <time>2016-11-08T09:22:40.443Z</time>
      </trkpt>
      <trkpt lat="48.75797" lon="2.25361">
        <ele>169.147</ele>
        <time>2016-11-08T09:22:48.716Z</time>
      </trkpt>
      <trkpt lat="48.75799" lon="2.25347">
        <ele>168.987</ele>
        <time>2016-11-08T09:22:56.660Z</time>
      </trkpt>
      <trkpt lat="48.75801" lon="2.25332">
        <ele>168.756</ele>
        <time>2016-11-08T09:23:04.151Z</time>
      </trkpt>
      <trkpt lat="48.75805" lon="2.2532">
        <ele>168.538</ele>
        <time>2016-11-08T09:23:11.275Z</time>
      </trkpt>
      <trkpt lat="48.7581" lon="2.25308">
        <ele>168.402</ele>
        <time>2016-11-08T09:23:18.267Z</time>
      </trkpt>
      <trkpt lat="48.75812" lon="2.25294">
        <ele>168.334</ele>
        <time>2016-11-08T09:23:25.847Z</time>
      </trkpt>
      <trkpt lat="48.7581" lon="2.25279">
        <ele>168.302</ele>
        <time>2016-11-08T09:23:34.190Z</time>
      </trkpt>
      <trkpt lat="48.75811" lon="2.25264">
        <ele>168.27</ele>
        <time>2016-11-08T09:23:42.482Z</time>
      </trkpt>
      <trkpt lat="48.75811" lon="2.25249">
        <ele>168.229</ele>
        <time>2016-11-08T09:23:51.477Z</time>
      </trkpt>
      <trkpt lat="48.7581" lon="2.25234">
        <ele>168.226</ele>
        <time>2016-11-08T09:23:59.801Z</time>
      </trkpt>
      <trkpt lat="48.75807" lon="2.2522">
        <ele>168.297</ele>
        <time>2016-11-08T09:24:06.700Z</time>
      </trkpt>
      <trkpt lat="48.75806" lon="2.25205">
        <ele>168.375</ele>
        <time>2016-11-08T09:24:13.791Z</time>
      </trkpt>
      <trkpt lat="48.75805" lon="2.25191">
        <ele>168.35</ele>
        <time>2016-11-08T09:24:20.587Z</time>
      </trkpt>
      <trkpt lat="48.75807" lon="2.25176">
        <ele>168.214</ele>
        <time>2016-11-08T09:24:27.999Z</time>
      </trkpt>
      <trkpt lat="48.75807" lon="2.25176">
        <ele>168.074</ele>
        <time>2016-11-08T09:24:40.999Z</time>
      </trkpt>
      <trkpt lat="48.75807" lon="2.25176">
        <ele>168.006</ele>
        <time>2016-11-08T09:24:55.394Z</time>
      </trkpt>
      <trkpt lat="48.75805" lon="2.2519">
        <ele>167.935</ele>
        <time>2016-11-08T09:25:10.618Z</time>
      </trkpt>
      <trkpt lat="48.75796" lon="2.25186">
        <ele>167.919</ele>
        <time>2016-11-08T09:25:20.856Z</time>
      </trkpt>
      <trkpt lat="48.75786" lon="2.25188">
        <ele>168.038</ele>
        <time>2016-11-08T09:25:29.935Z</time>
      </trkpt>
      <trkpt lat="48.75776" lon="2.25192">
        <ele>168.299</ele>
        <time>2016-11-08T09:25:37.999Z</time>
      </trkpt>
      <trkpt lat="48.75776" lon="2.25192">
        <ele>168.54</ele>
        <time>2016-11-08T09:25:44.999Z</time>
      </trkpt>
      <trkpt lat="48.75776" lon="2.25192">
        <ele>168.608</ele>
        <time>2016-11-08T09:25:45.099Z</time>
      </trkpt>
      <trkpt lat="48.75766" lon="2.25196">
        <ele>168.523</ele>
        <time>2016-11-08T09:26:00.205Z</time>
      </trkpt>
      <trkpt lat="48.75758" lon="2.25203">
        <ele>168.503</ele>
        <time>2016-11-08T09:26:10.250Z</time>
      </trkpt>
      <trkpt lat="48.75749" lon="2.25205">
        <ele>168.738</ele>
        <time>2016-11-08T09:26:19.168Z</time>
      </trkpt>
      <trkpt lat="48.7574" lon="2.25208">
        <ele>169.095</ele>
        <time>2016-11-08T09:26:27.270Z</time>
      </trkpt>
      <trkpt lat="48.75731" lon="2.25214">
        <ele>169.361</ele>
        <time>2016-11-08T09:26:35.219Z</time>
      </trkpt>
      <trkpt lat="48.75722" lon="2.25218">
        <ele>169.52</ele>
        <time>2016-11-08T09:26:42.946Z</time>
      </trkpt>
      <trkpt lat="48.75712" lon="2.25223">
        <ele>169.617</ele>
        <time>2016-11-08T09:26:50.553Z</time>
      </trkpt>
      <trkpt lat="48.75704" lon="2.25229">
        <ele>169.666</ele>
        <time>2016-11-08T09:26:57.450Z</time>
      </trkpt>
      <trkpt lat="48.75695" lon="2.25233">
        <ele>169.721</ele>
        <time>2016-11-08T09:27:04.229Z</time>
      </trkpt>
      <trkpt lat="48.75687" lon="2.25241">
        <ele>169.909</ele>
        <time>2016-11-08T09:27:11.430Z</time>
      </trkpt>
      <trkpt lat="48.75679" lon="2.25249">
        <ele>170.234</ele>
        <time>2016-11-08T09:27:18.569Z</time>
      </trkpt>
      <trkpt lat="48.7567" lon="2.25254">
        <ele>170.514</ele>
        <time>2016-11-08T09:27:25.760Z</time>
      </trkpt>
      <trkpt lat="48.75661" lon="2.2526">
        <ele>170.614</ele>
        <time>2016-11-08T09:27:33.843Z</time>
      </trkpt>
      <trkpt lat="48.75651" lon="2.25263">
        <ele>170.54</ele>
        <time>2016-11-08T09:27:42.849Z</time>
      </trkpt>
      <trkpt lat="48.75645" lon="2.25253">
        <ele>170.384</ele>
        <time>2016-11-08T09:27:52.516Z</time>
      </trkpt>
      <trkpt lat="48.75636" lon="2.25256">
        <ele>170.263</ele>
        <time>2016-11-08T09:28:03.267Z</time>
      </trkpt>
      <trkpt lat="48.7563" lon="2.25267">
        <ele>170.183</ele>
        <time>2016-11-08T09:28:11.459Z</time>
      </trkpt>
      <trkpt lat="48.75625" lon="2.25278">
        <ele>170.059</ele>
        <time>2016-11-08T09:28:19.000Z</time>
      </trkpt>
      <trkpt lat="48.75625" lon="2.25278">
        <ele>169.89</ele>
        <time>2016-11-08T09:28:20.000Z</time>
      </trkpt>
      <trkpt lat="48.75625" lon="2.25278">
        <ele>169.758</ele>
        <time>2016-11-08T09:28:22.226Z</time>
      </trkpt>
      <trkpt lat="48.75616" lon="2.25283">
        <ele>169.676</ele>
        <time>2016-11-08T09:28:45.439Z</time>
      </trkpt>
      <trkpt lat="48.75608" lon="2.25274">
        <ele>169.665</ele>
        <time>2016-11-08T09:29:04.700Z</time>
      </trkpt>
      <trkpt lat="48.756" lon="2.25266">
        <ele>169.632</ele>
        <time>2016-11-08T09:29:23.299Z</time>
      </trkpt>
      <trkpt lat="48.75591" lon="2.25258">
        <ele>169.69</ele>
        <time>2016-11-08T09:29:41.967Z</time>
      </trkpt>
      <trkpt lat="48.75584" lon="2.2525">
        <ele>169.923</ele>
        <time>2016-11-08T09:29:52.969Z</time>
      </trkpt>
      <trkpt lat="48.75577" lon="2.2524">
        <ele>170.191</ele>
        <time>2016-11-08T09:30:01.156Z</time>
      </trkpt>
      <trkpt lat="48.75575" lon="2.25225">
        <ele>170.347</ele>
        <time>2016-11-08T09:30:09.535Z</time>
      </trkpt>
      <trkpt lat="48.75569" lon="2.25215">
        <ele>170.399</ele>
        <time>2016-11-08T09:30:18.244Z</time>
      </trkpt>
      <trkpt lat="48.75565" lon="2.25201">
        <ele>170.401</ele>
        <time>2016-11-08T09:30:27.609Z</time>
      </trkpt>
      <trkpt lat="48.75558" lon="2.25191">
        <ele>170.397</ele>
        <time>2016-11-08T09:30:35.320Z</time>
      </trkpt>
      <trkpt lat="48.7555" lon="2.25184">
        <ele>170.393</ele>
        <time>2016-11-08T09:30:42.942Z</time>
      </trkpt>
      <trkpt lat="48.75544" lon="2.25174">
        <ele>170.375</ele>
        <time>2016-11-08T09:30:50.164Z</time>
      </trkpt>
      <trkpt lat="48.75534" lon="2.2517">
        <ele>170.35</ele>
        <time>2016-11-08T09:30:57.964Z</time>
      </trkpt>
      <trkpt lat="48.75525" lon="2.25161">
        <ele>170.333</ele>
        <time>2016-11-08T09:31:06.184Z</time>
      </trkpt>
      <trkpt lat="48.75525" lon="2.25147">
        <ele>170.308</ele>
        <time>2016-11-08T09:31:14.425Z</time>
      </trkpt>
      <trkpt lat="48.75524" lon="2.25133">
        <ele>170.27</ele>
        <time>2016-11-08T09:31:24.225Z</time>
      </trkpt>
      <trkpt lat="48.75516" lon="2.25125">
        <ele>170.268</ele>
        <time>2016-11-08T09:31:34.259Z</time>
      </trkpt>
      <trkpt lat="48.75509" lon="2.25114">
        <ele>170.342</ele>
        <time>2016-11-08T09:31:43.725Z</time>
      </trkpt>
      <trkpt lat="48.75501" lon="2.2511">
        <ele>170.458</ele>
        <time>2016-11-08T09:31:52.248Z</time>
      </trkpt>
      <trkpt lat="48.75492" lon="2.25108">
        <ele>170.485</ele>
        <time>2016-11-08T09:32:00.668Z</time>
      </trkpt>
      <trkpt lat="48.75483" lon="2.25112">
        <ele>170.366</ele>
        <time>2016-11-08T09:32:08.428Z</time>
      </trkpt>
      <trkpt lat="48.75473" lon="2.25108">
        <ele>170.247</ele>
        <time>2016-11-08T09:32:16.741Z</time>
      </trkpt>
      <trkpt lat="48.75464" lon="2.25103">
        <ele>170.271</ele>
        <time>2016-11-08T09:32:25.063Z</time>
      </trkpt>
      <trkpt lat="48.75456" lon="2.25095">
        <ele>170.429</ele>
        <time>2016-11-08T09:32:34.229Z</time>
      </trkpt>
      <trkpt lat="48.75451" lon="2.25085">
        <ele>170.644</ele>
        <time>2016-11-08T09:32:44.060Z</time>
      </trkpt>
      <trkpt lat="48.75444" lon="2.25074">
        <ele>170.819</ele>
        <time>2016-11-08T09:32:55.454Z</time>
      </trkpt>
      <trkpt lat="48.75434" lon="2.25068">
        <ele>170.897</ele>
        <time>2016-11-08T09:33:05.056Z</time>
      </trkpt>
      <trkpt lat="48.75424" lon="2.25067">
        <ele>170.905</ele>
        <time>2016-11-08T09:33:14.252Z</time>
      </trkpt>
      <trkpt lat="48.7542" lon="2.25053">
        <ele>170.868</ele>
        <time>2016-11-08T09:33:26.689Z</time>
      </trkpt>
      <trkpt lat="48.75413" lon="2.25045">
        <ele>170.789</ele>
        <time>2016-11-08T09:33:40.000Z</time>
      </trkpt>
      <trkpt lat="48.75413" lon="2.25045">
        <ele>170.689</ele>
        <time>2016-11-08T09:33:44.000Z</time>
      </trkpt>
      <trkpt lat="48.75413" lon="2.25045">
        <ele>170.599</ele>
        <time>2016-11-08T09:34:16.231Z</time>
      </trkpt>
      <trkpt lat="48.75402" lon="2.25016">
        <ele>170.544</ele>
        <time>2016-11-08T09:34:49.082Z</time>
      </trkpt>
      <trkpt lat="48.75405" lon="2.25002">
        <ele>170.543</ele>
        <time>2016-11-08T09:34:58.518Z</time>
      </trkpt>
      <trkpt lat="48.75408" lon="2.24987">
        <ele>170.626</ele>
        <time>2016-11-08T09:35:06.808Z</time>
      </trkpt>
      <trkpt lat="48.75409" lon="2.24973">
        <ele>170.812</ele>
        <time>2016-11-08T09:35:14.454Z</time>
      </trkpt>
      <trkpt lat="48.75411" lon="2.24959">
        <ele>171.038</ele>
        <time>2016-11-08T09:35:22.473Z</time>
      </trkpt>
      <trkpt lat="48.75413" lon="2.24943">
        <ele>171.202</ele>
        <time>2016-11-08T09:35:30.494Z</time>
      </trkpt>
      <trkpt lat="48.75413" lon="2.2493">
        <ele>171.296</ele>
        <time>2016-11-08T09:35:37.396Z</time>
      </trkpt>
      <trkpt lat="48.75411" lon="2.24915">
        <ele>171.36</ele>
        <time>2016-11-08T09:35:45.308Z</time>
      </trkpt>
      <trkpt lat="48.75414" lon="2.24901">
        <ele>171.402</ele>
        <time>2016-11-08T09:35:54.007Z</time>
      </trkpt>
      <trkpt lat="48.75414" lon="2.24887">
        <ele>171.392</ele>
        <time>2016-11-08T09:36:03.397Z</time>
      </trkpt>
      <trkpt lat="48.75413" lon="2.24872">
        <ele>171.329</ele>
        <time>2016-11-08T09:36:12.523Z</time>
      </trkpt>
      <trkpt lat="48.75415" lon="2.24858">
        <ele>171.3</ele>
        <time>2016-11-08T09:36:20.729Z</time>
      </trkpt>
      <trkpt lat="48.75418" lon="2.24844">
        <ele>171.371</ele>
        <time>2016-11-08T09:36:28.293Z</time>
      </trkpt>
      <trkpt lat="48.75422" lon="2.24829">
        <ele>171.485</ele>
        <time>2016-11-08T09:36:35.956Z</time>
      </trkpt>
      <trkpt lat="48.75429" lon="2.24821">
        <ele>171.597</ele>
        <time>2016-11-08T09:36:43.395Z</time>
      </trkpt>
      <trkpt lat="48.75438" lon="2.24814">
        <ele>171.74</ele>
        <time>2016-11-08T09:36:50.988Z</time>
      </trkpt>
      <trkpt lat="48.75446" lon="2.24806">
        <ele>171.904</ele>
        <time>2016-11-08T09:36:59.464Z</time>
      </trkpt>
      <trkpt lat="48.75455" lon="2.24799">
        <ele>172.006</ele>
        <time>2016-11-08T09:37:08.377Z</time>
      </trkpt>
      <trkpt lat="48.75463" lon="2.24793">
        <ele>171.986</ele>
        <time>2016-11-08T09:37:16.384Z</time>
      </trkpt>
      <trkpt lat="48.75471" lon="2.24783">
        <ele>171.885</ele>
        <time>2016-11-08T09:37:25.081Z</time>
      </trkpt>
      <trkpt lat="48.75481" lon="2.24781">
        <ele>171.79</ele>
        <time>2016-11-08T09:37:33.116Z</time>
      </trkpt>
      <trkpt lat="48.75489" lon="2.24776">
        <ele>171.808</ele>
        <time>2016-11-08T09:37:39.924Z</time>
      </trkpt>
      <trkpt lat="48.75498" lon="2.24769">
        <ele>171.986</ele>
        <time>2016-11-08T09:37:47.275Z</time>
      </trkpt>
      <trkpt lat="48.75506" lon="2.24761">
        <ele>172.228</ele>
        <time>2016-11-08T09:37:55.554Z</time>
      </trkpt>
      <trkpt lat="48.75515" lon="2.24757">
        <ele>172.396</ele>
        <time>2016-11-08T09:38:03.909Z</time>
      </trkpt>
      <trkpt lat="48.75524" lon="2.24752">
        <ele>172.461</ele>
        <time>2016-11-08T09:38:12.279Z</time>
      </trkpt>
      <trkpt lat="48.75533" lon="2.24743">
        <ele>172.443</ele>
        <time>2016-11-08T09:38:21.501Z</time>
      </trkpt>
      <trkpt lat="48.75542" lon="2.2474">
        <ele>172.375</ele>
        <time>2016-11-08T09:38:30.859Z</time>
      </trkpt>
      <trkpt lat="48.75551" lon="2.24737">
        <ele>172.309</ele>
        <time>2016-11-08T09:38:40.389Z</time>
      </trkpt>
      <trkpt lat="48.75561" lon="2.24736">
        <ele>172.3</ele>
        <time>2016-11-08T09:38:48.627Z</time>
      </trkpt>
      <trkpt lat="48.75564" lon="2.24749">
        <ele>172.352</ele>
        <time>2016-11-08T09:38:57.159Z</time>
      </trkpt>
      <trkpt lat="48.7557" lon="2.2476">
        <ele>172.391</ele>
        <time>2016-11-08T09:39:05.578Z</time>
      </trkpt>
      <trkpt lat="48.75576" lon="2.2477">
        <ele>172.337</ele>
        <time>2016-11-08T09:39:12.828Z</time>
      </trkpt>
      <trkpt lat="48.75581" lon="2.24782">
        <ele>172.194</ele>
        <time>2016-11-08T09:39:20.532Z</time>
      </trkpt>
      <trkpt lat="48.75587" lon="2.24793">
        <ele>171.967</ele>
        <time>2016-11-08T09:39:29.052Z</time>
      </trkpt>
      <trkpt lat="48.75594" lon="2.24805">
        <ele>171.674</ele>
        <time>2016-11-08T09:39:37.373Z</time>
      </trkpt>
      <trkpt lat="48.75602" lon="2.24814">
        <ele>171.432</ele>
        <time>2016-11-08T09:39:44.841Z</time>
      </trkpt>
      <trkpt lat="48.7561" lon="2.24823">
        <ele>171.34</ele>
        <time>2016-11-08T09:39:52.675Z</time>
      </trkpt>
      <trkpt lat="48.75613" lon="2.24836">
        <ele>171.407</ele>
        <time>2016-11-08T09:40:00.219Z</time>
      </trkpt>
      <trkpt lat="48.75616" lon="2.24849">
        <ele>171.614</ele>
        <time>2016-11-08T09:40:09.077Z</time>
      </trkpt>
      <trkpt lat="48.75624" lon="2.24859">
        <ele>171.863</ele>
        <time>2016-11-08T09:40:18.926Z</time>
      </trkpt>
      <trkpt lat="48.75631" lon="2.2487">
        <ele>172.036</ele>
        <time>2016-11-08T09:40:27.070Z</time>
      </trkpt>
      <trkpt lat="48.75637" lon="2.24881">
        <ele>172.102</ele>
        <time>2016-11-08T09:40:34.382Z</time>
      </trkpt>
      <trkpt lat="48.75644" lon="2.24891">
        <ele>172.102</ele>
        <time>2016-11-08T09:40:42.198Z</time>
      </trkpt>
      <trkpt lat="48.75651" lon="2.24901">
        <ele>172.079</ele>
        <time>2016-11-08T09:40:50.404Z</time>
      </trkpt>
      <trkpt lat="48.75656" lon="2.24913">
        <ele>172.047</ele>
        <time>2016-11-08T09:40:58.197Z</time>
      </trkpt>
      <trkpt lat="48.75665" lon="2.24911">
        <ele>171.978</ele>
        <time>2016-11-08T09:41:06.000Z</time>
      </trkpt>
      <trkpt lat="48.75665" lon="2.24911">
        <ele>171.868</ele>
        <time>2016-11-08T09:41:12.000Z</time>
      </trkpt>
      <trkpt lat="48.75665" lon="2.24911">
        <ele>171.759</ele>
        <time>2016-11-08T09:41:12.755Z</time>
      </trkpt>
      <trkpt lat="48.75674" lon="2.24904">
        <ele>171.66</ele>
        <time>2016-11-08T09:41:29.719Z</time>
      </trkpt>
      <trkpt lat="48.75682" lon="2.249">
        <ele>171.564</ele>
        <time>2016-11-08T09:41:41.315Z</time>
      </trkpt>
      <trkpt lat="48.75692" lon="2.24899">
        <ele>171.315</ele>
        <time>2016-11-08T09:41:52.596Z</time>
      </trkpt>
      <trkpt lat="48.75702" lon="2.24893">
        <ele>171.037</ele>
        <time>2016-11-08T09:42:01.412Z</time>
      </trkpt>
      <trkpt lat="48.75711" lon="2.24888">
        <ele>170.918</ele>
        <time>2016-11-08T09:42:08.787Z</time>
      </trkpt>
      <trkpt lat="48.7572" lon="2.24886">
        <ele>170.972</ele>
        <time>2016-11-08T09:42:16.330Z</time>
      </trkpt>
      <trkpt lat="48.75729" lon="2.24882">
        <ele>171.088</ele>
        <time>2016-11-08T09:42:24.441Z</time>
      </trkpt>
      <trkpt lat="48.75737" lon="2.24877">
        <ele>171.148</ele>
        <time>2016-11-08T09:42:33.688Z</time>
      </trkpt>
      <trkpt lat="48.75746" lon="2.24873">
        <ele>171.121</ele>
        <time>2016-11-08T09:42:42.465Z</time>
      </trkpt>
      <trkpt lat="48.75756" lon="2.2487">
        <ele>171.036</ele>
        <time>2016-11-08T09:42:51.318Z</time>
      </trkpt>
      <trkpt lat="48.75765" lon="2.24866">
        <ele>170.931</ele>
        <time>2016-11-08T09:42:59.755Z</time>
      </trkpt>
      <trkpt lat="48.75774" lon="2.24861">
        <ele>170.79</ele>
        <time>2016-11-08T09:43:06.050Z</time>
      </trkpt>
      <trkpt lat="48.75783" lon="2.24857">
        <ele>170.596</ele>
        <time>2016-11-08T09:43:13.021Z</time>
      </trkpt>
      <trkpt lat="48.75793" lon="2.24855">
        <ele>170.402</ele>
        <time>2016-11-08T09:43:20.196Z</time>
      </trkpt>
      <trkpt lat="48.75802" lon="2.2485">
        <ele>170.275</ele>
        <time>2016-11-08T09:43:27.400Z</time>
      </trkpt>
      <trkpt lat="48.75811" lon="2.24847">
        <ele>170.228</ele>
        <time>2016-11-08T09:43:35.379Z</time>
      </trkpt>
      <trkpt lat="48.75821" lon="2.24844">
        <ele>170.24</ele>
        <time>2016-11-08T09:43:43.066Z</time>
      </trkpt>
      <trkpt lat="48.7583" lon="2.24841">
        <ele>170.228</ele>
        <time>2016-11-08T09:43:50.055Z</time>
      </trkpt>
      <trkpt lat="48.75839" lon="2.24837">
        <ele>170.108</ele>
        <time>2016-11-08T09:43:57.385Z</time>
      </trkpt>
      <trkpt lat="48.75848" lon="2.24831">
        <ele>169.924</ele>
        <time>2016-11-08T09:44:04.660Z</time>
      </trkpt>
      <trkpt lat="48.75857" lon="2.24826">
        <ele>169.784</ele>
        <time>2016-11-08T09:44:12.368Z</time>
      </trkpt>
      <trkpt lat="48.75865" lon="2.2482">
        <ele>169.719</ele>
        <time>2016-11-08T09:44:20.510Z</time>
      </trkpt>
      <trkpt lat="48.75874" lon="2.24825">
        <ele>169.65</ele>
        <time>2016-11-08T09:44:28.880Z</time>
      </trkpt>
      <trkpt lat="48.75883" lon="2.24821">
        <ele>169.462</ele>
        <time>2016-11-08T09:44:37.999Z</time>
      </trkpt>
      <trkpt lat="48.75883" lon="2.24821">
        <ele>169.187</ele>
        <time>2016-11-08T09:44:47.999Z</time>
      </trkpt>
      <trkpt lat="48.75883" lon="2.24821">
        <ele>168.984</ele>
        <time>2016-11-08T09:46:28.145Z</time>
      </trkpt>
      <trkpt lat="48.75884" lon="2.24797">
        <ele>168.962</ele>
        <time>2016-11-08T09:46:44.999Z</time>
      </trkpt>
      <trkpt lat="48.75884" lon="2.24797">
        <ele>169.042</ele>
        <time>2016-11-08T09:46:50.999Z</time>
      </trkpt>
      <trkpt lat="48.75884" lon="2.24797">
        <ele>169.056</ele>
        <time>2016-11-08T09:46:51.731Z</time>
      </trkpt>
      <trkpt lat="48.75877" lon="2.24785">
        <ele>168.969</ele>
        <time>2016-11-08T09:47:11.380Z</time>
      </trkpt>
      <trkpt lat="48.75869" lon="2.24776">
        <ele>169.177</ele>
        <time>2016-11-08T09:47:21.217Z</time>
      </trkpt>
      <trkpt lat="48.75862" lon="2.24767">
        <ele>169.93</ele>
        <time>2016-11-08T09:47:29.659Z</time>
      </trkpt>
      <trkpt lat="48.75854" lon="2.2476">
        <ele>170.774</ele>
        <time>2016-11-08T09:47:38.097Z</time>
      </trkpt>
      <trkpt lat="48.75847" lon="2.2475">
        <ele>171.278</ele>
        <time>2016-11-08T09:47:46.284Z</time>
      </trkpt>
      <trkpt lat="48.7584" lon="2.2474">
        <ele>171.564</ele>
        <time>2016-11-08T09:47:54.577Z</time>
      </trkpt>
      <trkpt lat="48.75834" lon="2.24729">
        <ele>171.766</ele>
        <time>2016-11-08T09:48:02.645Z</time>
      </trkpt>
      <trkpt lat="48.75828" lon="2.24717">
        <ele>171.873</ele>
        <time>2016-11-08T09:48:12.147Z</time>
      </trkpt>
      <trkpt lat="48.75821" lon="2.24709">
        <ele>171.893</ele>
        <time>2016-11-08T09:48:21.907Z</time>
      </trkpt>
      <trkpt lat="48.75815" lon="2.24698">
        <ele>171.947</ele>
        <time>2016-11-08T09:48:32.759Z</time>
      </trkpt>
      <trkpt lat="48.7581" lon="2.24686">
        <ele>172.14</ele>
        <time>2016-11-08T09:48:43.183Z</time>
      </trkpt>
      <trkpt lat="48.75805" lon="2.24674">
        <ele>172.432</ele>
        <time>2016-11-08T09:48:50.776Z</time>
      </trkpt>
      <trkpt lat="48.75799" lon="2.24662">
        <ele>172.727</ele>
        <time>2016-11-08T09:48:58.175Z</time>
      </trkpt>
      <trkpt lat="48.75791" lon="2.24654">
        <ele>173.024</ele>
        <time>2016-11-08T09:49:05.566Z</time>
      </trkpt>
      <trkpt lat="48.75785" lon="2.24643">
        <ele>173.301</ele>
        <time>2016-11-08T09:49:13.271Z</time>
      </trkpt>
      <trkpt lat="48.75779" lon="2.2463">
        <ele>173.503</ele>
        <time>2016-11-08T09:49:20.957Z</time>
      </trkpt>
      <trkpt lat="48.75773" lon="2.24617">
        <ele>173.679</ele>
        <time>2016-11-08T09:49:27.251Z</time>
      </trkpt>
      <trkpt lat="48.75768" lon="2.24605">
        <ele>173.942</ele>
        <time>2016-11-08T09:49:33.299Z</time>
      </trkpt>
      <trkpt lat="48.75761" lon="2.24594">
        <ele>174.268</ele>
        <time>2016-11-08T09:49:40.246Z</time>
      </trkpt>
      <trkpt lat="48.75756" lon="2.2458">
        <ele>174.551</ele>
        <time>2016-11-08T09:49:48.577Z</time>
      </trkpt>
      <trkpt lat="48.75751" lon="2.24568">
        <ele>174.723</ele>
        <time>2016-11-08T09:49:57.320Z</time>
      </trkpt>
      <trkpt lat="48.75744" lon="2.24558">
        <ele>174.793</ele>
        <time>2016-11-08T09:50:06.644Z</time>
      </trkpt>
      <trkpt lat="48.75737" lon="2.24547">
        <ele>174.794</ele>
        <time>2016-11-08T09:50:15.476Z</time>
      </trkpt>
      <trkpt lat="48.75732" lon="2.24535">
        <ele>174.775</ele>
        <time>2016-11-08T09:50:23.940Z</time>
      </trkpt>
      <trkpt lat="48.75727" lon="2.24525">
        <ele>174.759</ele>
        <time>2016-11-08T09:50:31.497Z</time>
      </trkpt>
      <trkpt lat="48.75721" lon="2.24514">
        <ele>174.71</ele>
        <time>2016-11-08T09:50:38.977Z</time>
      </trkpt>
      <trkpt lat="48.75714" lon="2.24504">
        <ele>174.6</ele>
        <time>2016-11-08T09:50:46.371Z</time>
      </trkpt>
      <trkpt lat="48.75708" lon="2.24494">
        <ele>174.501</ele>
        <time>2016-11-08T09:50:53.890Z</time>
      </trkpt>
      <trkpt lat="48.75703" lon="2.24481">
        <ele>174.489</ele>
        <time>2016-11-08T09:51:02.343Z</time>
      </trkpt>
      <trkpt lat="48.75698" lon="2.24469">
        <ele>174.549</ele>
        <time>2016-11-08T09:51:10.720Z</time>
      </trkpt>
      <trkpt lat="48.75689" lon="2.24461">
        <ele>174.677</ele>
        <time>2016-11-08T09:51:19.147Z</time>
      </trkpt>
      <trkpt lat="48.75683" lon="2.24448">
        <ele>174.851</ele>
        <time>2016-11-08T09:51:26.924Z</time>
      </trkpt>
      <trkpt lat="48.75676" lon="2.24437">
        <ele>174.988</ele>
        <time>2016-11-08T09:51:34.770Z</time>
      </trkpt>
      <trkpt lat="48.75669" lon="2.24427">
        <ele>175.021</ele>
        <time>2016-11-08T09:51:42.037Z</time>
      </trkpt>
      <trkpt lat="48.75663" lon="2.24416">
        <ele>174.97</ele>
        <time>2016-11-08T09:51:49.512Z</time>
      </trkpt>
      <trkpt lat="48.75656" lon="2.24407">
        <ele>174.869</ele>
        <time>2016-11-08T09:51:57.100Z</time>
      </trkpt>
      <trkpt lat="48.7565" lon="2.24395">
        <ele>174.728</ele>
        <time>2016-11-08T09:52:05.627Z</time>
      </trkpt>
      <trkpt lat="48.75643" lon="2.24383">
        <ele>174.583</ele>
        <time>2016-11-08T09:52:13.792Z</time>
      </trkpt>
      <trkpt lat="48.75636" lon="2.24375">
        <ele>174.422</ele>
        <time>2016-11-08T09:52:21.192Z</time>
      </trkpt>
      <trkpt lat="48.75629" lon="2.24365">
        <ele>174.204</ele>
        <time>2016-11-08T09:52:28.156Z</time>
      </trkpt>
      <trkpt lat="48.75623" lon="2.24355">
        <ele>173.999</ele>
        <time>2016-11-08T09:52:34.478Z</time>
      </trkpt>
      <trkpt lat="48.75616" lon="2.24345">
        <ele>173.87</ele>
        <time>2016-11-08T09:52:41.838Z</time>
      </trkpt>
      <trkpt lat="48.7561" lon="2.24333">
        <ele>173.793</ele>
        <time>2016-11-08T09:52:50.096Z</time>
      </trkpt>
      <trkpt lat="48.75602" lon="2.24323">
        <ele>173.77</ele>
        <time>2016-11-08T09:52:58.841Z</time>
      </trkpt>
      <trkpt lat="48.75594" lon="2.24313">
        <ele>173.814</ele>
        <time>2016-11-08T09:53:07.678Z</time>
      </trkpt>
      <trkpt lat="48.75587" lon="2.24304">
        <ele>173.893</ele>
        <time>2016-11-08T09:53:15.234Z</time>
      </trkpt>
      <trkpt lat="48.7558" lon="2.24295">
        <ele>173.954</ele>
        <time>2016-11-08T09:53:22.566Z</time>
      </trkpt>
      <trkpt lat="48.75576" lon="2.24282">
        <ele>173.975</ele>
        <time>2016-11-08T09:53:30.438Z</time>
      </trkpt>
      <trkpt lat="48.75575" lon="2.24267">
        <ele>173.982</ele>
        <time>2016-11-08T09:53:38.561Z</time>
      </trkpt>
      <trkpt lat="48.75577" lon="2.24253">
        <ele>174.008</ele>
        <time>2016-11-08T09:53:45.690Z</time>
      </trkpt>
      <trkpt lat="48.75583" lon="2.24242">
        <ele>174.064</ele>
        <time>2016-11-08T09:53:52.927Z</time>
      </trkpt>
      <trkpt lat="48.7559" lon="2.24233">
        <ele>174.14</ele>
        <time>2016-11-08T09:54:01.008Z</time>
      </trkpt>
      <trkpt lat="48.75595" lon="2.24221">
        <ele>174.253</ele>
        <time>2016-11-08T09:54:10.062Z</time>
      </trkpt>
      <trkpt lat="48.75603" lon="2.24214">
        <ele>174.416</ele>
        <time>2016-11-08T09:54:19.808Z</time>
      </trkpt>
      <trkpt lat="48.75612" lon="2.2421">
        <ele>174.621</ele>
        <time>2016-11-08T09:54:30.010Z</time>
      </trkpt>
      <trkpt lat="48.75622" lon="2.24207">
        <ele>174.838</ele>
        <time>2016-11-08T09:54:40.735Z</time>
      </trkpt>
      <trkpt lat="48.75631" lon="2.24201">
        <ele>175.012</ele>
        <time>2016-11-08T09:54:49.497Z</time>
      </trkpt>
      <trkpt lat="48.75641" lon="2.24194">
        <ele>175.106</ele>
        <time>2016-11-08T09:54:57.499Z</time>
      </trkpt>
      <trkpt lat="48.7565" lon="2.24191">
        <ele>175.141</ele>
        <time>2016-11-08T09:55:04.419Z</time>
      </trkpt>
      <trkpt lat="48.75659" lon="2.24187">
        <ele>175.14</ele>
        <time>2016-11-08T09:55:12.357Z</time>
      </trkpt>
      <trkpt lat="48.75669" lon="2.24182">
        <ele>175.129</ele>
        <time>2016-11-08T09:55:20.722Z</time>
      </trkpt>
      <trkpt lat="48.75679" lon="2.2418">
        <ele>175.141</ele>
        <time>2016-11-08T09:55:28.961Z</time>
      </trkpt>
      <trkpt lat="48.75688" lon="2.24175">
        <ele>175.194</ele>
        <time>2016-11-08T09:55:36.472Z</time>
      </trkpt>
      <trkpt lat="48.75698" lon="2.24171">
        <ele>175.251</ele>
        <time>2016-11-08T09:55:44.864Z</time>
      </trkpt>
      <trkpt lat="48.75707" lon="2.24167">
        <ele>175.294</ele>
        <time>2016-11-08T09:55:52.849Z</time>
      </trkpt>
      <trkpt lat="48.75716" lon="2.24163">
        <ele>175.368</ele>
        <time>2016-11-08T09:56:00.562Z</time>
      </trkpt>
      <trkpt lat="48.75725" lon="2.24157">
        <ele>175.526</ele>
        <time>2016-11-08T09:56:08.408Z</time>
      </trkpt>
      <trkpt lat="48.75733" lon="2.2415">
        <ele>175.74</ele>
        <time>2016-11-08T09:56:14.899Z</time>
      </trkpt>
      <trkpt lat="48.75742" lon="2.24145">
        <ele>175.91</ele>
        <time>2016-11-08T09:56:22.089Z</time>
      </trkpt>
      <trkpt lat="48.75751" lon="2.24141">
        <ele>175.984</ele>
        <time>2016-11-08T09:56:29.462Z</time>
      </trkpt>
      <trkpt lat="48.7576" lon="2.24139">
        <ele>175.989</ele>
        <time>2016-11-08T09:56:37.916Z</time>
      </trkpt>
      <trkpt lat="48.7577" lon="2.24137">
        <ele>175.969</ele>
        <time>2016-11-08T09:56:45.854Z</time>
      </trkpt>
      <trkpt lat="48.75779" lon="2.24131">
        <ele>175.952</ele>
        <time>2016-11-08T09:56:53.227Z</time>
      </trkpt>
      <trkpt lat="48.75787" lon="2.24127">
        <ele>175.982</ele>
        <time>2016-11-08T09:56:59.421Z</time>
      </trkpt>
      <trkpt lat="48.75796" lon="2.24118">
        <ele>176.079</ele>
        <time>2016-11-08T09:57:05.555Z</time>
      </trkpt>
      <trkpt lat="48.75805" lon="2.24111">
        <ele>176.208</ele>
        <time>2016-11-08T09:57:11.672Z</time>
      </trkpt>
      <trkpt lat="48.75814" lon="2.24108">
        <ele>176.346</ele>
        <time>2016-11-08T09:57:18.846Z</time>
      </trkpt>
      <trkpt lat="48.75821" lon="2.24099">
        <ele>176.501</ele>
        <time>2016-11-08T09:57:27.192Z</time>
      </trkpt>
      <trkpt lat="48.75831" lon="2.24096">
        <ele>176.648</ele>
        <time>2016-11-08T09:57:35.706Z</time>
      </trkpt>
      <trkpt lat="48.7584" lon="2.24096">
        <ele>176.743</ele>
        <time>2016-11-08T09:57:44.104Z</time>
      </trkpt>
      <trkpt lat="48.75849" lon="2.241">
        <ele>176.863</ele>
        <time>2016-11-08T09:57:52.780Z</time>
      </trkpt>
      <trkpt lat="48.7586" lon="2.24101">
        <ele>177.1</ele>
        <time>2016-11-08T09:58:01.133Z</time>
      </trkpt>
      <trkpt lat="48.7587" lon="2.24103">
        <ele>177.434</ele>
        <time>2016-11-08T09:58:08.460Z</time>
      </trkpt>
      <trkpt lat="48.75879" lon="2.24105">
        <ele>177.815</ele>
        <time>2016-11-08T09:58:15.424Z</time>
      </trkpt>
      <trkpt lat="48.75888" lon="2.24105">
        <ele>178.172</ele>
        <time>2016-11-08T09:58:22.728Z</time>
      </trkpt>
      <trkpt lat="48.75897" lon="2.24103">
        <ele>178.446</ele>
        <time>2016-11-08T09:58:31.191Z</time>
      </trkpt>
      <trkpt lat="48.75907" lon="2.24105">
        <ele>178.648</ele>
        <time>2016-11-08T09:58:39.871Z</time>
      </trkpt>
      <trkpt lat="48.75916" lon="2.24108">
        <ele>178.766</ele>
        <time>2016-11-08T09:58:47.568Z</time>
      </trkpt>
      <trkpt lat="48.75926" lon="2.24108">
        <ele>178.818</ele>
        <time>2016-11-08T09:58:54.779Z</time>
      </trkpt>
      <trkpt lat="48.75935" lon="2.24108">
        <ele>178.873</ele>
        <time>2016-11-08T09:59:02.347Z</time>
      </trkpt>
      <trkpt lat="48.75946" lon="2.24109">
        <ele>178.943</ele>
        <time>2016-11-08T09:59:10.572Z</time>
      </trkpt>
      <trkpt lat="48.75955" lon="2.24108">
        <ele>178.991</ele>
        <time>2016-11-08T09:59:18.572Z</time>
      </trkpt>
      <trkpt lat="48.75964" lon="2.2411">
        <ele>179.01</ele>
        <time>2016-11-08T09:59:26.734Z</time>
      </trkpt>
      <trkpt lat="48.75973" lon="2.24115">
        <ele>179.021</ele>
        <time>2016-11-08T09:59:34.800Z</time>
      </trkpt>
      <trkpt lat="48.75983" lon="2.24116">
        <ele>179.04</ele>
        <time>2016-11-08T09:59:42.008Z</time>
      </trkpt>
      <trkpt lat="48.75993" lon="2.24117">
        <ele>179.087</ele>
        <time>2016-11-08T09:59:49.708Z</time>
      </trkpt>
      <trkpt lat="48.76003" lon="2.24118">
        <ele>179.242</ele>
        <time>2016-11-08T09:59:57.418Z</time>
      </trkpt>
      <trkpt lat="48.76012" lon="2.2412">
        <ele>179.547</ele>
        <time>2016-11-08T10:00:04.846Z</time>
      </trkpt>
      <trkpt lat="48.7602" lon="2.24125">
        <ele>179.909</ele>
        <time>2016-11-08T10:00:12.617Z</time>
      </trkpt>
      <trkpt lat="48.76029" lon="2.24132">
        <ele>180.2</ele>
        <time>2016-11-08T10:00:21.565Z</time>
      </trkpt>
      <trkpt lat="48.76037" lon="2.2414">
        <ele>180.381</ele>
        <time>2016-11-08T10:00:30.282Z</time>
      </trkpt>
      <trkpt lat="48.76046" lon="2.24146">
        <ele>180.468</ele>
        <time>2016-11-08T10:00:38.564Z</time>
      </trkpt>
      <trkpt lat="48.76054" lon="2.24156">
        <ele>180.48</ele>
        <time>2016-11-08T10:00:47.197Z</time>
      </trkpt>
      <trkpt lat="48.76062" lon="2.24165">
        <ele>180.377</ele>
        <time>2016-11-08T10:00:55.155Z</time>
      </trkpt>
      <trkpt lat="48.76071" lon="2.24169">
        <ele>180.115</ele>
        <time>2016-11-08T10:01:02.853Z</time>
      </trkpt>
      <trkpt lat="48.7608" lon="2.24176">
        <ele>179.692</ele>
        <time>2016-11-08T10:01:10.367Z</time>
      </trkpt>
      <trkpt lat="48.76088" lon="2.24183">
        <ele>179.219</ele>
        <time>2016-11-08T10:01:17.613Z</time>
      </trkpt>
      <trkpt lat="48.76096" lon="2.24189">
        <ele>178.873</ele>
        <time>2016-11-08T10:01:24.630Z</time>
      </trkpt>
      <trkpt lat="48.76105" lon="2.24196">
        <ele>178.718</ele>
        <time>2016-11-08T10:01:32.423Z</time>
      </trkpt>
      <trkpt lat="48.76112" lon="2.24205">
        <ele>178.668</ele>
        <time>2016-11-08T10:01:39.687Z</time>
      </trkpt>
      <trkpt lat="48.76121" lon="2.24212">
        <ele>178.624</ele>
        <time>2016-11-08T10:01:48.085Z</time>
      </trkpt>
      <trkpt lat="48.76129" lon="2.24219">
        <ele>178.544</ele>
        <time>2016-11-08T10:01:55.904Z</time>
      </trkpt>
      <trkpt lat="48.76137" lon="2.24227">
        <ele>178.421</ele>
        <time>2016-11-08T10:02:04.092Z</time>
      </trkpt>
      <trkpt lat="48.76146" lon="2.24233">
        <ele>178.265</ele>
        <time>2016-11-08T10:02:11.726Z</time>
      </trkpt>
      <trkpt lat="48.76155" lon="2.2424">
        <ele>178.122</ele>
        <time>2016-11-08T10:02:19.614Z</time>
      </trkpt>
      <trkpt lat="48.76161" lon="2.24252">
        <ele>177.978</ele>
        <time>2016-11-08T10:02:27.112Z</time>
      </trkpt>
      <trkpt lat="48.76167" lon="2.24263">
        <ele>177.79</ele>
        <time>2016-11-08T10:02:34.172Z</time>
      </trkpt>
      <trkpt lat="48.76174" lon="2.24273">
        <ele>177.623</ele>
        <time>2016-11-08T10:02:41.308Z</time>
      </trkpt>
      <trkpt lat="48.76179" lon="2.24285">
        <ele>177.544</ele>
        <time>2016-11-08T10:02:49.266Z</time>
      </trkpt>
      <trkpt lat="48.76183" lon="2.24299">
        <ele>177.444</ele>
        <time>2016-11-08T10:02:57.724Z</time>
      </trkpt>
      <trkpt lat="48.76186" lon="2.24312">
        <ele>177.146</ele>
        <time>2016-11-08T10:03:04.955Z</time>
      </trkpt>
      <trkpt lat="48.7619" lon="2.24325">
        <ele>176.679</ele>
        <time>2016-11-08T10:03:12.466Z</time>
      </trkpt>
      <trkpt lat="48.76193" lon="2.24338">
        <ele>176.271</ele>
        <time>2016-11-08T10:03:20.304Z</time>
      </trkpt>
      <trkpt lat="48.76197" lon="2.24351">
        <ele>176.018</ele>
        <time>2016-11-08T10:03:28.664Z</time>
      </trkpt>
      <trkpt lat="48.76201" lon="2.24363">
        <ele>175.859</ele>
        <time>2016-11-08T10:03:37.058Z</time>
      </trkpt>
      <trkpt lat="48.76207" lon="2.24376">
        <ele>175.724</ele>
        <time>2016-11-08T10:03:46.078Z</time>
      </trkpt>
      <trkpt lat="48.76213" lon="2.24388">
        <ele>175.54</ele>
        <time>2016-11-08T10:03:54.164Z</time>
      </trkpt>
      <trkpt lat="48.76217" lon="2.24401">
        <ele>175.272</ele>
        <time>2016-11-08T10:04:01.595Z</time>
      </trkpt>
      <trkpt lat="48.76222" lon="2.24415">
        <ele>174.927</ele>
        <time>2016-11-08T10:04:09.406Z</time>
      </trkpt>
      <trkpt lat="48.76226" lon="2.24427">
        <ele>174.537</ele>
        <time>2016-11-08T10:04:16.351Z</time>
      </trkpt>
      <trkpt lat="48.76231" lon="2.2444">
        <ele>174.212</ele>
        <time>2016-11-08T10:04:24.088Z</time>
      </trkpt>
      <trkpt lat="48.76236" lon="2.24452">
        <ele>174.036</ele>
        <time>2016-11-08T10:04:31.836Z</time>
      </trkpt>
      <trkpt lat="48.7624" lon="2.24464">
        <ele>173.966</ele>
        <time>2016-11-08T10:04:40.359Z</time>
      </trkpt>
      <trkpt lat="48.76242" lon="2.24477">
        <ele>173.93</ele>
        <time>2016-11-08T10:04:48.702Z</time>
      </trkpt>
      <trkpt lat="48.76246" lon="2.2449">
        <ele>173.91</ele>
        <time>2016-11-08T10:04:56.425Z</time>
      </trkpt>
      <trkpt lat="48.7625" lon="2.24503">
        <ele>173.927</ele>
        <time>2016-11-08T10:05:03.759Z</time>
      </trkpt>
      <trkpt lat="48.76252" lon="2.24518">
        <ele>173.971</ele>
        <time>2016-11-08T10:05:12.381Z</time>
      </trkpt>
      <trkpt lat="48.76252" lon="2.24532">
        <ele>173.984</ele>
        <time>2016-11-08T10:05:21.998Z</time>
      </trkpt>
      <trkpt lat="48.76252" lon="2.24532">
        <ele>173.926</ele>
        <time>2016-11-08T10:05:22.998Z</time>
      </trkpt>
      <trkpt lat="48.76252" lon="2.24532">
        <ele>173.841</ele>
        <time>2016-11-08T10:05:38.640Z</time>
      </trkpt>
      <trkpt lat="48.76252" lon="2.24532">
        <ele>173.741</ele>
        <time>2016-11-08T10:05:54.998Z</time>
      </trkpt>
      <trkpt lat="48.76252" lon="2.24532">
        <ele>173.702</ele>
        <time>2016-11-08T10:07:25.587Z</time>
      </trkpt>
      <trkpt lat="48.7626" lon="2.24522">
        <ele>173.64</ele>
        <time>2016-11-08T10:07:42.113Z</time>
      </trkpt>
      <trkpt lat="48.76268" lon="2.24515">
        <ele>173.567</ele>
        <time>2016-11-08T10:07:53.998Z</time>
      </trkpt>
      <trkpt lat="48.76268" lon="2.24515">
        <ele>173.503</ele>
        <time>2016-11-08T10:07:53.998Z</time>
      </trkpt>
      <trkpt lat="48.76268" lon="2.24515">
        <ele>173.448</ele>
        <time>2016-11-08T10:08:27.350Z</time>
      </trkpt>
      <trkpt lat="48.76264" lon="2.24532">
        <ele>173.4</ele>
        <time>2016-11-08T10:08:40.998Z</time>
      </trkpt>
      <trkpt lat="48.76264" lon="2.24532">
        <ele>173.36</ele>
        <time>2016-11-08T10:08:53.998Z</time>
      </trkpt>
      <trkpt lat="48.76264" lon="2.24532">
        <ele>173.313</ele>
        <time>2016-11-08T10:13:33.562Z</time>
      </trkpt>
      <trkpt lat="48.7626" lon="2.2455">
        <ele>173.254</ele>
        <time>2016-11-08T10:13:50.301Z</time>
      </trkpt>
      <trkpt lat="48.76264" lon="2.24563">
        <ele>173.273</ele>
        <time>2016-11-08T10:13:59.766Z</time>
      </trkpt>
      <trkpt lat="48.76271" lon="2.24574">
        <ele>173.491</ele>
        <time>2016-11-08T10:14:08.366Z</time>
      </trkpt>
      <trkpt lat="48.76277" lon="2.24585">
        <ele>173.831</ele>
        <time>2016-11-08T10:14:15.945Z</time>
      </trkpt>
      <trkpt lat="48.76283" lon="2.24596">
        <ele>174.086</ele>
        <time>2016-11-08T10:14:24.140Z</time>
      </trkpt>
      <trkpt lat="48.76288" lon="2.24607">
        <ele>174.218</ele>
        <time>2016-11-08T10:14:31.854Z</time>
      </trkpt>
      <trkpt lat="48.76293" lon="2.2462">
        <ele>174.365</ele>
        <time>2016-11-08T10:14:40.149Z</time>
      </trkpt>
      <trkpt lat="48.76297" lon="2.24633">
        <ele>174.739</ele>
        <time>2016-11-08T10:14:48.156Z</time>
      </trkpt>
      <trkpt lat="48.76302" lon="2.24645">
        <ele>175.485</ele>
        <time>2016-11-08T10:14:56.024Z</time>
      </trkpt>
      <trkpt lat="48.76305" lon="2.24659">
        <ele>176.484</ele>
        <time>2016-11-08T10:15:04.246Z</time>
      </trkpt>
      <trkpt lat="48.76309" lon="2.24673">
        <ele>177.423</ele>
        <time>2016-11-08T10:15:13.035Z</time>
      </trkpt>
      <trkpt lat="48.76312" lon="2.24686">
        <ele>178.078</ele>
        <time>2016-11-08T10:15:21.105Z</time>
      </trkpt>
      <trkpt lat="48.76316" lon="2.24699">
        <ele>178.407</ele>
        <time>2016-11-08T10:15:30.016Z</time>
      </trkpt>
      <trkpt lat="48.76319" lon="2.24712">
        <ele>178.447</ele>
        <time>2016-11-08T10:15:38.534Z</time>
      </trkpt>
      <trkpt lat="48.76323" lon="2.24726">
        <ele>178.18</ele>
        <time>2016-11-08T10:15:46.953Z</time>
      </trkpt>
      <trkpt lat="48.76327" lon="2.24739">
        <ele>177.688</ele>
        <time>2016-11-08T10:15:54.779Z</time>
      </trkpt>
      <trkpt lat="48.76332" lon="2.24752">
        <ele>177.139</ele>
        <time>2016-11-08T10:16:02.088Z</time>
      </trkpt>
      <trkpt lat="48.76335" lon="2.24766">
        <ele>176.656</ele>
        <time>2016-11-08T10:16:09.966Z</time>
      </trkpt>
      <trkpt lat="48.76338" lon="2.24779">
        <ele>176.333</ele>
        <time>2016-11-08T10:16:17.738Z</time>
      </trkpt>
      <trkpt lat="48.76342" lon="2.24793">
        <ele>176.185</ele>
        <time>2016-11-08T10:16:25.930Z</time>
      </trkpt>
      <trkpt lat="48.76346" lon="2.24805">
        <ele>175.945</ele>
        <time>2016-11-08T10:16:33.607Z</time>
      </trkpt>
      <trkpt lat="48.7635" lon="2.24818">
        <ele>175.451</ele>
        <time>2016-11-08T10:16:40.942Z</time>
      </trkpt>
      <trkpt lat="48.76353" lon="2.24831">
        <ele>174.927</ele>
        <time>2016-11-08T10:16:49.013Z</time>
      </trkpt>
      <trkpt lat="48.76358" lon="2.24843">
        <ele>174.637</ele>
        <time>2016-11-08T10:16:56.838Z</time>
      </trkpt>
      <trkpt lat="48.76366" lon="2.24851">
        <ele>174.595</ele>
        <time>2016-11-08T10:17:04.903Z</time>
      </trkpt>
      <trkpt lat="48.76376" lon="2.24855">
        <ele>174.685</ele>
        <time>2016-11-08T10:17:13.698Z</time>
      </trkpt>
      <trkpt lat="48.76366" lon="2.24854">
        <ele>174.78</ele>
        <time>2016-11-08T10:17:22.000Z</time>
      </trkpt>
      <trkpt lat="48.76366" lon="2.24854">
        <ele>174.796</ele>
        <time>2016-11-08T10:17:32.000Z</time>
      </trkpt>
      <trkpt lat="48.76366" lon="2.24854">
        <ele>174.719</ele>
        <time>2016-11-08T10:17:32.100Z</time>
      </trkpt>
      <trkpt lat="48.76358" lon="2.24862">
        <ele>174.622</ele>
        <time>2016-11-08T10:17:45.000Z</time>
      </trkpt>
      <trkpt lat="48.76358" lon="2.24862">
        <ele>174.55</ele>
        <time>2016-11-08T10:17:53.000Z</time>
      </trkpt>
      <trkpt lat="48.76358" lon="2.24862">
        <ele>174.473</ele>
        <time>2016-11-08T10:18:02.642Z</time>
      </trkpt>
      <trkpt lat="48.76342" lon="2.24876">
        <ele>174.395</ele>
        <time>2016-11-08T10:18:33.122Z</time>
      </trkpt>
      <trkpt lat="48.76333" lon="2.2488">
        <ele>173.843</ele>
        <time>2016-11-08T10:18:41.669Z</time>
      </trkpt>
      <trkpt lat="48.76325" lon="2.24887">
        <ele>172.466</ele>
        <time>2016-11-08T10:18:50.378Z</time>
      </trkpt>
      <trkpt lat="48.76316" lon="2.24894">
        <ele>170.875</ele>
        <time>2016-11-08T10:18:59.267Z</time>
      </trkpt>
      <trkpt lat="48.76308" lon="2.24901">
        <ele>169.712</ele>
        <time>2016-11-08T10:19:06.613Z</time>
      </trkpt>
      <trkpt lat="48.76299" lon="2.24908">
        <ele>168.976</ele>
        <time>2016-11-08T10:19:13.972Z</time>
      </trkpt>
      <trkpt lat="48.7629" lon="2.24914">
        <ele>168.483</ele>
        <time>2016-11-08T10:19:21.925Z</time>
      </trkpt>
      <trkpt lat="48.76282" lon="2.24922">
        <ele>167.978</ele>
        <time>2016-11-08T10:19:29.798Z</time>
      </trkpt>
      <trkpt lat="48.76273" lon="2.24928">
        <ele>167.392</ele>
        <time>2016-11-08T10:19:37.827Z</time>
      </trkpt>
      <trkpt lat="48.76264" lon="2.24933">
        <ele>166.829</ele>
        <time>2016-11-08T10:19:48.363Z</time>
      </trkpt>
      <trkpt lat="48.76266" lon="2.24947">
        <ele>166.358</ele>
        <time>2016-11-08T10:19:58.479Z</time>
      </trkpt>
      <trkpt lat="48.76273" lon="2.24955">
        <ele>165.996</ele>
        <time>2016-11-08T10:20:07.967Z</time>
      </trkpt>
      <trkpt lat="48.76279" lon="2.24966">
        <ele>165.756</ele>
        <time>2016-11-08T10:20:17.291Z</time>
      </trkpt>
      <trkpt lat="48.76285" lon="2.24978">
        <ele>165.75</ele>
        <time>2016-11-08T10:20:27.411Z</time>
      </trkpt>
      <trkpt lat="48.7629" lon="2.24989">
        <ele>166.07</ele>
        <time>2016-11-08T10:20:36.140Z</time>
      </trkpt>
      <trkpt lat="48.76292" lon="2.25003">
        <ele>166.605</ele>
        <time>2016-11-08T10:20:44.673Z</time>
      </trkpt>
      <trkpt lat="48.76294" lon="2.25018">
        <ele>167.127</ele>
        <time>2016-11-08T10:20:53.607Z</time>
      </trkpt>
      <trkpt lat="48.76296" lon="2.25032">
        <ele>167.571</ele>
        <time>2016-11-08T10:21:01.746Z</time>
      </trkpt>
      <trkpt lat="48.76295" lon="2.25046">
        <ele>167.957</ele>
        <time>2016-11-08T10:21:10.103Z</time>
      </trkpt>
      <trkpt lat="48.76295" lon="2.25061">
        <ele>168.223</ele>
        <time>2016-11-08T10:21:19.292Z</time>
      </trkpt>
      <trkpt lat="48.76294" lon="2.25075">
        <ele>168.32</ele>
        <time>2016-11-08T10:21:28.094Z</time>
      </trkpt>
      <trkpt lat="48.76292" lon="2.25088">
        <ele>168.318</ele>
        <time>2016-11-08T10:21:36.406Z</time>
      </trkpt>
      <trkpt lat="48.76289" lon="2.25102">
        <ele>168.299</ele>
        <time>2016-11-08T10:21:44.435Z</time>
      </trkpt>
      <trkpt lat="48.76287" lon="2.25116">
        <ele>168.328</ele>
        <time>2016-11-08T10:21:51.820Z</time>
      </trkpt>
      <trkpt lat="48.76286" lon="2.2513">
        <ele>168.385</ele>
        <time>2016-11-08T10:21:59.984Z</time>
      </trkpt>
      <trkpt lat="48.76279" lon="2.25141">
        <ele>168.382</ele>
        <time>2016-11-08T10:22:08.811Z</time>
      </trkpt>
      <trkpt lat="48.76284" lon="2.25153">
        <ele>168.292</ele>
        <time>2016-11-08T10:22:19.061Z</time>
      </trkpt>
      <trkpt lat="48.7629" lon="2.25163">
        <ele>168.175</ele>
        <time>2016-11-08T10:22:28.544Z</time>
      </trkpt>
      <trkpt lat="48.76295" lon="2.25176">
        <ele>168.091</ele>
        <time>2016-11-08T10:22:36.452Z</time>
      </trkpt>
      <trkpt lat="48.763" lon="2.25189">
        <ele>168.067</ele>
        <time>2016-11-08T10:22:45.066Z</time>
      </trkpt>
      <trkpt lat="48.76303" lon="2.25204">
        <ele>168.201</ele>
        <time>2016-11-08T10:22:53.253Z</time>
      </trkpt>
      <trkpt lat="48.76298" lon="2.25217">
        <ele>168.529</ele>
        <time>2016-11-08T10:23:00.890Z</time>
      </trkpt>
      <trkpt lat="48.76292" lon="2.25229">
        <ele>168.825</ele>
        <time>2016-11-08T10:23:07.691Z</time>
      </trkpt>
      <trkpt lat="48.76285" lon="2.2524">
        <ele>168.884</ele>
        <time>2016-11-08T10:23:14.670Z</time>
      </trkpt>
      <trkpt lat="48.76278" lon="2.25251">
        <ele>168.671</ele>
        <time>2016-11-08T10:23:21.494Z</time>
      </trkpt>
      <trkpt lat="48.7627" lon="2.2526">
        <ele>168.245</ele>
        <time>2016-11-08T10:23:29.345Z</time>
      </trkpt>
      <trkpt lat="48.76264" lon="2.25271">
        <ele>167.777</ele>
        <time>2016-11-08T10:23:38.004Z</time>
      </trkpt>
      <trkpt lat="48.76256" lon="2.2528">
        <ele>167.279</ele>
        <time>2016-11-08T10:23:46.753Z</time>
      </trkpt>
      <trkpt lat="48.76249" lon="2.25289">
        <ele>166.551</ele>
        <time>2016-11-08T10:23:55.465Z</time>
      </trkpt>
      <trkpt lat="48.7624" lon="2.25297">
        <ele>165.479</ele>
        <time>2016-11-08T10:24:04.917Z</time>
      </trkpt>
      <trkpt lat="48.76234" lon="2.25307">
        <ele>164.009</ele>
        <time>2016-11-08T10:24:13.396Z</time>
      </trkpt>
      <trkpt lat="48.76226" lon="2.25316">
        <ele>162.188</ele>
        <time>2016-11-08T10:24:21.921Z</time>
      </trkpt>
      <trkpt lat="48.76233" lon="2.25326">
        <ele>160.239</ele>
        <time>2016-11-08T10:24:32.215Z</time>
      </trkpt>
      <trkpt lat="48.76268" lon="2.25371">
        <ele>157.811</ele>
        <time>2016-11-08T10:25:30.347Z</time>
      </trkpt>
      <trkpt lat="48.76278" lon="2.25372">
        <ele>158.133</ele>
        <time>2016-11-08T10:25:41.173Z</time>
      </trkpt>
      <trkpt lat="48.76287" lon="2.25375">
        <ele>159.086</ele>
        <time>2016-11-08T10:25:50.315Z</time>
      </trkpt>
      <trkpt lat="48.76296" lon="2.25377">
        <ele>159.971</ele>
        <time>2016-11-08T10:25:58.207Z</time>
      </trkpt>
      <trkpt lat="48.76305" lon="2.25383">
        <ele>160.578</ele>
        <time>2016-11-08T10:26:07.032Z</time>
      </trkpt>
      <trkpt lat="48.76313" lon="2.2539">
        <ele>161.061</ele>
        <time>2016-11-08T10:26:16.103Z</time>
      </trkpt>
      <trkpt lat="48.76322" lon="2.25396">
        <ele>161.593</ele>
        <time>2016-11-08T10:26:26.063Z</time>
      </trkpt>
      <trkpt lat="48.76331" lon="2.25401">
        <ele>162.269</ele>
        <time>2016-11-08T10:26:34.210Z</time>
      </trkpt>
      <trkpt lat="48.7634" lon="2.25405">
        <ele>163.038</ele>
        <time>2016-11-08T10:26:43.221Z</time>
      </trkpt>
      <trkpt lat="48.76344" lon="2.25419">
        <ele>163.784</ele>
        <time>2016-11-08T10:26:54.691Z</time>
      </trkpt>
      <trkpt lat="48.7635" lon="2.2543">
        <ele>164.641</ele>
        <time>2016-11-08T10:27:10.000Z</time>
      </trkpt>
      <trkpt lat="48.7635" lon="2.2543">
        <ele>164.582</ele>
        <time>2016-11-08T10:27:22.000Z</time>
      </trkpt>
      <trkpt lat="48.7635" lon="2.2543">
        <ele>164.495</ele>
        <time>2016-11-08T10:27:22.100Z</time>
      </trkpt>
      <trkpt lat="48.76352" lon="2.25451">
        <ele>164.455</ele>
        <time>2016-11-08T10:27:40.331Z</time>
      </trkpt>
      <trkpt lat="48.76348" lon="2.25464">
        <ele>164.635</ele>
        <time>2016-11-08T10:27:49.602Z</time>
      </trkpt>
      <trkpt lat="48.76353" lon="2.25475">
        <ele>165.126</ele>
        <time>2016-11-08T10:27:57.610Z</time>
      </trkpt>
      <trkpt lat="48.76357" lon="2.25488">
        <ele>165.617</ele>
        <time>2016-11-08T10:28:04.529Z</time>
      </trkpt>
      <trkpt lat="48.76352" lon="2.255">
        <ele>165.787</ele>
        <time>2016-11-08T10:28:11.000Z</time>
      </trkpt>
      <trkpt lat="48.76352" lon="2.255">
        <ele>165.686</ele>
        <time>2016-11-08T10:28:13.000Z</time>
      </trkpt>
      <trkpt lat="48.76352" lon="2.255">
        <ele>165.527</ele>
        <time>2016-11-08T10:28:13.100Z</time>
      </trkpt>
      <trkpt lat="48.76351" lon="2.25519">
        <ele>165.455</ele>
        <time>2016-11-08T10:28:40.408Z</time>
      </trkpt>
      <trkpt lat="48.76355" lon="2.25532">
        <ele>165.364</ele>
        <time>2016-11-08T10:28:49.000Z</time>
      </trkpt>
      <trkpt lat="48.76355" lon="2.25532">
        <ele>165.145</ele>
        <time>2016-11-08T10:28:53.000Z</time>
      </trkpt>
      <trkpt lat="48.76355" lon="2.25532">
        <ele>164.932</ele>
        <time>2016-11-08T10:28:54.114Z</time>
      </trkpt>
      <trkpt lat="48.76359" lon="2.25547">
        <ele>164.895</ele>
        <time>2016-11-08T10:29:08.407Z</time>
      </trkpt>
      <trkpt lat="48.76363" lon="2.25559">
        <ele>164.935</ele>
        <time>2016-11-08T10:29:17.000Z</time>
      </trkpt>
      <trkpt lat="48.76363" lon="2.25559">
        <ele>164.945</ele>
        <time>2016-11-08T10:29:21.000Z</time>
      </trkpt>
      <trkpt lat="48.76363" lon="2.25559">
        <ele>164.902</ele>
        <time>2016-11-08T10:29:27.862Z</time>
      </trkpt>
      <trkpt lat="48.76365" lon="2.25573">
        <ele>164.767</ele>
        <time>2016-11-08T10:30:02.205Z</time>
      </trkpt>
      <trkpt lat="48.76368" lon="2.25586">
        <ele>164.695</ele>
        <time>2016-11-08T10:30:15.390Z</time>
      </trkpt>
      <trkpt lat="48.76371" lon="2.25599">
        <ele>164.548</ele>
        <time>2016-11-08T10:30:25.261Z</time>
      </trkpt>
      <trkpt lat="48.76377" lon="2.2561">
        <ele>164.37</ele>
        <time>2016-11-08T10:30:34.846Z</time>
      </trkpt>
      <trkpt lat="48.76384" lon="2.25618">
        <ele>164.246</ele>
        <time>2016-11-08T10:30:47.302Z</time>
      </trkpt>
      <trkpt lat="48.76391" lon="2.25627">
        <ele>164.154</ele>
        <time>2016-11-08T10:31:02.846Z</time>
      </trkpt>
      <trkpt lat="48.764" lon="2.25628">
        <ele>163.926</ele>
        <time>2016-11-08T10:31:20.240Z</time>
      </trkpt>
      <trkpt lat="48.76407" lon="2.25617">
        <ele>163.511</ele>
        <time>2016-11-08T10:31:29.872Z</time>
      </trkpt>
      <trkpt lat="48.76413" lon="2.25605">
        <ele>163.138</ele>
        <time>2016-11-08T10:31:38.965Z</time>
      </trkpt>
      <trkpt lat="48.76422" lon="2.25611">
        <ele>162.982</ele>
        <time>2016-11-08T10:31:48.692Z</time>
      </trkpt>
      <trkpt lat="48.7643" lon="2.2562">
        <ele>162.678</ele>
        <time>2016-11-08T10:31:59.647Z</time>
      </trkpt>
      <trkpt lat="48.76438" lon="2.25628">
        <ele>161.53</ele>
        <time>2016-11-08T10:32:11.813Z</time>
      </trkpt>
      <trkpt lat="48.76442" lon="2.25641">
        <ele>159.238</ele>
        <time>2016-11-08T10:32:24.000Z</time>
      </trkpt>
      <trkpt lat="48.76442" lon="2.25641">
        <ele>156.589</ele>
        <time>2016-11-08T10:32:30.000Z</time>
      </trkpt>
      <trkpt lat="48.76442" lon="2.25641">
        <ele>155.042</ele>
        <time>2016-11-08T10:32:31.789Z</time>
      </trkpt>
      <trkpt lat="48.76442" lon="2.25641">
        <ele>155.803</ele>
        <time>2016-11-08T10:32:42.000Z</time>
      </trkpt>
      <trkpt lat="48.76442" lon="2.25641">
        <ele>156.222</ele>
        <time>2016-11-08T10:32:42.368Z</time>
      </trkpt>
      <trkpt lat="48.76439" lon="2.25659">
        <ele>156.032</ele>
        <time>2016-11-08T10:33:03.028Z</time>
      </trkpt>
      <trkpt lat="48.76447" lon="2.25668">
        <ele>155.148</ele>
        <time>2016-11-08T10:33:11.000Z</time>
      </trkpt>
      <trkpt lat="48.76447" lon="2.25668">
        <ele>153.828</ele>
        <time>2016-11-08T10:33:21.002Z</time>
      </trkpt>
      <trkpt lat="48.76447" lon="2.25668">
        <ele>152.913</ele>
        <time>2016-11-08T10:33:27.407Z</time>
      </trkpt>
      <trkpt lat="48.76454" lon="2.25681">
        <ele>152.89</ele>
        <time>2016-11-08T10:33:41.000Z</time>
      </trkpt>
      <trkpt lat="48.76454" lon="2.25681">
        <ele>153.159</ele>
        <time>2016-11-08T10:33:45.000Z</time>
      </trkpt>
      <trkpt lat="48.76454" lon="2.25681">
        <ele>153.128</ele>
        <time>2016-11-08T10:34:07.156Z</time>
      </trkpt>
      <trkpt lat="48.76459" lon="2.25697">
        <ele>152.899</ele>
        <time>2016-11-08T10:34:36.429Z</time>
      </trkpt>
      <trkpt lat="48.76466" lon="2.25707">
        <ele>152.19</ele>
        <time>2016-11-08T10:34:48.279Z</time>
      </trkpt>
      <trkpt lat="48.76471" lon="2.25718">
        <ele>150.412</ele>
        <time>2016-11-08T10:34:56.332Z</time>
      </trkpt>
      <trkpt lat="48.76472" lon="2.25733">
        <ele>148.113</ele>
        <time>2016-11-08T10:35:05.633Z</time>
      </trkpt>
      <trkpt lat="48.76476" lon="2.25746">
        <ele>146.427</ele>
        <time>2016-11-08T10:35:15.115Z</time>
      </trkpt>
      <trkpt lat="48.76481" lon="2.25759">
        <ele>145.349</ele>
        <time>2016-11-08T10:35:23.486Z</time>
      </trkpt>
      <trkpt lat="48.76485" lon="2.25772">
        <ele>144.378</ele>
        <time>2016-11-08T10:35:32.802Z</time>
      </trkpt>
      <trkpt lat="48.76489" lon="2.25784">
        <ele>143.615</ele>
        <time>2016-11-08T10:35:43.374Z</time>
      </trkpt>
      <trkpt lat="48.7649" lon="2.25799">
        <ele>143.286</ele>
        <time>2016-11-08T10:35:55.034Z</time>
      </trkpt>
      <trkpt lat="48.76493" lon="2.25812">
        <ele>143.221</ele>
        <time>2016-11-08T10:36:04.452Z</time>
      </trkpt>
      <trkpt lat="48.76492" lon="2.25826">
        <ele>143.422</ele>
        <time>2016-11-08T10:36:13.439Z</time>
      </trkpt>
      <trkpt lat="48.76501" lon="2.25828">
        <ele>144.083</ele>
        <time>2016-11-08T10:36:23.330Z</time>
      </trkpt>
      <trkpt lat="48.7651" lon="2.25832">
        <ele>145.138</ele>
        <time>2016-11-08T10:36:36.000Z</time>
      </trkpt>
      <trkpt lat="48.7651" lon="2.25832">
        <ele>146.154</ele>
        <time>2016-11-08T10:36:41.000Z</time>
      </trkpt>
      <trkpt lat="48.7651" lon="2.25832">
        <ele>146.647</ele>
        <time>2016-11-08T10:36:51.486Z</time>
      </trkpt>
      <trkpt lat="48.7652" lon="2.25837">
        <ele>146.213</ele>
        <time>2016-11-08T10:37:09.992Z</time>
      </trkpt>
      <trkpt lat="48.7653" lon="2.25835">
        <ele>146.36</ele>
        <time>2016-11-08T10:37:20.667Z</time>
      </trkpt>
      <trkpt lat="48.76539" lon="2.25834">
        <ele>147.282</ele>
        <time>2016-11-08T10:37:31.175Z</time>
      </trkpt>
      <trkpt lat="48.76548" lon="2.25836">
        <ele>148.836</ele>
        <time>2016-11-08T10:37:43.841Z</time>
      </trkpt>
      <trkpt lat="48.76557" lon="2.25839">
        <ele>150.885</ele>
        <time>2016-11-08T10:37:53.883Z</time>
      </trkpt>
      <trkpt lat="48.76566" lon="2.25841">
        <ele>153.037</ele>
        <time>2016-11-08T10:38:04.000Z</time>
      </trkpt>
      <trkpt lat="48.76566" lon="2.25841">
        <ele>154.557</ele>
        <time>2016-11-08T10:38:06.000Z</time>
      </trkpt>
      <trkpt lat="48.76566" lon="2.25841">
        <ele>155.126</ele>
        <time>2016-11-08T10:38:06.100Z</time>
      </trkpt>
      <trkpt lat="48.76567" lon="2.25856">
        <ele>154.612</ele>
        <time>2016-11-08T10:38:20.020Z</time>
      </trkpt>
      <trkpt lat="48.76564" lon="2.25871">
        <ele>154.533</ele>
        <time>2016-11-08T10:38:29.772Z</time>
      </trkpt>
      <trkpt lat="48.76561" lon="2.25886">
        <ele>154.85</ele>
        <time>2016-11-08T10:38:38.449Z</time>
      </trkpt>
      <trkpt lat="48.76561" lon="2.25901">
        <ele>155.184</ele>
        <time>2016-11-08T10:38:46.893Z</time>
      </trkpt>
      <trkpt lat="48.76561" lon="2.25916">
        <ele>155.135</ele>
        <time>2016-11-08T10:38:55.447Z</time>
      </trkpt>
      <trkpt lat="48.76559" lon="2.2593">
        <ele>154.648</ele>
        <time>2016-11-08T10:39:03.537Z</time>
      </trkpt>
      <trkpt lat="48.76555" lon="2.25943">
        <ele>153.882</ele>
        <time>2016-11-08T10:39:11.287Z</time>
      </trkpt>
      <trkpt lat="48.76552" lon="2.25956">
        <ele>153.039</ele>
        <time>2016-11-08T10:39:18.166Z</time>
      </trkpt>
      <trkpt lat="48.76549" lon="2.25969">
        <ele>152.243</ele>
        <time>2016-11-08T10:39:25.251Z</time>
      </trkpt>
      <trkpt lat="48.76547" lon="2.25984">
        <ele>151.526</ele>
        <time>2016-11-08T10:39:33.465Z</time>
      </trkpt>
      <trkpt lat="48.76543" lon="2.25998">
        <ele>150.884</ele>
        <time>2016-11-08T10:39:42.000Z</time>
      </trkpt>
      <trkpt lat="48.76543" lon="2.25998">
        <ele>150.356</ele>
        <time>2016-11-08T10:39:51.000Z</time>
      </trkpt>
      <trkpt lat="48.76543" lon="2.25998">
        <ele>150.07</ele>
        <time>2016-11-08T10:40:04.857Z</time>
      </trkpt>
      <trkpt lat="48.76551" lon="2.2601">
        <ele>150.033</ele>
        <time>2016-11-08T10:40:24.678Z</time>
      </trkpt>
      <trkpt lat="48.7656" lon="2.26014">
        <ele>149.996</ele>
        <time>2016-11-08T10:40:37.338Z</time>
      </trkpt>
      <trkpt lat="48.76564" lon="2.26026">
        <ele>149.755</ele>
        <time>2016-11-08T10:40:49.538Z</time>
      </trkpt>
      <trkpt lat="48.76568" lon="2.26039">
        <ele>149.42</ele>
        <time>2016-11-08T10:41:05.102Z</time>
      </trkpt>
      <trkpt lat="48.76577" lon="2.26044">
        <ele>149.188</ele>
        <time>2016-11-08T10:41:23.136Z</time>
      </trkpt>
      <trkpt lat="48.76587" lon="2.26047">
        <ele>149.14</ele>
        <time>2016-11-08T10:41:38.621Z</time>
      </trkpt>
      <trkpt lat="48.76596" lon="2.2605">
        <ele>149.753</ele>
        <time>2016-11-08T10:41:55.472Z</time>
      </trkpt>
      <trkpt lat="48.76605" lon="2.26048">
        <ele>151.443</ele>
        <time>2016-11-08T10:42:12.419Z</time>
      </trkpt>
      <trkpt lat="48.76615" lon="2.26047">
        <ele>153.511</ele>
        <time>2016-11-08T10:42:29.000Z</time>
      </trkpt>
      <trkpt lat="48.76615" lon="2.26047">
        <ele>154.862</ele>
        <time>2016-11-08T10:42:32.000Z</time>
      </trkpt>
      <trkpt lat="48.76615" lon="2.26047">
        <ele>155.264</ele>
        <time>2016-11-08T10:42:46.982Z</time>
      </trkpt>
      <trkpt lat="48.76625" lon="2.26053">
        <ele>155.109</ele>
        <time>2016-11-08T10:43:03.643Z</time>
      </trkpt>
      <trkpt lat="48.76635" lon="2.26056">
        <ele>156.211</ele>
        <time>2016-11-08T10:43:12.159Z</time>
      </trkpt>
      <trkpt lat="48.76643" lon="2.26063">
        <ele>159.637</ele>
        <time>2016-11-08T10:43:19.908Z</time>
      </trkpt>
      <trkpt lat="48.76652" lon="2.26067">
        <ele>163.281</ele>
        <time>2016-11-08T10:43:28.327Z</time>
      </trkpt>
      <trkpt lat="48.76662" lon="2.26069">
        <ele>164.973</ele>
        <time>2016-11-08T10:43:36.690Z</time>
      </trkpt>
      <trkpt lat="48.76671" lon="2.26071">
        <ele>165.076</ele>
        <time>2016-11-08T10:43:44.166Z</time>
      </trkpt>
      <trkpt lat="48.7668" lon="2.2607">
        <ele>164.606</ele>
        <time>2016-11-08T10:43:51.000Z</time>
      </trkpt>
      <trkpt lat="48.7668" lon="2.2607">
        <ele>164.228</ele>
        <time>2016-11-08T10:44:00.000Z</time>
      </trkpt>
      <trkpt lat="48.7668" lon="2.2607">
        <ele>164.086</ele>
        <time>2016-11-08T10:46:08.839Z</time>
      </trkpt>
      <trkpt lat="48.76699" lon="2.26072">
        <ele>164.124</ele>
        <time>2016-11-08T10:46:33.204Z</time>
      </trkpt>
      <trkpt lat="48.76708" lon="2.26073">
        <ele>164.44</ele>
        <time>2016-11-08T10:46:42.037Z</time>
      </trkpt>
      <trkpt lat="48.76714" lon="2.26084">
        <ele>165.046</ele>
        <time>2016-11-08T10:46:50.203Z</time>
      </trkpt>
      <trkpt lat="48.76719" lon="2.26096">
        <ele>165.607</ele>
        <time>2016-11-08T10:46:58.937Z</time>
      </trkpt>
      <trkpt lat="48.7672" lon="2.2611">
        <ele>165.789</ele>
        <time>2016-11-08T10:47:07.102Z</time>
      </trkpt>
      <trkpt lat="48.76717" lon="2.26124">
        <ele>165.554</ele>
        <time>2016-11-08T10:47:15.524Z</time>
      </trkpt>
      <trkpt lat="48.76713" lon="2.26137">
        <ele>165.101</ele>
        <time>2016-11-08T10:47:23.715Z</time>
      </trkpt>
      <trkpt lat="48.76709" lon="2.26149">
        <ele>164.507</ele>
        <time>2016-11-08T10:47:31.906Z</time>
      </trkpt>
      <trkpt lat="48.76708" lon="2.26163">
        <ele>164.199</ele>
        <time>2016-11-08T10:47:40.788Z</time>
      </trkpt>
      <trkpt lat="48.76713" lon="2.26177">
        <ele>164.101</ele>
        <time>2016-11-08T10:47:50.844Z</time>
      </trkpt>
      <trkpt lat="48.76716" lon="2.26192">
        <ele>164.015</ele>
        <time>2016-11-08T10:47:59.609Z</time>
      </trkpt>
      <trkpt lat="48.76722" lon="2.26204">
        <ele>163.969</ele>
        <time>2016-11-08T10:48:07.444Z</time>
      </trkpt>
      <trkpt lat="48.76729" lon="2.26214">
        <ele>163.871</ele>
        <time>2016-11-08T10:48:15.950Z</time>
      </trkpt>
      <trkpt lat="48.76738" lon="2.26222">
        <ele>163.627</ele>
        <time>2016-11-08T10:48:25.446Z</time>
      </trkpt>
      <trkpt lat="48.76746" lon="2.26227">
        <ele>163.303</ele>
        <time>2016-11-08T10:48:33.767Z</time>
      </trkpt>
      <trkpt lat="48.76755" lon="2.26233">
        <ele>162.934</ele>
        <time>2016-11-08T10:48:41.892Z</time>
      </trkpt>
      <trkpt lat="48.76765" lon="2.26235">
        <ele>162.411</ele>
        <time>2016-11-08T10:48:50.666Z</time>
      </trkpt>
      <trkpt lat="48.76774" lon="2.26233">
        <ele>161.743</ele>
        <time>2016-11-08T10:48:58.847Z</time>
      </trkpt>
      <trkpt lat="48.76772" lon="2.26219">
        <ele>161.064</ele>
        <time>2016-11-08T10:49:08.172Z</time>
      </trkpt>
      <trkpt lat="48.76768" lon="2.26206">
        <ele>160.514</ele>
        <time>2016-11-08T10:49:17.000Z</time>
      </trkpt>
      <trkpt lat="48.76768" lon="2.26206">
        <ele>160.223</ele>
        <time>2016-11-08T10:49:30.000Z</time>
      </trkpt>
      <trkpt lat="48.76768" lon="2.26206">
        <ele>160.185</ele>
        <time>2016-11-08T10:50:26.484Z</time>
      </trkpt>
      <trkpt lat="48.76779" lon="2.26208">
        <ele>160.251</ele>
        <time>2016-11-08T10:50:45.211Z</time>
      </trkpt>
      <trkpt lat="48.76789" lon="2.26205">
        <ele>160.271</ele>
        <time>2016-11-08T10:50:55.824Z</time>
      </trkpt>
      <trkpt lat="48.76797" lon="2.262">
        <ele>159.988</ele>
        <time>2016-11-08T10:51:04.324Z</time>
      </trkpt>
      <trkpt lat="48.76804" lon="2.26191">
        <ele>159.125</ele>
        <time>2016-11-08T10:51:13.138Z</time>
      </trkpt>
      <trkpt lat="48.76806" lon="2.26176">
        <ele>157.745</ele>
        <time>2016-11-08T10:51:23.016Z</time>
      </trkpt>
      <trkpt lat="48.76804" lon="2.26162">
        <ele>156.265</ele>
        <time>2016-11-08T10:51:32.432Z</time>
      </trkpt>
      <trkpt lat="48.7681" lon="2.26151">
        <ele>155.081</ele>
        <time>2016-11-08T10:51:41.995Z</time>
      </trkpt>
      <trkpt lat="48.76819" lon="2.26146">
        <ele>154.001</ele>
        <time>2016-11-08T10:51:54.000Z</time>
      </trkpt>
      <trkpt lat="48.76819" lon="2.26146">
        <ele>152.771</ele>
        <time>2016-11-08T10:52:03.000Z</time>
      </trkpt>
      <trkpt lat="48.76819" lon="2.26146">
        <ele>151.927</ele>
        <time>2016-11-08T10:52:24.380Z</time>
      </trkpt>
      <trkpt lat="48.7683" lon="2.26149">
        <ele>151.903</ele>
        <time>2016-11-08T10:52:40.883Z</time>
      </trkpt>
      <trkpt lat="48.76835" lon="2.26161">
        <ele>151.671</ele>
        <time>2016-11-08T10:52:51.966Z</time>
      </trkpt>
      <trkpt lat="48.76842" lon="2.2617">
        <ele>150.229</ele>
        <time>2016-11-08T10:53:03.572Z</time>
      </trkpt>
      <trkpt lat="48.76848" lon="2.26179">
        <ele>148.081</ele>
        <time>2016-11-08T10:53:12.862Z</time>
      </trkpt>
      <trkpt lat="48.76856" lon="2.26188">
        <ele>146.282</ele>
        <time>2016-11-08T10:53:21.525Z</time>
      </trkpt>
      <trkpt lat="48.76866" lon="2.26192">
        <ele>145.271</ele>
        <time>2016-11-08T10:53:30.847Z</time>
      </trkpt>
      <trkpt lat="48.76875" lon="2.26194">
        <ele>145.058</ele>
        <time>2016-11-08T10:53:41.046Z</time>
      </trkpt>
      <trkpt lat="48.76884" lon="2.262">
        <ele>145.31</ele>
        <time>2016-11-08T10:53:52.024Z</time>
      </trkpt>
      <trkpt lat="48.76893" lon="2.26203">
        <ele>145.551</ele>
        <time>2016-11-08T10:54:01.587Z</time>
      </trkpt>
      <trkpt lat="48.76902" lon="2.26202">
        <ele>145.522</ele>
        <time>2016-11-08T10:54:10.600Z</time>
      </trkpt>
      <trkpt lat="48.76911" lon="2.26206">
        <ele>145.285</ele>
        <time>2016-11-08T10:54:19.036Z</time>
      </trkpt>
      <trkpt lat="48.7692" lon="2.26205">
        <ele>144.918</ele>
        <time>2016-11-08T10:54:27.369Z</time>
      </trkpt>
      <trkpt lat="48.76929" lon="2.26204">
        <ele>144.461</ele>
        <time>2016-11-08T10:54:35.565Z</time>
      </trkpt>
      <trkpt lat="48.7693" lon="2.2619">
        <ele>143.983</ele>
        <time>2016-11-08T10:54:44.342Z</time>
      </trkpt>
      <trkpt lat="48.7693" lon="2.26176">
        <ele>143.523</ele>
        <time>2016-11-08T10:54:51.790Z</time>
      </trkpt>
      <trkpt lat="48.76931" lon="2.26161">
        <ele>143.103</ele>
        <time>2016-11-08T10:54:59.242Z</time>
      </trkpt>
      <trkpt lat="48.76933" lon="2.26147">
        <ele>142.683</ele>
        <time>2016-11-08T10:55:07.353Z</time>
      </trkpt>
      <trkpt lat="48.76936" lon="2.26134">
        <ele>142.163</ele>
        <time>2016-11-08T10:55:16.579Z</time>
      </trkpt>
      <trkpt lat="48.76943" lon="2.26143">
        <ele>141.509</ele>
        <time>2016-11-08T10:55:26.317Z</time>
      </trkpt>
      <trkpt lat="48.76948" lon="2.26155">
        <ele>140.767</ele>
        <time>2016-11-08T10:55:35.004Z</time>
      </trkpt>
      <trkpt lat="48.76952" lon="2.26169">
        <ele>140.033</ele>
        <time>2016-11-08T10:55:43.143Z</time>
      </trkpt>
      <trkpt lat="48.76959" lon="2.2618">
        <ele>139.421</ele>
        <time>2016-11-08T10:55:51.631Z</time>
      </trkpt>
      <trkpt lat="48.76962" lon="2.26193">
        <ele>138.985</ele>
        <time>2016-11-08T10:56:00.132Z</time>
      </trkpt>
      <trkpt lat="48.76963" lon="2.26208">
        <ele>138.697</ele>
        <time>2016-11-08T10:56:09.627Z</time>
      </trkpt>
      <trkpt lat="48.76964" lon="2.26222">
        <ele>138.449</ele>
        <time>2016-11-08T10:56:17.901Z</time>
      </trkpt>
      <trkpt lat="48.76963" lon="2.26236">
        <ele>138.102</ele>
        <time>2016-11-08T10:56:25.076Z</time>
      </trkpt>
      <trkpt lat="48.76962" lon="2.2625">
        <ele>137.64</ele>
        <time>2016-11-08T10:56:32.373Z</time>
      </trkpt>
      <trkpt lat="48.76962" lon="2.26264">
        <ele>137.16</ele>
        <time>2016-11-08T10:56:40.386Z</time>
      </trkpt>
      <trkpt lat="48.76961" lon="2.26278">
        <ele>136.69</ele>
        <time>2016-11-08T10:56:50.006Z</time>
      </trkpt>
      <trkpt lat="48.76959" lon="2.26291">
        <ele>136.192</ele>
        <time>2016-11-08T10:56:59.292Z</time>
      </trkpt>
      <trkpt lat="48.76957" lon="2.26306">
        <ele>135.654</ele>
        <time>2016-11-08T10:57:09.141Z</time>
      </trkpt>
      <trkpt lat="48.76956" lon="2.2632">
        <ele>135.147</ele>
        <time>2016-11-08T10:57:16.705Z</time>
      </trkpt>
      <trkpt lat="48.76953" lon="2.26334">
        <ele>134.691</ele>
        <time>2016-11-08T10:57:23.830Z</time>
      </trkpt>
      <trkpt lat="48.76955" lon="2.26348">
        <ele>134.209</ele>
        <time>2016-11-08T10:57:30.910Z</time>
      </trkpt>
      <trkpt lat="48.76955" lon="2.26362">
        <ele>133.656</ele>
        <time>2016-11-08T10:57:38.938Z</time>
      </trkpt>
      <trkpt lat="48.76956" lon="2.26377">
        <ele>133.081</ele>
        <time>2016-11-08T10:57:47.577Z</time>
      </trkpt>
      <trkpt lat="48.7696" lon="2.2639">
        <ele>132.435</ele>
        <time>2016-11-08T10:57:55.598Z</time>
      </trkpt>
      <trkpt lat="48.76966" lon="2.26401">
        <ele>131.688</ele>
        <time>2016-11-08T10:58:03.762Z</time>
      </trkpt>
      <trkpt lat="48.76974" lon="2.26408">
        <ele>130.977</ele>
        <time>2016-11-08T10:58:11.319Z</time>
      </trkpt>
      <trkpt lat="48.76984" lon="2.2641">
        <ele>130.286</ele>
        <time>2016-11-08T10:58:19.964Z</time>
      </trkpt>
      <trkpt lat="48.76993" lon="2.26407">
        <ele>129.488</ele>
        <time>2016-11-08T10:58:28.418Z</time>
      </trkpt>
      <trkpt lat="48.77003" lon="2.26405">
        <ele>128.761</ele>
        <time>2016-11-08T10:58:37.063Z</time>
      </trkpt>
      <trkpt lat="48.77011" lon="2.26399">
        <ele>128.328</ele>
        <time>2016-11-08T10:58:44.488Z</time>
      </trkpt>
      <trkpt lat="48.77016" lon="2.26387">
        <ele>128.133</ele>
        <time>2016-11-08T10:58:52.000Z</time>
      </trkpt>
      <trkpt lat="48.77016" lon="2.26387">
        <ele>128.036</ele>
        <time>2016-11-08T10:58:57.000Z</time>
      </trkpt>
      <trkpt lat="48.77016" lon="2.26387">
        <ele>127.97</ele>
        <time>2016-11-08T10:58:57.100Z</time>
      </trkpt>
      <trkpt lat="48.77016" lon="2.26372">
        <ele>127.921</ele>
        <time>2016-11-08T10:59:16.059Z</time>
      </trkpt>
      <trkpt lat="48.77009" lon="2.26363">
        <ele>127.89</ele>
        <time>2016-11-08T10:59:27.177Z</time>
      </trkpt>
      <trkpt lat="48.77006" lon="2.26348">
        <ele>127.979</ele>
        <time>2016-11-08T10:59:37.559Z</time>
      </trkpt>
      <trkpt lat="48.77007" lon="2.26333">
        <ele>128.34</ele>
        <time>2016-11-08T10:59:46.779Z</time>
      </trkpt>
      <trkpt lat="48.77008" lon="2.26318">
        <ele>128.946</ele>
        <time>2016-11-08T10:59:55.756Z</time>
      </trkpt>
      <trkpt lat="48.77008" lon="2.26302">
        <ele>129.577</ele>
        <time>2016-11-08T11:00:04.826Z</time>
      </trkpt>
      <trkpt lat="48.77011" lon="2.2629">
        <ele>130.041</ele>
        <time>2016-11-08T11:00:13.344Z</time>
      </trkpt>
      <trkpt lat="48.77009" lon="2.26275">
        <ele>130.296</ele>
        <time>2016-11-08T11:00:22.662Z</time>
      </trkpt>
      <trkpt lat="48.77005" lon="2.26261">
        <ele>130.438</ele>
        <time>2016-11-08T11:00:31.470Z</time>
      </trkpt>
      <trkpt lat="48.77004" lon="2.26247">
        <ele>130.633</ele>
        <time>2016-11-08T11:00:39.542Z</time>
      </trkpt>
      <trkpt lat="48.77007" lon="2.26233">
        <ele>130.974</ele>
        <time>2016-11-08T11:00:48.328Z</time>
      </trkpt>
      <trkpt lat="48.77008" lon="2.26218">
        <ele>131.393</ele>
        <time>2016-11-08T11:00:57.465Z</time>
      </trkpt>
      <trkpt lat="48.77005" lon="2.26204">
        <ele>131.8</ele>
        <time>2016-11-08T11:01:07.226Z</time>
      </trkpt>
      <trkpt lat="48.77001" lon="2.26191">
        <ele>132.257</ele>
        <time>2016-11-08T11:01:16.350Z</time>
      </trkpt>
      <trkpt lat="48.76996" lon="2.2618">
        <ele>132.815</ele>
        <time>2016-11-08T11:01:25.312Z</time>
      </trkpt>
      <trkpt lat="48.76991" lon="2.26167">
        <ele>133.414</ele>
        <time>2016-11-08T11:01:34.591Z</time>
      </trkpt>
      <trkpt lat="48.76988" lon="2.26154">
        <ele>133.989</ele>
        <time>2016-11-08T11:01:42.894Z</time>
      </trkpt>
      <trkpt lat="48.76981" lon="2.26142">
        <ele>134.452</ele>
        <time>2016-11-08T11:01:52.342Z</time>
      </trkpt>
      <trkpt lat="48.76976" lon="2.2613">
        <ele>134.772</ele>
        <time>2016-11-08T11:02:01.454Z</time>
      </trkpt>
      <trkpt lat="48.76971" lon="2.26119">
        <ele>135.13</ele>
        <time>2016-11-08T11:02:10.647Z</time>
      </trkpt>
      <trkpt lat="48.76971" lon="2.26104">
        <ele>135.714</ele>
        <time>2016-11-08T11:02:19.453Z</time>
      </trkpt>
      <trkpt lat="48.76969" lon="2.2609">
        <ele>136.43</ele>
        <time>2016-11-08T11:02:28.219Z</time>
      </trkpt>
      <trkpt lat="48.76964" lon="2.26077">
        <ele>137.002</ele>
        <time>2016-11-08T11:02:37.271Z</time>
      </trkpt>
      <trkpt lat="48.76959" lon="2.26065">
        <ele>137.367</ele>
        <time>2016-11-08T11:02:47.098Z</time>
      </trkpt>
      <trkpt lat="48.7696" lon="2.26051">
        <ele>137.635</ele>
        <time>2016-11-08T11:02:58.615Z</time>
      </trkpt>
      <trkpt lat="48.76966" lon="2.26041">
        <ele>137.645</ele>
        <time>2016-11-08T11:03:10.811Z</time>
      </trkpt>
      <trkpt lat="48.76975" lon="2.26045">
        <ele>136.969</ele>
        <time>2016-11-08T11:03:21.646Z</time>
      </trkpt>
      <trkpt lat="48.76984" lon="2.26052">
        <ele>135.508</ele>
        <time>2016-11-08T11:03:31.299Z</time>
      </trkpt>
      <trkpt lat="48.76993" lon="2.26058">
        <ele>133.798</ele>
        <time>2016-11-08T11:03:40.707Z</time>
      </trkpt>
      <trkpt lat="48.77001" lon="2.26065">
        <ele>132.391</ele>
        <time>2016-11-08T11:03:50.069Z</time>
      </trkpt>
      <trkpt lat="48.77011" lon="2.2607">
        <ele>131.356</ele>
        <time>2016-11-08T11:03:59.885Z</time>
      </trkpt>
      <trkpt lat="48.7702" lon="2.26066">
        <ele>130.578</ele>
        <time>2016-11-08T11:04:08.498Z</time>
      </trkpt>
      <trkpt lat="48.7703" lon="2.2606">
        <ele>129.991</ele>
        <time>2016-11-08T11:04:16.412Z</time>
      </trkpt>
      <trkpt lat="48.77037" lon="2.2605">
        <ele>129.58</ele>
        <time>2016-11-08T11:04:23.894Z</time>
      </trkpt>
      <trkpt lat="48.77044" lon="2.26038">
        <ele>129.44</ele>
        <time>2016-11-08T11:04:32.961Z</time>
      </trkpt>
      <trkpt lat="48.77044" lon="2.26025">
        <ele>129.61</ele>
        <time>2016-11-08T11:04:41.031Z</time>
      </trkpt>
      <trkpt lat="48.77045" lon="2.26011">
        <ele>130.012</ele>
        <time>2016-11-08T11:04:48.876Z</time>
      </trkpt>
      <trkpt lat="48.77043" lon="2.25997">
        <ele>130.59</ele>
        <time>2016-11-08T11:04:56.859Z</time>
      </trkpt>
      <trkpt lat="48.77043" lon="2.25982">
        <ele>131.272</ele>
        <time>2016-11-08T11:05:05.104Z</time>
      </trkpt>
      <trkpt lat="48.77043" lon="2.25967">
        <ele>131.887</ele>
        <time>2016-11-08T11:05:14.302Z</time>
      </trkpt>
      <trkpt lat="48.77048" lon="2.25955">
        <ele>132.446</ele>
        <time>2016-11-08T11:05:25.348Z</time>
      </trkpt>
      <trkpt lat="48.77056" lon="2.2595">
        <ele>133.114</ele>
        <time>2016-11-08T11:05:42.286Z</time>
      </trkpt>
      <trkpt lat="48.77063" lon="2.2596">
        <ele>134.276</ele>
        <time>2016-11-08T11:05:59.418Z</time>
      </trkpt>
      <trkpt lat="48.77072" lon="2.25965">
        <ele>136.353</ele>
        <time>2016-11-08T11:06:13.000Z</time>
      </trkpt>
      <trkpt lat="48.77072" lon="2.25965">
        <ele>138.812</ele>
        <time>2016-11-08T11:06:18.000Z</time>
      </trkpt>
      <trkpt lat="48.77072" lon="2.25965">
        <ele>140.2</ele>
        <time>2016-11-08T11:06:24.780Z</time>
      </trkpt>
      <trkpt lat="48.77086" lon="2.25962">
        <ele>140.041</ele>
        <time>2016-11-08T11:06:55.783Z</time>
      </trkpt>
      <trkpt lat="48.77094" lon="2.2597">
        <ele>140.176</ele>
        <time>2016-11-08T11:07:08.428Z</time>
      </trkpt>
      <trkpt lat="48.77101" lon="2.25985">
        <ele>142.387</ele>
        <time>2016-11-08T11:07:20.671Z</time>
      </trkpt>
      <trkpt lat="48.77108" lon="2.25993">
        <ele>145.674</ele>
        <time>2016-11-08T11:07:30.657Z</time>
      </trkpt>
      <trkpt lat="48.77117" lon="2.2599">
        <ele>148.167</ele>
        <time>2016-11-08T11:07:41.501Z</time>
      </trkpt>
      <trkpt lat="48.77125" lon="2.25983">
        <ele>149.582</ele>
        <time>2016-11-08T11:07:52.764Z</time>
      </trkpt>
      <trkpt lat="48.77132" lon="2.25993">
        <ele>150.498</ele>
        <time>2016-11-08T11:08:03.354Z</time>
      </trkpt>
      <trkpt lat="48.77139" lon="2.26001">
        <ele>151.278</ele>
        <time>2016-11-08T11:08:12.197Z</time>
      </trkpt>
      <trkpt lat="48.77147" lon="2.2601">
        <ele>151.868</ele>
        <time>2016-11-08T11:08:20.806Z</time>
      </trkpt>
      <trkpt lat="48.77153" lon="2.26019">
        <ele>152.168</ele>
        <time>2016-11-08T11:08:29.636Z</time>
      </trkpt>
      <trkpt lat="48.77162" lon="2.26026">
        <ele>152.262</ele>
        <time>2016-11-08T11:08:37.964Z</time>
      </trkpt>
      <trkpt lat="48.77169" lon="2.26037">
        <ele>152.204</ele>
        <time>2016-11-08T11:08:46.817Z</time>
      </trkpt>
      <trkpt lat="48.77179" lon="2.26036">
        <ele>151.992</ele>
        <time>2016-11-08T11:08:55.368Z</time>
      </trkpt>
      <trkpt lat="48.77188" lon="2.26042">
        <ele>151.661</ele>
        <time>2016-11-08T11:09:04.528Z</time>
      </trkpt>
      <trkpt lat="48.77196" lon="2.26048">
        <ele>151.344</ele>
        <time>2016-11-08T11:09:13.516Z</time>
      </trkpt>
      <trkpt lat="48.77205" lon="2.26054">
        <ele>151.165</ele>
        <time>2016-11-08T11:09:22.631Z</time>
      </trkpt>
      <trkpt lat="48.77214" lon="2.26059">
        <ele>151.133</ele>
        <time>2016-11-08T11:09:32.511Z</time>
      </trkpt>
      <trkpt lat="48.77221" lon="2.2607">
        <ele>151.163</ele>
        <time>2016-11-08T11:09:41.694Z</time>
      </trkpt>
      <trkpt lat="48.77229" lon="2.26078">
        <ele>151.188</ele>
        <time>2016-11-08T11:09:50.000Z</time>
      </trkpt>
      <trkpt lat="48.77229" lon="2.26078">
        <ele>151.195</ele>
        <time>2016-11-08T11:10:02.000Z</time>
      </trkpt>
      <trkpt lat="48.77229" lon="2.26078">
        <ele>151.17</ele>
        <time>2016-11-08T11:10:02.100Z</time>
      </trkpt>
      <trkpt lat="48.77246" lon="2.26085">
        <ele>151.106</ele>
        <time>2016-11-08T11:10:30.482Z</time>
      </trkpt>
      <trkpt lat="48.77252" lon="2.26096">
        <ele>151.217</ele>
        <time>2016-11-08T11:10:41.587Z</time>
      </trkpt>
      <trkpt lat="48.77254" lon="2.2611">
        <ele>151.642</ele>
        <time>2016-11-08T11:10:54.685Z</time>
      </trkpt>
      <trkpt lat="48.77263" lon="2.2611">
        <ele>151.908</ele>
        <time>2016-11-08T11:11:07.373Z</time>
      </trkpt>
      <trkpt lat="48.77267" lon="2.26098">
        <ele>151.497</ele>
        <time>2016-11-08T11:11:19.036Z</time>
      </trkpt>
      <trkpt lat="48.77272" lon="2.26087">
        <ele>150.458</ele>
        <time>2016-11-08T11:11:28.626Z</time>
      </trkpt>
      <trkpt lat="48.77273" lon="2.26072">
        <ele>149.089</ele>
        <time>2016-11-08T11:11:38.984Z</time>
      </trkpt>
      <trkpt lat="48.77275" lon="2.26058">
        <ele>147.645</ele>
        <time>2016-11-08T11:11:49.071Z</time>
      </trkpt>
      <trkpt lat="48.77277" lon="2.26044">
        <ele>146.297</ele>
        <time>2016-11-08T11:11:58.408Z</time>
      </trkpt>
      <trkpt lat="48.7728" lon="2.2603">
        <ele>145.206</ele>
        <time>2016-11-08T11:12:06.696Z</time>
      </trkpt>
      <trkpt lat="48.77288" lon="2.26022">
        <ele>144.567</ele>
        <time>2016-11-08T11:12:14.267Z</time>
      </trkpt>
      <trkpt lat="48.77297" lon="2.26018">
        <ele>144.315</ele>
        <time>2016-11-08T11:12:21.981Z</time>
      </trkpt>
      <trkpt lat="48.77307" lon="2.26022">
        <ele>144.166</ele>
        <time>2016-11-08T11:12:30.000Z</time>
      </trkpt>
      <trkpt lat="48.77307" lon="2.26022">
        <ele>144.001</ele>
        <time>2016-11-08T11:12:37.000Z</time>
      </trkpt>
      <trkpt lat="48.77307" lon="2.26022">
        <ele>143.878</ele>
        <time>2016-11-08T11:12:37.100Z</time>
      </trkpt>
      <trkpt lat="48.77321" lon="2.26034">
        <ele>143.847</ele>
        <time>2016-11-08T11:12:59.589Z</time>
      </trkpt>
      <trkpt lat="48.77329" lon="2.26042">
        <ele>143.979</ele>
        <time>2016-11-08T11:13:09.070Z</time>
      </trkpt>
      <trkpt lat="48.77338" lon="2.26044">
        <ele>144.349</ele>
        <time>2016-11-08T11:13:19.000Z</time>
      </trkpt>
      <trkpt lat="48.77338" lon="2.26044">
        <ele>144.829</ele>
        <time>2016-11-08T11:13:21.000Z</time>
      </trkpt>
      <trkpt lat="48.77338" lon="2.26044">
        <ele>145.095</ele>
        <time>2016-11-08T11:13:21.100Z</time>
      </trkpt>
      <trkpt lat="48.77348" lon="2.26046">
        <ele>144.806</ele>
        <time>2016-11-08T11:13:36.755Z</time>
      </trkpt>
      <trkpt lat="48.77357" lon="2.2605">
        <ele>145.14</ele>
        <time>2016-11-08T11:13:46.364Z</time>
      </trkpt>
      <trkpt lat="48.77366" lon="2.26051">
        <ele>146.441</ele>
        <time>2016-11-08T11:13:54.385Z</time>
      </trkpt>
      <trkpt lat="48.77372" lon="2.26062">
        <ele>148.172</ele>
        <time>2016-11-08T11:14:03.617Z</time>
      </trkpt>
      <trkpt lat="48.7737" lon="2.26077">
        <ele>149.641</ele>
        <time>2016-11-08T11:14:14.649Z</time>
      </trkpt>
      <trkpt lat="48.77367" lon="2.26091">
        <ele>150.765</ele>
        <time>2016-11-08T11:14:23.314Z</time>
      </trkpt>
      <trkpt lat="48.77361" lon="2.26102">
        <ele>151.589</ele>
        <time>2016-11-08T11:14:30.740Z</time>
      </trkpt>
      <trkpt lat="48.77363" lon="2.26117">
        <ele>152.114</ele>
        <time>2016-11-08T11:14:39.080Z</time>
      </trkpt>
      <trkpt lat="48.77369" lon="2.26128">
        <ele>152.35</ele>
        <time>2016-11-08T11:14:48.069Z</time>
      </trkpt>
      <trkpt lat="48.77373" lon="2.26141">
        <ele>152.139</ele>
        <time>2016-11-08T11:14:56.890Z</time>
      </trkpt>
      <trkpt lat="48.77375" lon="2.26154">
        <ele>151.273</ele>
        <time>2016-11-08T11:15:05.193Z</time>
      </trkpt>
      <trkpt lat="48.7737" lon="2.26167">
        <ele>149.95</ele>
        <time>2016-11-08T11:15:13.316Z</time>
      </trkpt>
      <trkpt lat="48.77364" lon="2.26178">
        <ele>148.607</ele>
        <time>2016-11-08T11:15:21.443Z</time>
      </trkpt>
      <trkpt lat="48.77355" lon="2.26186">
        <ele>147.446</ele>
        <time>2016-11-08T11:15:28.308Z</time>
      </trkpt>
      <trkpt lat="48.77346" lon="2.26192">
        <ele>146.394</ele>
        <time>2016-11-08T11:15:35.083Z</time>
      </trkpt>
      <trkpt lat="48.77337" lon="2.26196">
        <ele>145.41</ele>
        <time>2016-11-08T11:15:41.249Z</time>
      </trkpt>
      <trkpt lat="48.77329" lon="2.26201">
        <ele>144.664</ele>
        <time>2016-11-08T11:15:47.676Z</time>
      </trkpt>
      <trkpt lat="48.77321" lon="2.26207">
        <ele>144.131</ele>
        <time>2016-11-08T11:15:54.791Z</time>
      </trkpt>
      <trkpt lat="48.77317" lon="2.2622">
        <ele>143.535</ele>
        <time>2016-11-08T11:16:02.703Z</time>
      </trkpt>
      <trkpt lat="48.77319" lon="2.26233">
        <ele>142.745</ele>
        <time>2016-11-08T11:16:11.127Z</time>
      </trkpt>
      <trkpt lat="48.77321" lon="2.26246">
        <ele>141.741</ele>
        <time>2016-11-08T11:16:19.089Z</time>
      </trkpt>
      <trkpt lat="48.77319" lon="2.2626">
        <ele>140.479</ele>
        <time>2016-11-08T11:16:28.008Z</time>
      </trkpt>
      <trkpt lat="48.77317" lon="2.26274">
        <ele>139.006</ele>
        <time>2016-11-08T11:16:37.394Z</time>
      </trkpt>
      <trkpt lat="48.77318" lon="2.26289">
        <ele>137.492</ele>
        <time>2016-11-08T11:16:45.341Z</time>
      </trkpt>
      <trkpt lat="48.77324" lon="2.26302">
        <ele>136.11</ele>
        <time>2016-11-08T11:16:53.394Z</time>
      </trkpt>
      <trkpt lat="48.77332" lon="2.26308">
        <ele>135.079</ele>
        <time>2016-11-08T11:17:00.231Z</time>
      </trkpt>
      <trkpt lat="48.77335" lon="2.26322">
        <ele>134.691</ele>
        <time>2016-11-08T11:17:07.006Z</time>
      </trkpt>
      <trkpt lat="48.77344" lon="2.26326">
        <ele>134.932</ele>
        <time>2016-11-08T11:17:14.265Z</time>
      </trkpt>
      <trkpt lat="48.7735" lon="2.26337">
        <ele>135.378</ele>
        <time>2016-11-08T11:17:21.735Z</time>
      </trkpt>
      <trkpt lat="48.77358" lon="2.26344">
        <ele>135.805</ele>
        <time>2016-11-08T11:17:29.829Z</time>
      </trkpt>
      <trkpt lat="48.77364" lon="2.26355">
        <ele>136.259</ele>
        <time>2016-11-08T11:17:38.314Z</time>
      </trkpt>
      <trkpt lat="48.77372" lon="2.26363">
        <ele>136.644</ele>
        <time>2016-11-08T11:17:46.653Z</time>
      </trkpt>
      <trkpt lat="48.77381" lon="2.26365">
        <ele>137.012</ele>
        <time>2016-11-08T11:17:55.743Z</time>
      </trkpt>
      <trkpt lat="48.77389" lon="2.26371">
        <ele>137.516</ele>
        <time>2016-11-08T11:18:06.393Z</time>
      </trkpt>
      <trkpt lat="48.77399" lon="2.26374">
        <ele>138.179</ele>
        <time>2016-11-08T11:18:18.328Z</time>
      </trkpt>
      <trkpt lat="48.77407" lon="2.2637">
        <ele>139.016</ele>
        <time>2016-11-08T11:18:28.033Z</time>
      </trkpt>
      <trkpt lat="48.77417" lon="2.26367">
        <ele>139.931</ele>
        <time>2016-11-08T11:18:35.098Z</time>
      </trkpt>
      <trkpt lat="48.77426" lon="2.26368">
        <ele>140.656</ele>
        <time>2016-11-08T11:18:40.999Z</time>
      </trkpt>
      <trkpt lat="48.77426" lon="2.26368">
        <ele>141.037</ele>
        <time>2016-11-08T11:18:45.999Z</time>
      </trkpt>
      <trkpt lat="48.77426" lon="2.26368">
        <ele>141.095</ele>
        <time>2016-11-08T11:18:46.099Z</time>
      </trkpt>
      <trkpt lat="48.77434" lon="2.26379">
        <ele>140.906</ele>
        <time>2016-11-08T11:19:03.443Z</time>
      </trkpt>
      <trkpt lat="48.77443" lon="2.26385">
        <ele>140.939</ele>
        <time>2016-11-08T11:19:11.031Z</time>
      </trkpt>
      <trkpt lat="48.77451" lon="2.26392">
        <ele>141.133</ele>
        <time>2016-11-08T11:19:17.734Z</time>
      </trkpt>
      <trkpt lat="48.77454" lon="2.26405">
        <ele>141.319</ele>
        <time>2016-11-08T11:19:24.806Z</time>
      </trkpt>
      <trkpt lat="48.77462" lon="2.26414">
        <ele>141.278</ele>
        <time>2016-11-08T11:19:32.789Z</time>
      </trkpt>
      <trkpt lat="48.77465" lon="2.26428">
        <ele>140.864</ele>
        <time>2016-11-08T11:19:41.101Z</time>
      </trkpt>
      <trkpt lat="48.77466" lon="2.26442">
        <ele>140.074</ele>
        <time>2016-11-08T11:19:49.030Z</time>
      </trkpt>
      <trkpt lat="48.77465" lon="2.26456">
        <ele>139.15</ele>
        <time>2016-11-08T11:19:56.190Z</time>
      </trkpt>
      <trkpt lat="48.77463" lon="2.26471">
        <ele>138.332</ele>
        <time>2016-11-08T11:20:03.455Z</time>
      </trkpt>
      <trkpt lat="48.77462" lon="2.26485">
        <ele>137.522</ele>
        <time>2016-11-08T11:20:09.367Z</time>
      </trkpt>
      <trkpt lat="48.77459" lon="2.26499">
        <ele>136.564</ele>
        <time>2016-11-08T11:20:16.196Z</time>
      </trkpt>
      <trkpt lat="48.77462" lon="2.26512">
        <ele>135.588</ele>
        <time>2016-11-08T11:20:23.931Z</time>
      </trkpt>
      <trkpt lat="48.77465" lon="2.26525">
        <ele>134.767</ele>
        <time>2016-11-08T11:20:32.156Z</time>
      </trkpt>
      <trkpt lat="48.7747" lon="2.26537">
        <ele>134.04</ele>
        <time>2016-11-08T11:20:39.871Z</time>
      </trkpt>
      <trkpt lat="48.77465" lon="2.2655">
        <ele>133.349</ele>
        <time>2016-11-08T11:20:46.838Z</time>
      </trkpt>
      <trkpt lat="48.77458" lon="2.26561">
        <ele>132.767</ele>
        <time>2016-11-08T11:20:52.808Z</time>
      </trkpt>
      <trkpt lat="48.7745" lon="2.2657">
        <ele>132.306</ele>
        <time>2016-11-08T11:20:58.757Z</time>
      </trkpt>
      <trkpt lat="48.77443" lon="2.26579">
        <ele>131.872</ele>
        <time>2016-11-08T11:21:04.668Z</time>
      </trkpt>
      <trkpt lat="48.77435" lon="2.26587">
        <ele>131.364</ele>
        <time>2016-11-08T11:21:12.110Z</time>
      </trkpt>
      <trkpt lat="48.77427" lon="2.26594">
        <ele>130.74</ele>
        <time>2016-11-08T11:21:21.351Z</time>
      </trkpt>
      <trkpt lat="48.7742" lon="2.26606">
        <ele>130.024</ele>
        <time>2016-11-08T11:21:32.025Z</time>
      </trkpt>
      <trkpt lat="48.77414" lon="2.26617">
        <ele>129.136</ele>
        <time>2016-11-08T11:21:39.560Z</time>
      </trkpt>
      <trkpt lat="48.77408" lon="2.26628">
        <ele>128.04</ele>
        <time>2016-11-08T11:21:46.799Z</time>
      </trkpt>
      <trkpt lat="48.77401" lon="2.26638">
        <ele>126.933</ele>
        <time>2016-11-08T11:21:54.284Z</time>
      </trkpt>
      <trkpt lat="48.77394" lon="2.26649">
        <ele>125.975</ele>
        <time>2016-11-08T11:22:02.568Z</time>
      </trkpt>
      <trkpt lat="48.77387" lon="2.2666">
        <ele>125.131</ele>
        <time>2016-11-08T11:22:10.838Z</time>
      </trkpt>
      <trkpt lat="48.77384" lon="2.26674">
        <ele>124.359</ele>
        <time>2016-11-08T11:22:21.668Z</time>
      </trkpt>
      <trkpt lat="48.77377" lon="2.26685">
        <ele>123.578</ele>
        <time>2016-11-08T11:22:32.051Z</time>
      </trkpt>
      <trkpt lat="48.77374" lon="2.26699">
        <ele>122.709</ele>
        <time>2016-11-08T11:22:41.584Z</time>
      </trkpt>
      <trkpt lat="48.7737" lon="2.26712">
        <ele>121.741</ele>
        <time>2016-11-08T11:22:50.538Z</time>
      </trkpt>
      <trkpt lat="48.77365" lon="2.26725">
        <ele>120.753</ele>
        <time>2016-11-08T11:22:58.808Z</time>
      </trkpt>
      <trkpt lat="48.77359" lon="2.26736">
        <ele>119.83</ele>
        <time>2016-11-08T11:23:05.764Z</time>
      </trkpt>
      <trkpt lat="48.77352" lon="2.26745">
        <ele>118.929</ele>
        <time>2016-11-08T11:23:12.373Z</time>
      </trkpt>
      <trkpt lat="48.77345" lon="2.26755">
        <ele>118.005</ele>
        <time>2016-11-08T11:23:18.999Z</time>
      </trkpt>
      <trkpt lat="48.77345" lon="2.26755">
        <ele>117.271</ele>
        <time>2016-11-08T11:23:21.999Z</time>
      </trkpt>
      <trkpt lat="48.77345" lon="2.26755">
        <ele>116.934</ele>
        <time>2016-11-08T11:24:07.123Z</time>
      </trkpt>
      <trkpt lat="48.77348" lon="2.26774">
        <ele>117.036</ele>
        <time>2016-11-08T11:24:26.339Z</time>
      </trkpt>
      <trkpt lat="48.77356" lon="2.26784">
        <ele>117.052</ele>
        <time>2016-11-08T11:24:35.386Z</time>
      </trkpt>
      <trkpt lat="48.77365" lon="2.26791">
        <ele>116.891</ele>
        <time>2016-11-08T11:24:42.201Z</time>
      </trkpt>
      <trkpt lat="48.77373" lon="2.26796">
        <ele>116.679</ele>
        <time>2016-11-08T11:24:48.441Z</time>
      </trkpt>
      <trkpt lat="48.77381" lon="2.26804">
        <ele>116.56</ele>
        <time>2016-11-08T11:24:55.148Z</time>
      </trkpt>
      <trkpt lat="48.7739" lon="2.26808">
        <ele>116.518</ele>
        <time>2016-11-08T11:25:01.996Z</time>
      </trkpt>
      <trkpt lat="48.77397" lon="2.26818">
        <ele>116.43</ele>
        <time>2016-11-08T11:25:09.304Z</time>
      </trkpt>
      <trkpt lat="48.77402" lon="2.26831">
        <ele>116.144</ele>
        <time>2016-11-08T11:25:17.226Z</time>
      </trkpt>
      <trkpt lat="48.77409" lon="2.26841">
        <ele>115.507</ele>
        <time>2016-11-08T11:25:25.000Z</time>
      </trkpt>
      <trkpt lat="48.77409" lon="2.26841">
        <ele>114.642</ele>
        <time>2016-11-08T11:25:34.000Z</time>
      </trkpt>
      <trkpt lat="48.77409" lon="2.26841">
        <ele>114.064</ele>
        <time>2016-11-08T11:26:27.541Z</time>
      </trkpt>
      <trkpt lat="48.77408" lon="2.26867">
        <ele>114.045</ele>
        <time>2016-11-08T11:26:48.000Z</time>
      </trkpt>
      <trkpt lat="48.77408" lon="2.26867">
        <ele>114.206</ele>
        <time>2016-11-08T11:26:52.000Z</time>
      </trkpt>
      <trkpt lat="48.77408" lon="2.26867">
        <ele>114.178</ele>
        <time>2016-11-08T11:26:52.100Z</time>
      </trkpt>
      <trkpt lat="48.77408" lon="2.26867">
        <ele>114.006</ele>
        <time>2016-11-08T11:27:08.000Z</time>
      </trkpt>
      <trkpt lat="48.77408" lon="2.26867">
        <ele>114.008</ele>
        <time>2016-11-08T11:27:08.100Z</time>
      </trkpt>
      <trkpt lat="48.774" lon="2.2686">
        <ele>113.977</ele>
        <time>2016-11-08T11:29:42.000Z</time>
      </trkpt>
      <trkpt lat="48.774" lon="2.2686">
        <ele>113.916</ele>
        <time>2016-11-08T11:29:49.000Z</time>
      </trkpt>
      <trkpt lat="48.774" lon="2.2686">
        <ele>113.857</ele>
        <time>2016-11-08T12:05:21.762Z</time>
      </trkpt>
      <trkpt lat="48.77407" lon="2.2687">
        <ele>113.783</ele>
        <time>2016-11-08T12:05:54.506Z</time>
      </trkpt>
      <trkpt lat="48.7741" lon="2.26885">
        <ele>112.974</ele>
        <time>2016-11-08T12:06:04.489Z</time>
      </trkpt>
      <trkpt lat="48.77412" lon="2.26899">
        <ele>110.778</ele>
        <time>2016-11-08T12:06:11.256Z</time>
      </trkpt>
      <trkpt lat="48.77419" lon="2.2691">
        <ele>108.316</ele>
        <time>2016-11-08T12:06:18.888Z</time>
      </trkpt>
      <trkpt lat="48.77424" lon="2.26921">
        <ele>106.866</ele>
        <time>2016-11-08T12:06:27.000Z</time>
      </trkpt>
      <trkpt lat="48.77424" lon="2.26921">
        <ele>106.358</ele>
        <time>2016-11-08T12:06:32.000Z</time>
      </trkpt>
      <trkpt lat="48.77424" lon="2.26921">
        <ele>106.296</ele>
        <time>2016-11-08T12:06:32.100Z</time>
      </trkpt>
      <trkpt lat="48.7743" lon="2.26932">
        <ele>106.298</ele>
        <time>2016-11-08T12:06:43.845Z</time>
      </trkpt>
      <trkpt lat="48.77434" lon="2.26945">
        <ele>106.163</ele>
        <time>2016-11-08T12:06:51.195Z</time>
      </trkpt>
      <trkpt lat="48.77441" lon="2.26953">
        <ele>105.812</ele>
        <time>2016-11-08T12:06:58.000Z</time>
      </trkpt>
      <trkpt lat="48.77441" lon="2.26953">
        <ele>105.373</ele>
        <time>2016-11-08T12:07:03.000Z</time>
      </trkpt>
      <trkpt lat="48.77441" lon="2.26953">
        <ele>105.11</ele>
        <time>2016-11-08T12:07:07.606Z</time>
      </trkpt>
      <trkpt lat="48.77436" lon="2.26964">
        <ele>105.085</ele>
        <time>2016-11-08T12:07:18.573Z</time>
      </trkpt>
      <trkpt lat="48.77428" lon="2.26972">
        <ele>105.154</ele>
        <time>2016-11-08T12:07:26.401Z</time>
      </trkpt>
      <trkpt lat="48.7742" lon="2.26981">
        <ele>105.046</ele>
        <time>2016-11-08T12:07:34.513Z</time>
      </trkpt>
      <trkpt lat="48.77411" lon="2.26988">
        <ele>104.637</ele>
        <time>2016-11-08T12:07:42.134Z</time>
      </trkpt>
      <trkpt lat="48.77402" lon="2.26993">
        <ele>104.097</ele>
        <time>2016-11-08T12:07:49.913Z</time>
      </trkpt>
      <trkpt lat="48.77393" lon="2.26999">
        <ele>103.601</ele>
        <time>2016-11-08T12:07:57.991Z</time>
      </trkpt>
      <trkpt lat="48.77386" lon="2.27011">
        <ele>103.154</ele>
        <time>2016-11-08T12:08:07.000Z</time>
      </trkpt>
      <trkpt lat="48.77386" lon="2.27011">
        <ele>102.792</ele>
        <time>2016-11-08T12:08:13.000Z</time>
      </trkpt>
      <trkpt lat="48.77386" lon="2.27011">
        <ele>102.596</ele>
        <time>2016-11-08T12:08:34.667Z</time>
      </trkpt>
      <trkpt lat="48.77397" lon="2.27031">
        <ele>102.571</ele>
        <time>2016-11-08T12:08:55.000Z</time>
      </trkpt>
      <trkpt lat="48.77397" lon="2.27031">
        <ele>102.588</ele>
        <time>2016-11-08T12:09:02.000Z</time>
      </trkpt>
      <trkpt lat="48.77397" lon="2.27031">
        <ele>102.552</ele>
        <time>2016-11-08T12:09:15.255Z</time>
      </trkpt>
      <trkpt lat="48.77412" lon="2.2703">
        <ele>102.489</ele>
        <time>2016-11-08T12:09:38.149Z</time>
      </trkpt>
      <trkpt lat="48.77421" lon="2.27026">
        <ele>102.454</ele>
        <time>2016-11-08T12:09:50.539Z</time>
      </trkpt>
      <trkpt lat="48.7743" lon="2.2703">
        <ele>102.477</ele>
        <time>2016-11-08T12:10:02.715Z</time>
      </trkpt>
      <trkpt lat="48.77438" lon="2.27038">
        <ele>102.625</ele>
        <time>2016-11-08T12:10:15.083Z</time>
      </trkpt>
      <trkpt lat="48.77447" lon="2.2704">
        <ele>102.95</ele>
        <time>2016-11-08T12:10:26.083Z</time>
      </trkpt>
      <trkpt lat="48.77451" lon="2.27027">
        <ele>103.349</ele>
        <time>2016-11-08T12:10:38.056Z</time>
      </trkpt>
      <trkpt lat="48.77456" lon="2.27015">
        <ele>103.675</ele>
        <time>2016-11-08T12:10:54.781Z</time>
      </trkpt>
      <trkpt lat="48.7745" lon="2.27003">
        <ele>103.931</ele>
        <time>2016-11-08T12:11:18.419Z</time>
      </trkpt>
      <trkpt lat="48.77442" lon="2.26995">
        <ele>104.154</ele>
        <time>2016-11-08T12:11:36.446Z</time>
      </trkpt>
      <trkpt lat="48.77451" lon="2.26989">
        <ele>104.304</ele>
        <time>2016-11-08T12:11:52.847Z</time>
      </trkpt>
      <trkpt lat="48.77459" lon="2.26996">
        <ele>104.365</ele>
        <time>2016-11-08T12:12:13.108Z</time>
      </trkpt>
      <trkpt lat="48.77467" lon="2.26989">
        <ele>104.348</ele>
        <time>2016-11-08T12:12:33.198Z</time>
      </trkpt>
      <trkpt lat="48.77475" lon="2.26996">
        <ele>104.334</ele>
        <time>2016-11-08T12:12:58.825Z</time>
      </trkpt>
      <trkpt lat="48.77479" lon="2.27009">
        <ele>104.536</ele>
        <time>2016-11-08T12:13:26.411Z</time>
      </trkpt>
      <trkpt lat="48.77474" lon="2.27021">
        <ele>105.103</ele>
        <time>2016-11-08T12:13:47.176Z</time>
      </trkpt>
      <trkpt lat="48.7747" lon="2.27033">
        <ele>105.841</ele>
        <time>2016-11-08T12:14:02.325Z</time>
      </trkpt>
      <trkpt lat="48.77463" lon="2.27043">
        <ele>106.383</ele>
        <time>2016-11-08T12:14:14.000Z</time>
      </trkpt>
      <trkpt lat="48.77463" lon="2.27043">
        <ele>106.595</ele>
        <time>2016-11-08T12:14:28.000Z</time>
      </trkpt>
      <trkpt lat="48.77463" lon="2.27043">
        <ele>106.598</ele>
        <time>2016-11-08T12:14:28.100Z</time>
      </trkpt>
      <trkpt lat="48.77454" lon="2.27055">
        <ele>106.505</ele>
        <time>2016-11-08T12:14:39.994Z</time>
      </trkpt>
      <trkpt lat="48.77444" lon="2.27053">
        <ele>106.308</ele>
        <time>2016-11-08T12:14:46.955Z</time>
      </trkpt>
      <trkpt lat="48.7744" lon="2.27067">
        <ele>105.926</ele>
        <time>2016-11-08T12:14:54.000Z</time>
      </trkpt>
      <trkpt lat="48.7744" lon="2.27067">
        <ele>105.433</ele>
        <time>2016-11-08T12:14:58.000Z</time>
      </trkpt>
      <trkpt lat="48.7744" lon="2.27067">
        <ele>105.11</ele>
        <time>2016-11-08T12:14:58.100Z</time>
      </trkpt>
      <trkpt lat="48.77431" lon="2.27094">
        <ele>105.085</ele>
        <time>2016-11-08T12:15:26.874Z</time>
      </trkpt>
      <trkpt lat="48.77436" lon="2.27106">
        <ele>105.192</ele>
        <time>2016-11-08T12:15:34.000Z</time>
      </trkpt>
      <trkpt lat="48.77436" lon="2.27106">
        <ele>105.247</ele>
        <time>2016-11-08T12:15:48.000Z</time>
      </trkpt>
      <trkpt lat="48.77436" lon="2.27106">
        <ele>105.216</ele>
        <time>2016-11-08T12:15:56.612Z</time>
      </trkpt>
      <trkpt lat="48.77432" lon="2.2709">
        <ele>105.151</ele>
        <time>2016-11-08T12:16:10.000Z</time>
      </trkpt>
      <trkpt lat="48.77432" lon="2.2709">
        <ele>105.091</ele>
        <time>2016-11-08T12:16:13.000Z</time>
      </trkpt>
      <trkpt lat="48.77432" lon="2.2709">
        <ele>105.045</ele>
        <time>2016-11-08T12:16:13.100Z</time>
      </trkpt>
      <trkpt lat="48.77415" lon="2.2707">
        <ele>105.011</ele>
        <time>2016-11-08T12:17:28.000Z</time>
      </trkpt>
      <trkpt lat="48.77415" lon="2.2707">
        <ele>104.974</ele>
        <time>2016-11-08T12:17:38.000Z</time>
      </trkpt>
      <trkpt lat="48.77415" lon="2.2707">
        <ele>104.925</ele>
        <time>2016-11-08T12:17:51.396Z</time>
      </trkpt>
      <trkpt lat="48.774" lon="2.27066">
        <ele>104.878</ele>
        <time>2016-11-08T12:18:21.946Z</time>
      </trkpt>
      <trkpt lat="48.77391" lon="2.27062">
        <ele>104.607</ele>
        <time>2016-11-08T12:18:36.000Z</time>
      </trkpt>
      <trkpt lat="48.77391" lon="2.27062">
        <ele>103.964</ele>
        <time>2016-11-08T12:18:40.000Z</time>
      </trkpt>
      <trkpt lat="48.77391" lon="2.27062">
        <ele>103.419</ele>
        <time>2016-11-08T12:18:43.808Z</time>
      </trkpt>
      <trkpt lat="48.77382" lon="2.27062">
        <ele>103.621</ele>
        <time>2016-11-08T12:18:53.000Z</time>
      </trkpt>
      <trkpt lat="48.77382" lon="2.27062">
        <ele>103.76</ele>
        <time>2016-11-08T12:18:56.000Z</time>
      </trkpt>
      <trkpt lat="48.77382" lon="2.27062">
        <ele>103.709</ele>
        <time>2016-11-08T12:18:59.130Z</time>
      </trkpt>
      <trkpt lat="48.77376" lon="2.27052">
        <ele>103.584</ele>
        <time>2016-11-08T12:19:15.138Z</time>
      </trkpt>
      <trkpt lat="48.77373" lon="2.27039">
        <ele>103.18</ele>
        <time>2016-11-08T12:19:26.187Z</time>
      </trkpt>
      <trkpt lat="48.77373" lon="2.27024">
        <ele>102.305</ele>
        <time>2016-11-08T12:19:37.762Z</time>
      </trkpt>
      <trkpt lat="48.77382" lon="2.27019">
        <ele>101.427</ele>
        <time>2016-11-08T12:19:48.000Z</time>
      </trkpt>
      <trkpt lat="48.77382" lon="2.27019">
        <ele>101.037</ele>
        <time>2016-11-08T12:20:02.000Z</time>
      </trkpt>
      <trkpt lat="48.77382" lon="2.27019">
        <ele>101.045</ele>
        <time>2016-11-08T12:21:33.000Z</time>
      </trkpt>
      <trkpt lat="48.77382" lon="2.27019">
        <ele>101.135</ele>
        <time>2016-11-08T12:22:21.103Z</time>
      </trkpt>
      <trkpt lat="48.77389" lon="2.26999">
        <ele>101.104</ele>
        <time>2016-11-08T12:22:44.083Z</time>
      </trkpt>
      <trkpt lat="48.77388" lon="2.26985">
        <ele>101.073</ele>
        <time>2016-11-08T12:22:51.989Z</time>
      </trkpt>
      <trkpt lat="48.7738" lon="2.26976">
        <ele>101.237</ele>
        <time>2016-11-08T12:22:59.190Z</time>
      </trkpt>
      <trkpt lat="48.77373" lon="2.26965">
        <ele>101.59</ele>
        <time>2016-11-08T12:23:07.152Z</time>
      </trkpt>
      <trkpt lat="48.77366" lon="2.26957">
        <ele>101.972</ele>
        <time>2016-11-08T12:23:15.527Z</time>
      </trkpt>
      <trkpt lat="48.77358" lon="2.26949">
        <ele>102.233</ele>
        <time>2016-11-08T12:23:25.743Z</time>
      </trkpt>
      <trkpt lat="48.77353" lon="2.26937">
        <ele>102.375</ele>
        <time>2016-11-08T12:23:35.914Z</time>
      </trkpt>
      <trkpt lat="48.77359" lon="2.26925">
        <ele>102.636</ele>
        <time>2016-11-08T12:23:45.447Z</time>
      </trkpt>
      <trkpt lat="48.77366" lon="2.26915">
        <ele>103.303</ele>
        <time>2016-11-08T12:23:53.735Z</time>
      </trkpt>
      <trkpt lat="48.77371" lon="2.26904">
        <ele>104.371</ele>
        <time>2016-11-08T12:24:01.583Z</time>
      </trkpt>
      <trkpt lat="48.77376" lon="2.26892">
        <ele>105.494</ele>
        <time>2016-11-08T12:24:10.120Z</time>
      </trkpt>
      <trkpt lat="48.7738" lon="2.26879">
        <ele>106.348</ele>
        <time>2016-11-08T12:24:19.515Z</time>
      </trkpt>
      <trkpt lat="48.77382" lon="2.26865">
        <ele>107.027</ele>
        <time>2016-11-08T12:24:28.496Z</time>
      </trkpt>
      <trkpt lat="48.77385" lon="2.26851">
        <ele>107.777</ele>
        <time>2016-11-08T12:24:36.539Z</time>
      </trkpt>
      <trkpt lat="48.77385" lon="2.26837">
        <ele>108.579</ele>
        <time>2016-11-08T12:24:44.940Z</time>
      </trkpt>
      <trkpt lat="48.77383" lon="2.26823">
        <ele>109.44</ele>
        <time>2016-11-08T12:24:53.980Z</time>
      </trkpt>
      <trkpt lat="48.77383" lon="2.26808">
        <ele>110.483</ele>
        <time>2016-11-08T12:25:02.322Z</time>
      </trkpt>
      <trkpt lat="48.77375" lon="2.268">
        <ele>111.588</ele>
        <time>2016-11-08T12:25:10.352Z</time>
      </trkpt>
      <trkpt lat="48.77367" lon="2.26792">
        <ele>112.49</ele>
        <time>2016-11-08T12:25:18.926Z</time>
      </trkpt>
      <trkpt lat="48.7736" lon="2.26784">
        <ele>113.079</ele>
        <time>2016-11-08T12:25:27.453Z</time>
      </trkpt>
      <trkpt lat="48.77353" lon="2.26774">
        <ele>113.454</ele>
        <time>2016-11-08T12:25:36.424Z</time>
      </trkpt>
      <trkpt lat="48.77344" lon="2.2677">
        <ele>113.723</ele>
        <time>2016-11-08T12:25:44.351Z</time>
      </trkpt>
      <trkpt lat="48.7734" lon="2.26756">
        <ele>113.879</ele>
        <time>2016-11-08T12:25:53.095Z</time>
      </trkpt>
      <trkpt lat="48.77332" lon="2.26751">
        <ele>113.87</ele>
        <time>2016-11-08T12:26:02.787Z</time>
      </trkpt>
      <trkpt lat="48.77329" lon="2.26763">
        <ele>113.707</ele>
        <time>2016-11-08T12:26:14.000Z</time>
      </trkpt>
      <trkpt lat="48.77329" lon="2.26763">
        <ele>113.525</ele>
        <time>2016-11-08T12:26:14.000Z</time>
      </trkpt>
      <trkpt lat="48.77329" lon="2.26763">
        <ele>113.429</ele>
        <time>2016-11-08T12:26:35.214Z</time>
      </trkpt>
      <trkpt lat="48.77321" lon="2.26771">
        <ele>113.385</ele>
        <time>2016-11-08T12:27:09.000Z</time>
      </trkpt>
      <trkpt lat="48.77321" lon="2.26771">
        <ele>113.367</ele>
        <time>2016-11-08T12:27:19.000Z</time>
      </trkpt>
      <trkpt lat="48.77321" lon="2.26771">
        <ele>113.319</ele>
        <time>2016-11-08T12:33:28.891Z</time>
      </trkpt>
      <trkpt lat="48.773" lon="2.26794">
        <ele>113.264</ele>
        <time>2016-11-08T12:35:32.000Z</time>
      </trkpt>
      <trkpt lat="48.773" lon="2.26794">
        <ele>113.22</ele>
        <time>2016-11-08T12:35:40.000Z</time>
      </trkpt>
      <trkpt lat="48.773" lon="2.26794">
        <ele>113.169</ele>
        <time>2016-11-08T12:37:14.656Z</time>
      </trkpt>
      <trkpt lat="48.77294" lon="2.26816">
        <ele>113.118</ele>
        <time>2016-11-08T12:37:36.811Z</time>
      </trkpt>
      <trkpt lat="48.77301" lon="2.26828">
        <ele>112.551</ele>
        <time>2016-11-08T12:37:46.000Z</time>
      </trkpt>
      <trkpt lat="48.77301" lon="2.26828">
        <ele>111.143</ele>
        <time>2016-11-08T12:37:51.000Z</time>
      </trkpt>
      <trkpt lat="48.77301" lon="2.26828">
        <ele>109.959</ele>
        <time>2016-11-08T12:39:59.355Z</time>
      </trkpt>
      <trkpt lat="48.77315" lon="2.26849">
        <ele>109.934</ele>
        <time>2016-11-08T12:41:15.000Z</time>
      </trkpt>
      <trkpt lat="48.77315" lon="2.26849">
        <ele>110.336</ele>
        <time>2016-11-08T12:41:18.000Z</time>
      </trkpt>
      <trkpt lat="48.77315" lon="2.26849">
        <ele>110.336</ele>
        <time>2016-11-08T12:41:18.100Z</time>
      </trkpt>
      <trkpt lat="48.77315" lon="2.26849">
        <ele>110.043</ele>
        <time>2016-11-08T12:41:24.000Z</time>
      </trkpt>
      <trkpt lat="48.77315" lon="2.26849">
        <ele>110.081</ele>
        <time>2016-11-08T12:41:24.100Z</time>
      </trkpt>
      <trkpt lat="48.77323" lon="2.26859">
        <ele>109.988</ele>
        <time>2016-11-08T12:41:27.000Z</time>
      </trkpt>
      <trkpt lat="48.77323" lon="2.26859">
        <ele>109.842</ele>
        <time>2016-11-08T12:41:27.001Z</time>
      </trkpt>
      <trkpt lat="48.77323" lon="2.26859">
        <ele>109.592</ele>
        <time>2016-11-08T12:41:27.305Z</time>
      </trkpt>
      <trkpt lat="48.77336" lon="2.26878">
        <ele>109.359</ele>
        <time>2016-11-08T12:41:53.000Z</time>
      </trkpt>
      <trkpt lat="48.77336" lon="2.26878">
        <ele>109.247</ele>
        <time>2016-11-08T12:42:03.000Z</time>
      </trkpt>
      <trkpt lat="48.77336" lon="2.26878">
        <ele>109.2</ele>
        <time>2016-11-08T12:42:29.488Z</time>
      </trkpt>
      <trkpt lat="48.77338" lon="2.26899">
        <ele>109.16</ele>
        <time>2016-11-08T12:42:47.000Z</time>
      </trkpt>
      <trkpt lat="48.77338" lon="2.26899">
        <ele>109.116</ele>
        <time>2016-11-08T12:42:49.000Z</time>
      </trkpt>
      <trkpt lat="48.77338" lon="2.26899">
        <ele>109.066</ele>
        <time>2016-11-08T12:44:00.305Z</time>
      </trkpt>
      <trkpt lat="48.77319" lon="2.26894">
        <ele>109.017</ele>
        <time>2016-11-08T12:44:24.000Z</time>
      </trkpt>
      <trkpt lat="48.77319" lon="2.26894">
        <ele>108.976</ele>
        <time>2016-11-08T12:44:34.000Z</time>
      </trkpt>
      <trkpt lat="48.77319" lon="2.26894">
        <ele>108.927</ele>
        <time>2016-11-08T12:44:34.100Z</time>
      </trkpt>
      <trkpt lat="48.77302" lon="2.26873">
        <ele>108.878</ele>
        <time>2016-11-08T12:46:13.000Z</time>
      </trkpt>
      <trkpt lat="48.77302" lon="2.26873">
        <ele>108.836</ele>
        <time>2016-11-08T12:46:17.000Z</time>
      </trkpt>
      <trkpt lat="48.77302" lon="2.26873">
        <ele>108.787</ele>
        <time>2016-11-08T12:49:43.501Z</time>
      </trkpt>
      <trkpt lat="48.77295" lon="2.26854">
        <ele>108.738</ele>
        <time>2016-11-08T12:50:03.979Z</time>
      </trkpt>
      <trkpt lat="48.77286" lon="2.26856">
        <ele>108.499</ele>
        <time>2016-11-08T12:50:11.000Z</time>
      </trkpt>
      <trkpt lat="48.77286" lon="2.26856">
        <ele>107.944</ele>
        <time>2016-11-08T12:50:11.000Z</time>
      </trkpt>
      <trkpt lat="48.77286" lon="2.26856">
        <ele>107.471</ele>
        <time>2016-11-08T12:50:54.829Z</time>
      </trkpt>
      <trkpt lat="48.77286" lon="2.26878">
        <ele>107.435</ele>
        <time>2016-11-08T12:51:14.000Z</time>
      </trkpt>
      <trkpt lat="48.77286" lon="2.26878">
        <ele>107.559</ele>
        <time>2016-11-08T12:51:17.000Z</time>
      </trkpt>
      <trkpt lat="48.77286" lon="2.26878">
        <ele>107.533</ele>
        <time>2016-11-08T12:53:01.880Z</time>
      </trkpt>
      <trkpt lat="48.77298" lon="2.26903">
        <ele>107.407</ele>
        <time>2016-11-08T12:53:25.998Z</time>
      </trkpt>
      <trkpt lat="48.77298" lon="2.26903">
        <ele>107.316</ele>
        <time>2016-11-08T12:53:34.998Z</time>
      </trkpt>
      <trkpt lat="48.77298" lon="2.26903">
        <ele>107.264</ele>
        <time>2016-11-08T12:53:35.098Z</time>
      </trkpt>
      <trkpt lat="48.77311" lon="2.26924">
        <ele>107.224</ele>
        <time>2016-11-08T12:53:51.998Z</time>
      </trkpt>
      <trkpt lat="48.77311" lon="2.26924">
        <ele>107.183</ele>
        <time>2016-11-08T12:53:54.998Z</time>
      </trkpt>
      <trkpt lat="48.77311" lon="2.26924">
        <ele>107.135</ele>
        <time>2016-11-08T12:55:10.451Z</time>
      </trkpt>
      <trkpt lat="48.77316" lon="2.26937">
        <ele>107.087</ele>
        <time>2016-11-08T12:55:21.998Z</time>
      </trkpt>
      <trkpt lat="48.77316" lon="2.26937">
        <ele>107.045</ele>
        <time>2016-11-08T12:55:32.998Z</time>
      </trkpt>
      <trkpt lat="48.77316" lon="2.26937">
        <ele>106.998</ele>
        <time>2016-11-08T12:55:33.098Z</time>
      </trkpt>
      <trkpt lat="48.77316" lon="2.26972">
        <ele>106.949</ele>
        <time>2016-11-08T12:55:57.998Z</time>
      </trkpt>
      <trkpt lat="48.77316" lon="2.26972">
        <ele>106.908</ele>
        <time>2016-11-08T12:56:03.998Z</time>
      </trkpt>
      <trkpt lat="48.77316" lon="2.26972">
        <ele>106.86</ele>
        <time>2016-11-08T12:56:41.764Z</time>
      </trkpt>
      <trkpt lat="48.77322" lon="2.26987">
        <ele>106.812</ele>
        <time>2016-11-08T12:56:51.998Z</time>
      </trkpt>
      <trkpt lat="48.77322" lon="2.26987">
        <ele>106.771</ele>
        <time>2016-11-08T12:57:00.998Z</time>
      </trkpt>
      <trkpt lat="48.77322" lon="2.26987">
        <ele>106.723</ele>
        <time>2016-11-08T12:58:43.583Z</time>
      </trkpt>
      <trkpt lat="48.7732" lon="2.27024">
        <ele>106.675</ele>
        <time>2016-11-08T12:59:23.222Z</time>
      </trkpt>
      <trkpt lat="48.7732" lon="2.27038">
        <ele>105.5</ele>
        <time>2016-11-08T12:59:32.000Z</time>
      </trkpt>
      <trkpt lat="48.7732" lon="2.27038">
        <ele>102.504</ele>
        <time>2016-11-08T12:59:50.000Z</time>
      </trkpt>
      <trkpt lat="48.7732" lon="2.27038">
        <ele>99.997</ele>
        <time>2016-11-08T12:59:50.100Z</time>
      </trkpt>
      <trkpt lat="48.7732" lon="2.27038">
        <ele>101.272</ele>
        <time>2016-11-08T13:00:14.000Z</time>
      </trkpt>
      <trkpt lat="48.7732" lon="2.27038">
        <ele>102.058</ele>
        <time>2016-11-08T13:00:14.100Z</time>
      </trkpt>
      <trkpt lat="48.77316" lon="2.27055">
        <ele>101.511</ele>
        <time>2016-11-08T13:00:44.000Z</time>
      </trkpt>
      <trkpt lat="48.77316" lon="2.27055">
        <ele>101.19</ele>
        <time>2016-11-08T13:00:46.000Z</time>
      </trkpt>
      <trkpt lat="48.77316" lon="2.27055">
        <ele>101.069</ele>
        <time>2016-11-08T13:00:55.691Z</time>
      </trkpt>
      <trkpt lat="48.7731" lon="2.27071">
        <ele>101.048</ele>
        <time>2016-11-08T13:01:10.000Z</time>
      </trkpt>
      <trkpt lat="48.7731" lon="2.27071">
        <ele>101.036</ele>
        <time>2016-11-08T13:01:16.000Z</time>
      </trkpt>
      <trkpt lat="48.7731" lon="2.27071">
        <ele>100.995</ele>
        <time>2016-11-08T13:01:16.100Z</time>
      </trkpt>
      <trkpt lat="48.77299" lon="2.271">
        <ele>100.945</ele>
        <time>2016-11-08T13:02:13.000Z</time>
      </trkpt>
      <trkpt lat="48.77299" lon="2.271">
        <ele>100.905</ele>
        <time>2016-11-08T13:02:17.000Z</time>
      </trkpt>
      <trkpt lat="48.77299" lon="2.271">
        <ele>100.86</ele>
        <time>2016-11-08T13:03:00.489Z</time>
      </trkpt>
      <trkpt lat="48.77288" lon="2.27122">
        <ele>100.815</ele>
        <time>2016-11-08T13:03:39.739Z</time>
      </trkpt>
      <trkpt lat="48.7729" lon="2.27136">
        <ele>100.159</ele>
        <time>2016-11-08T13:03:48.000Z</time>
      </trkpt>
      <trkpt lat="48.7729" lon="2.27136">
        <ele>98.514</ele>
        <time>2016-11-08T13:04:02.000Z</time>
      </trkpt>
      <trkpt lat="48.7729" lon="2.27136">
        <ele>97.133</ele>
        <time>2016-11-08T13:04:02.100Z</time>
      </trkpt>
      <trkpt lat="48.77283" lon="2.27153">
        <ele>97.116</ele>
        <time>2016-11-08T13:04:20.907Z</time>
      </trkpt>
      <trkpt lat="48.77276" lon="2.27162">
        <ele>97.398</ele>
        <time>2016-11-08T13:04:30.196Z</time>
      </trkpt>
      <trkpt lat="48.77277" lon="2.27177">
        <ele>96.876</ele>
        <time>2016-11-08T13:04:38.216Z</time>
      </trkpt>
      <trkpt lat="48.77281" lon="2.2719">
        <ele>95.987</ele>
        <time>2016-11-08T13:04:45.000Z</time>
      </trkpt>
      <trkpt lat="48.77281" lon="2.2719">
        <ele>95.453</ele>
        <time>2016-11-08T13:04:54.000Z</time>
      </trkpt>
      <trkpt lat="48.77281" lon="2.2719">
        <ele>95.296</ele>
        <time>2016-11-08T13:06:16.460Z</time>
      </trkpt>
      <trkpt lat="48.77261" lon="2.27205">
        <ele>95.302</ele>
        <time>2016-11-08T13:06:42.000Z</time>
      </trkpt>
      <trkpt lat="48.77261" lon="2.27205">
        <ele>95.305</ele>
        <time>2016-11-08T13:06:44.000Z</time>
      </trkpt>
      <trkpt lat="48.77261" lon="2.27205">
        <ele>95.266</ele>
        <time>2016-11-08T13:06:44.100Z</time>
      </trkpt>
      <trkpt lat="48.77242" lon="2.27185">
        <ele>95.216</ele>
        <time>2016-11-08T13:10:31.000Z</time>
      </trkpt>
      <trkpt lat="48.77242" lon="2.27185">
        <ele>95.177</ele>
        <time>2016-11-08T13:10:35.000Z</time>
      </trkpt>
      <trkpt lat="48.77242" lon="2.27185">
        <ele>95.135</ele>
        <time>2016-11-08T13:10:35.094Z</time>
      </trkpt>
      <trkpt lat="48.77233" lon="2.27173">
        <ele>95.092</ele>
        <time>2016-11-08T13:10:52.110Z</time>
      </trkpt>
      <trkpt lat="48.77235" lon="2.2716">
        <ele>95.067</ele>
        <time>2016-11-08T13:11:00.000Z</time>
      </trkpt>
      <trkpt lat="48.77235" lon="2.2716">
        <ele>95.047</ele>
        <time>2016-11-08T13:11:03.000Z</time>
      </trkpt>
      <trkpt lat="48.77235" lon="2.2716">
        <ele>95.013</ele>
        <time>2016-11-08T13:11:56.836Z</time>
      </trkpt>
      <trkpt lat="48.77232" lon="2.27138">
        <ele>94.976</ele>
        <time>2016-11-08T13:12:18.000Z</time>
      </trkpt>
      <trkpt lat="48.77232" lon="2.27138">
        <ele>94.953</ele>
        <time>2016-11-08T13:12:26.000Z</time>
      </trkpt>
      <trkpt lat="48.77232" lon="2.27138">
        <ele>94.931</ele>
        <time>2016-11-08T13:14:05.286Z</time>
      </trkpt>
      <trkpt lat="48.77217" lon="2.27115">
        <ele>94.901</ele>
        <time>2016-11-08T13:14:23.216Z</time>
      </trkpt>
      <trkpt lat="48.77215" lon="2.27101">
        <ele>95.183</ele>
        <time>2016-11-08T13:14:28.999Z</time>
      </trkpt>
      <trkpt lat="48.77215" lon="2.27101">
        <ele>95.977</ele>
        <time>2016-11-08T13:14:34.999Z</time>
      </trkpt>
      <trkpt lat="48.77215" lon="2.27101">
        <ele>96.632</ele>
        <time>2016-11-08T13:14:56.727Z</time>
      </trkpt>
      <trkpt lat="48.77214" lon="2.27087">
        <ele>96.581</ele>
        <time>2016-11-08T13:15:07.999Z</time>
      </trkpt>
      <trkpt lat="48.77214" lon="2.27087">
        <ele>96.269</ele>
        <time>2016-11-08T13:15:11.999Z</time>
      </trkpt>
      <trkpt lat="48.77214" lon="2.27087">
        <ele>96.204</ele>
        <time>2016-11-08T13:15:15.379Z</time>
      </trkpt>
      <trkpt lat="48.77204" lon="2.27088">
        <ele>96.283</ele>
        <time>2016-11-08T13:15:32.360Z</time>
      </trkpt>
      <trkpt lat="48.77197" lon="2.27098">
        <ele>96.509</ele>
        <time>2016-11-08T13:15:41.738Z</time>
      </trkpt>
      <trkpt lat="48.77198" lon="2.27113">
        <ele>97.22</ele>
        <time>2016-11-08T13:15:50.999Z</time>
      </trkpt>
      <trkpt lat="48.77198" lon="2.27113">
        <ele>97.929</ele>
        <time>2016-11-08T13:16:04.999Z</time>
      </trkpt>
      <trkpt lat="48.77198" lon="2.27113">
        <ele>98.151</ele>
        <time>2016-11-08T13:16:41.438Z</time>
      </trkpt>
      <trkpt lat="48.77194" lon="2.27129">
        <ele>98.045</ele>
        <time>2016-11-08T13:16:54.999Z</time>
      </trkpt>
      <trkpt lat="48.77194" lon="2.27129">
        <ele>97.909</ele>
        <time>2016-11-08T13:16:57.999Z</time>
      </trkpt>
      <trkpt lat="48.77194" lon="2.27129">
        <ele>97.867</ele>
        <time>2016-11-08T13:18:47.308Z</time>
      </trkpt>
      <trkpt lat="48.7719" lon="2.27158">
        <ele>97.871</ele>
        <time>2016-11-08T13:19:47.999Z</time>
      </trkpt>
      <trkpt lat="48.7719" lon="2.27158">
        <ele>97.846</ele>
        <time>2016-11-08T13:19:50.999Z</time>
      </trkpt>
      <trkpt lat="48.7719" lon="2.27158">
        <ele>97.794</ele>
        <time>2016-11-08T13:20:57.901Z</time>
      </trkpt>
      <trkpt lat="48.77176" lon="2.27143">
        <ele>97.754</ele>
        <time>2016-11-08T13:21:37.000Z</time>
      </trkpt>
      <trkpt lat="48.77176" lon="2.27143">
        <ele>97.738</ele>
        <time>2016-11-08T13:21:40.000Z</time>
      </trkpt>
      <trkpt lat="48.77176" lon="2.27143">
        <ele>97.721</ele>
        <time>2016-11-08T13:21:47.000Z</time>
      </trkpt>
      <trkpt lat="48.77176" lon="2.27143">
        <ele>97.685</ele>
        <time>2016-11-08T13:22:22.000Z</time>
      </trkpt>
      <trkpt lat="48.77176" lon="2.27143">
        <ele>97.642</ele>
        <time>2016-11-08T13:22:29.477Z</time>
      </trkpt>
      <trkpt lat="48.77172" lon="2.27125">
        <ele>97.615</ele>
        <time>2016-11-08T13:22:46.000Z</time>
      </trkpt>
      <trkpt lat="48.77172" lon="2.27125">
        <ele>97.599</ele>
        <time>2016-11-08T13:23:04.000Z</time>
      </trkpt>
      <trkpt lat="48.77172" lon="2.27125">
        <ele>97.575</ele>
        <time>2016-11-08T13:23:04.100Z</time>
      </trkpt>
      <trkpt lat="48.77163" lon="2.27123">
        <ele>97.502</ele>
        <time>2016-11-08T13:23:26.220Z</time>
      </trkpt>
      <trkpt lat="48.77154" lon="2.27129">
        <ele>97.905</ele>
        <time>2016-11-08T13:23:35.000Z</time>
      </trkpt>
      <trkpt lat="48.77154" lon="2.27129">
        <ele>99.001</ele>
        <time>2016-11-08T13:23:37.000Z</time>
      </trkpt>
      <trkpt lat="48.77154" lon="2.27129">
        <ele>99.903</ele>
        <time>2016-11-08T13:24:14.767Z</time>
      </trkpt>
      <trkpt lat="48.77155" lon="2.27113">
        <ele>99.319</ele>
        <time>2016-11-08T13:24:30.911Z</time>
      </trkpt>
      <trkpt lat="48.77159" lon="2.271">
        <ele>99.068</ele>
        <time>2016-11-08T13:24:38.000Z</time>
      </trkpt>
      <trkpt lat="48.77159" lon="2.271">
        <ele>99.27</ele>
        <time>2016-11-08T13:24:49.000Z</time>
      </trkpt>
      <trkpt lat="48.77159" lon="2.271">
        <ele>99.53</ele>
        <time>2016-11-08T13:24:49.100Z</time>
      </trkpt>
      <trkpt lat="48.77162" lon="2.27087">
        <ele>99.497</ele>
        <time>2016-11-08T13:25:01.574Z</time>
      </trkpt>
      <trkpt lat="48.77164" lon="2.27073">
        <ele>99.481</ele>
        <time>2016-11-08T13:25:09.000Z</time>
      </trkpt>
      <trkpt lat="48.77164" lon="2.27073">
        <ele>99.803</ele>
        <time>2016-11-08T13:25:15.000Z</time>
      </trkpt>
      <trkpt lat="48.77164" lon="2.27073">
        <ele>100.123</ele>
        <time>2016-11-08T13:27:11.754Z</time>
      </trkpt>
      <trkpt lat="48.77161" lon="2.27058">
        <ele>100.084</ele>
        <time>2016-11-08T13:27:30.347Z</time>
      </trkpt>
      <trkpt lat="48.77162" lon="2.27045">
        <ele>99.942</ele>
        <time>2016-11-08T13:27:41.999Z</time>
      </trkpt>
      <trkpt lat="48.77162" lon="2.27045">
        <ele>99.996</ele>
        <time>2016-11-08T13:27:47.999Z</time>
      </trkpt>
      <trkpt lat="48.77162" lon="2.27045">
        <ele>100.103</ele>
        <time>2016-11-08T13:29:00.494Z</time>
      </trkpt>
      <trkpt lat="48.77153" lon="2.27048">
        <ele>100.062</ele>
        <time>2016-11-08T13:29:15.999Z</time>
      </trkpt>
      <trkpt lat="48.77153" lon="2.27048">
        <ele>99.94</ele>
        <time>2016-11-08T13:29:23.999Z</time>
      </trkpt>
      <trkpt lat="48.77153" lon="2.27048">
        <ele>99.858</ele>
        <time>2016-11-08T13:29:24.099Z</time>
      </trkpt>
      <trkpt lat="48.77147" lon="2.2707">
        <ele>99.825</ele>
        <time>2016-11-08T13:29:39.999Z</time>
      </trkpt>
      <trkpt lat="48.77147" lon="2.2707">
        <ele>99.8</ele>
        <time>2016-11-08T13:29:49.999Z</time>
      </trkpt>
      <trkpt lat="48.77147" lon="2.2707">
        <ele>99.757</ele>
        <time>2016-11-08T13:31:39.605Z</time>
      </trkpt>
      <trkpt lat="48.77135" lon="2.27082">
        <ele>99.71</ele>
        <time>2016-11-08T13:32:02.113Z</time>
      </trkpt>
      <trkpt lat="48.77126" lon="2.2709">
        <ele>99.551</ele>
        <time>2016-11-08T13:32:08.975Z</time>
      </trkpt>
      <trkpt lat="48.7712" lon="2.271">
        <ele>99.2</ele>
        <time>2016-11-08T13:32:14.999Z</time>
      </trkpt>
      <trkpt lat="48.7712" lon="2.271">
        <ele>98.855</ele>
        <time>2016-11-08T13:32:31.999Z</time>
      </trkpt>
      <trkpt lat="48.7712" lon="2.271">
        <ele>98.705</ele>
        <time>2016-11-08T13:35:23.353Z</time>
      </trkpt>
      <trkpt lat="48.77113" lon="2.27128">
        <ele>98.692</ele>
        <time>2016-11-08T13:35:54.000Z</time>
      </trkpt>
      <trkpt lat="48.77113" lon="2.27128">
        <ele>98.696</ele>
        <time>2016-11-08T13:36:03.000Z</time>
      </trkpt>
      <trkpt lat="48.77113" lon="2.27128">
        <ele>98.657</ele>
        <time>2016-11-08T13:38:57.735Z</time>
      </trkpt>
      <trkpt lat="48.77123" lon="2.27135">
        <ele>98.604</ele>
        <time>2016-11-08T13:39:16.072Z</time>
      </trkpt>
      <trkpt lat="48.77114" lon="2.27133">
        <ele>98.342</ele>
        <time>2016-11-08T13:39:23.000Z</time>
      </trkpt>
      <trkpt lat="48.77114" lon="2.27133">
        <ele>97.728</ele>
        <time>2016-11-08T13:39:32.000Z</time>
      </trkpt>
      <trkpt lat="48.77114" lon="2.27133">
        <ele>97.207</ele>
        <time>2016-11-08T13:39:32.100Z</time>
      </trkpt>
      <trkpt lat="48.77089" lon="2.2713">
        <ele>97.176</ele>
        <time>2016-11-08T13:41:26.000Z</time>
      </trkpt>
      <trkpt lat="48.77089" lon="2.2713">
        <ele>97.35</ele>
        <time>2016-11-08T13:41:30.000Z</time>
      </trkpt>
      <trkpt lat="48.77089" lon="2.2713">
        <ele>97.393</ele>
        <time>2016-11-08T13:42:39.222Z</time>
      </trkpt>
      <trkpt lat="48.77075" lon="2.2715">
        <ele>97.299</ele>
        <time>2016-11-08T13:43:08.000Z</time>
      </trkpt>
      <trkpt lat="48.77075" lon="2.2715">
        <ele>97.188</ele>
        <time>2016-11-08T13:43:09.000Z</time>
      </trkpt>
      <trkpt lat="48.77075" lon="2.2715">
        <ele>97.124</ele>
        <time>2016-11-08T13:43:09.100Z</time>
      </trkpt>
      <trkpt lat="48.77065" lon="2.27122">
        <ele>97.096</ele>
        <time>2016-11-08T13:46:27.000Z</time>
      </trkpt>
      <trkpt lat="48.77065" lon="2.27122">
        <ele>97.065</ele>
        <time>2016-11-08T13:46:30.000Z</time>
      </trkpt>
      <trkpt lat="48.77065" lon="2.27122">
        <ele>97.021</ele>
        <time>2016-11-08T13:47:38.803Z</time>
      </trkpt>
      <trkpt lat="48.77075" lon="2.27098">
        <ele>96.981</ele>
        <time>2016-11-08T13:48:31.101Z</time>
      </trkpt>
      <trkpt lat="48.77084" lon="2.27096">
        <ele>97.586</ele>
        <time>2016-11-08T13:48:41.567Z</time>
      </trkpt>
      <trkpt lat="48.77094" lon="2.27101">
        <ele>99.205</ele>
        <time>2016-11-08T13:48:51.146Z</time>
      </trkpt>
      <trkpt lat="48.77102" lon="2.27108">
        <ele>100.813</ele>
        <time>2016-11-08T13:49:00.999Z</time>
      </trkpt>
      <trkpt lat="48.77102" lon="2.27108">
        <ele>101.407</ele>
        <time>2016-11-08T13:49:02.000Z</time>
      </trkpt>
      <trkpt lat="48.77102" lon="2.27108">
        <ele>101.247</ele>
        <time>2016-11-08T13:50:47.620Z</time>
      </trkpt>
      <trkpt lat="48.77092" lon="2.27104">
        <ele>100.995</ele>
        <time>2016-11-08T13:50:59.000Z</time>
      </trkpt>
      <trkpt lat="48.77092" lon="2.27104">
        <ele>101.114</ele>
        <time>2016-11-08T13:51:03.000Z</time>
      </trkpt>
      <trkpt lat="48.77092" lon="2.27104">
        <ele>101.127</ele>
        <time>2016-11-08T13:51:49.845Z</time>
      </trkpt>
      <trkpt lat="48.77091" lon="2.2709">
        <ele>101.009</ele>
        <time>2016-11-08T13:52:01.000Z</time>
      </trkpt>
      <trkpt lat="48.77091" lon="2.2709">
        <ele>100.988</ele>
        <time>2016-11-08T13:52:06.000Z</time>
      </trkpt>
      <trkpt lat="48.77091" lon="2.2709">
        <ele>100.972</ele>
        <time>2016-11-08T13:52:08.100Z</time>
      </trkpt>
      <trkpt lat="48.77082" lon="2.27075">
        <ele>100.94</ele>
        <time>2016-11-08T13:52:27.624Z</time>
      </trkpt>
      <trkpt lat="48.77073" lon="2.27071">
        <ele>101.049</ele>
        <time>2016-11-08T13:52:35.963Z</time>
      </trkpt>
      <trkpt lat="48.77064" lon="2.27069">
        <ele>101.5</ele>
        <time>2016-11-08T13:52:43.288Z</time>
      </trkpt>
      <trkpt lat="48.77055" lon="2.27065">
        <ele>102.205</ele>
        <time>2016-11-08T13:52:50.000Z</time>
      </trkpt>
      <trkpt lat="48.77055" lon="2.27065">
        <ele>102.848</ele>
        <time>2016-11-08T13:52:59.000Z</time>
      </trkpt>
      <trkpt lat="48.77055" lon="2.27065">
        <ele>103.148</ele>
        <time>2016-11-08T13:52:59.100Z</time>
      </trkpt>
      <trkpt lat="48.77031" lon="2.27062">
        <ele>103.073</ele>
        <time>2016-11-08T13:53:39.996Z</time>
      </trkpt>
      <trkpt lat="48.77031" lon="2.27062">
        <ele>102.9</ele>
        <time>2016-11-08T13:53:40.996Z</time>
      </trkpt>
      <trkpt lat="48.77031" lon="2.27062">
        <ele>102.849</ele>
        <time>2016-11-08T13:53:49.468Z</time>
      </trkpt>
      <trkpt lat="48.77024" lon="2.27051">
        <ele>102.85</ele>
        <time>2016-11-08T13:54:07.879Z</time>
      </trkpt>
      <trkpt lat="48.77021" lon="2.27037">
        <ele>103.032</ele>
        <time>2016-11-08T13:54:17.669Z</time>
      </trkpt>
      <trkpt lat="48.77023" lon="2.27023">
        <ele>103.643</ele>
        <time>2016-11-08T13:54:26.715Z</time>
      </trkpt>
      <trkpt lat="48.77028" lon="2.27011">
        <ele>104.379</ele>
        <time>2016-11-08T13:54:34.583Z</time>
      </trkpt>
      <trkpt lat="48.77037" lon="2.27006">
        <ele>104.811</ele>
        <time>2016-11-08T13:54:42.996Z</time>
      </trkpt>
      <trkpt lat="48.77037" lon="2.27006">
        <ele>104.912</ele>
        <time>2016-11-08T13:54:48.996Z</time>
      </trkpt>
      <trkpt lat="48.77037" lon="2.27006">
        <ele>104.845</ele>
        <time>2016-11-08T13:57:55.165Z</time>
      </trkpt>
      <trkpt lat="48.77046" lon="2.27032">
        <ele>104.753</ele>
        <time>2016-11-08T13:59:12.000Z</time>
      </trkpt>
      <trkpt lat="48.77046" lon="2.27032">
        <ele>104.689</ele>
        <time>2016-11-08T13:59:15.000Z</time>
      </trkpt>
      <trkpt lat="48.77046" lon="2.27032">
        <ele>104.64</ele>
        <time>2016-11-08T14:05:41.020Z</time>
      </trkpt>
      <trkpt lat="48.77044" lon="2.27016">
        <ele>104.597</ele>
        <time>2016-11-08T14:06:07.724Z</time>
      </trkpt>
      <trkpt lat="48.77052" lon="2.27009">
        <ele>104.36</ele>
        <time>2016-11-08T14:06:18.000Z</time>
      </trkpt>
      <trkpt lat="48.77052" lon="2.27009">
        <ele>103.807</ele>
        <time>2016-11-08T14:06:19.000Z</time>
      </trkpt>
      <trkpt lat="48.77052" lon="2.27009">
        <ele>103.336</ele>
        <time>2016-11-08T14:07:36.241Z</time>
      </trkpt>
      <trkpt lat="48.77059" lon="2.26998">
        <ele>103.498</ele>
        <time>2016-11-08T14:07:53.022Z</time>
      </trkpt>
      <trkpt lat="48.77066" lon="2.26987">
        <ele>103.543</ele>
        <time>2016-11-08T14:08:01.831Z</time>
      </trkpt>
      <trkpt lat="48.77075" lon="2.26989">
        <ele>103.281</ele>
        <time>2016-11-08T14:08:09.000Z</time>
      </trkpt>
      <trkpt lat="48.77075" lon="2.26989">
        <ele>102.896</ele>
        <time>2016-11-08T14:08:15.000Z</time>
      </trkpt>
      <trkpt lat="48.77075" lon="2.26989">
        <ele>102.667</ele>
        <time>2016-11-08T14:09:59.570Z</time>
      </trkpt>
      <trkpt lat="48.77092" lon="2.26984">
        <ele>102.641</ele>
        <time>2016-11-08T14:10:40.800Z</time>
      </trkpt>
      <trkpt lat="48.771" lon="2.26977">
        <ele>102.413</ele>
        <time>2016-11-08T14:10:54.345Z</time>
      </trkpt>
      <trkpt lat="48.77102" lon="2.26963">
        <ele>101.497</ele>
        <time>2016-11-08T14:11:04.746Z</time>
      </trkpt>
      <trkpt lat="48.77101" lon="2.26948">
        <ele>100.16</ele>
        <time>2016-11-08T14:11:14.000Z</time>
      </trkpt>
      <trkpt lat="48.77101" lon="2.26948">
        <ele>99.148</ele>
        <time>2016-11-08T14:11:16.000Z</time>
      </trkpt>
      <trkpt lat="48.77101" lon="2.26948">
        <ele>98.754</ele>
        <time>2016-11-08T14:12:05.649Z</time>
      </trkpt>
      <trkpt lat="48.77105" lon="2.26936">
        <ele>98.775</ele>
        <time>2016-11-08T14:12:20.893Z</time>
      </trkpt>
      <trkpt lat="48.77114" lon="2.26928">
        <ele>98.914</ele>
        <time>2016-11-08T14:12:27.853Z</time>
      </trkpt>
      <trkpt lat="48.77121" lon="2.26919">
        <ele>98.945</ele>
        <time>2016-11-08T14:12:33.000Z</time>
      </trkpt>
      <trkpt lat="48.77121" lon="2.26919">
        <ele>98.848</ele>
        <time>2016-11-08T14:12:33.000Z</time>
      </trkpt>
      <trkpt lat="48.77121" lon="2.26919">
        <ele>98.761</ele>
        <time>2016-11-08T14:12:38.346Z</time>
      </trkpt>
      <trkpt lat="48.77121" lon="2.26919">
        <ele>98.728</ele>
        <time>2016-11-08T14:12:46.000Z</time>
      </trkpt>
      <trkpt lat="48.77121" lon="2.26919">
        <ele>98.713</ele>
        <time>2016-11-08T14:13:17.877Z</time>
      </trkpt>
      <trkpt lat="48.77135" lon="2.26905">
        <ele>98.676</ele>
        <time>2016-11-08T14:13:36.653Z</time>
      </trkpt>
      <trkpt lat="48.77141" lon="2.26894">
        <ele>98.759</ele>
        <time>2016-11-08T14:13:43.072Z</time>
      </trkpt>
      <trkpt lat="48.7715" lon="2.26898">
        <ele>99.06</ele>
        <time>2016-11-08T14:13:50.000Z</time>
      </trkpt>
      <trkpt lat="48.7715" lon="2.26898">
        <ele>99.307</ele>
        <time>2016-11-08T14:13:57.000Z</time>
      </trkpt>
      <trkpt lat="48.7715" lon="2.26898">
        <ele>99.263</ele>
        <time>2016-11-08T14:14:20.480Z</time>
      </trkpt>
      <trkpt lat="48.77168" lon="2.26926">
        <ele>99.081</ele>
        <time>2016-11-08T14:15:24.000Z</time>
      </trkpt>
      <trkpt lat="48.77168" lon="2.26926">
        <ele>98.961</ele>
        <time>2016-11-08T14:15:27.000Z</time>
      </trkpt>
      <trkpt lat="48.77168" lon="2.26926">
        <ele>98.91</ele>
        <time>2016-11-08T14:15:59.019Z</time>
      </trkpt>
      <trkpt lat="48.77179" lon="2.26948">
        <ele>98.879</ele>
        <time>2016-11-08T14:16:35.335Z</time>
      </trkpt>
      <trkpt lat="48.77183" lon="2.26961">
        <ele>98.577</ele>
        <time>2016-11-08T14:16:44.392Z</time>
      </trkpt>
      <trkpt lat="48.77184" lon="2.26974">
        <ele>97.733</ele>
        <time>2016-11-08T14:16:52.632Z</time>
      </trkpt>
      <trkpt lat="48.77188" lon="2.26987">
        <ele>96.693</ele>
        <time>2016-11-08T14:17:01.000Z</time>
      </trkpt>
      <trkpt lat="48.77188" lon="2.26987">
        <ele>96.079</ele>
        <time>2016-11-08T14:17:02.000Z</time>
      </trkpt>
      <trkpt lat="48.77188" lon="2.26987">
        <ele>95.996</ele>
        <time>2016-11-08T14:17:07.044Z</time>
      </trkpt>
      <trkpt lat="48.77198" lon="2.27011">
        <ele>96.187</ele>
        <time>2016-11-08T14:17:29.000Z</time>
      </trkpt>
      <trkpt lat="48.77198" lon="2.27011">
        <ele>96.348</ele>
        <time>2016-11-08T14:17:44.000Z</time>
      </trkpt>
      <trkpt lat="48.77198" lon="2.27011">
        <ele>96.341</ele>
        <time>2016-11-08T14:17:44.100Z</time>
      </trkpt>
      <trkpt lat="48.77217" lon="2.27016">
        <ele>96.239</ele>
        <time>2016-11-08T14:18:57.999Z</time>
      </trkpt>
      <trkpt lat="48.77217" lon="2.27016">
        <ele>96.153</ele>
        <time>2016-11-08T14:19:00.999Z</time>
      </trkpt>
      <trkpt lat="48.77217" lon="2.27016">
        <ele>96.096</ele>
        <time>2016-11-08T14:19:01.099Z</time>
      </trkpt>
      <trkpt lat="48.77222" lon="2.27005">
        <ele>96.043</ele>
        <time>2016-11-08T14:19:11.999Z</time>
      </trkpt>
      <trkpt lat="48.77222" lon="2.27005">
        <ele>96.037</ele>
        <time>2016-11-08T14:19:16.999Z</time>
      </trkpt>
      <trkpt lat="48.77222" lon="2.27005">
        <ele>96.023</ele>
        <time>2016-11-08T14:19:24.172Z</time>
      </trkpt>
      <trkpt lat="48.77231" lon="2.27002">
        <ele>95.986</ele>
        <time>2016-11-08T14:19:34.999Z</time>
      </trkpt>
      <trkpt lat="48.77231" lon="2.27002">
        <ele>95.946</ele>
        <time>2016-11-08T14:19:39.999Z</time>
      </trkpt>
      <trkpt lat="48.77231" lon="2.27002">
        <ele>95.918</ele>
        <time>2016-11-08T14:20:12.164Z</time>
      </trkpt>
      <trkpt lat="48.77242" lon="2.26994">
        <ele>95.889</ele>
        <time>2016-11-08T14:20:27.999Z</time>
      </trkpt>
      <trkpt lat="48.77242" lon="2.26994">
        <ele>95.85</ele>
        <time>2016-11-08T14:20:32.999Z</time>
      </trkpt>
      <trkpt lat="48.77242" lon="2.26994">
        <ele>95.81</ele>
        <time>2016-11-08T14:20:57.697Z</time>
      </trkpt>
      <trkpt lat="48.77244" lon="2.26978">
        <ele>95.753</ele>
        <time>2016-11-08T14:21:14.505Z</time>
      </trkpt>
      <trkpt lat="48.77243" lon="2.26965">
        <ele>95.739</ele>
        <time>2016-11-08T14:21:22.999Z</time>
      </trkpt>
      <trkpt lat="48.77243" lon="2.26965">
        <ele>95.72</ele>
        <time>2016-11-08T14:21:26.999Z</time>
      </trkpt>
      <trkpt lat="48.77243" lon="2.26965">
        <ele>95.682</ele>
        <time>2016-11-08T14:21:59.095Z</time>
      </trkpt>
      <trkpt lat="48.77235" lon="2.26954">
        <ele>95.615</ele>
        <time>2016-11-08T14:22:17.814Z</time>
      </trkpt>
      <trkpt lat="48.77238" lon="2.2694">
        <ele>95.699</ele>
        <time>2016-11-08T14:22:26.884Z</time>
      </trkpt>
      <trkpt lat="48.77243" lon="2.26928">
        <ele>95.963</ele>
        <time>2016-11-08T14:22:34.307Z</time>
      </trkpt>
      <trkpt lat="48.77241" lon="2.26914">
        <ele>96.266</ele>
        <time>2016-11-08T14:22:41.709Z</time>
      </trkpt>
      <trkpt lat="48.77243" lon="2.26899">
        <ele>96.443</ele>
        <time>2016-11-08T14:22:50.310Z</time>
      </trkpt>
      <trkpt lat="48.77247" lon="2.26885">
        <ele>96.5</ele>
        <time>2016-11-08T14:22:57.999Z</time>
      </trkpt>
      <trkpt lat="48.77247" lon="2.26885">
        <ele>96.498</ele>
        <time>2016-11-08T14:23:05.999Z</time>
      </trkpt>
      <trkpt lat="48.77247" lon="2.26885">
        <ele>96.469</ele>
        <time>2016-11-08T14:24:18.351Z</time>
      </trkpt>
      <trkpt lat="48.77249" lon="2.26857">
        <ele>96.429</ele>
        <time>2016-11-08T14:24:54.999Z</time>
      </trkpt>
      <trkpt lat="48.77249" lon="2.26857">
        <ele>96.396</ele>
        <time>2016-11-08T14:24:58.999Z</time>
      </trkpt>
      <trkpt lat="48.77249" lon="2.26857">
        <ele>96.372</ele>
        <time>2016-11-08T14:25:07.518Z</time>
      </trkpt>
      <trkpt lat="48.77256" lon="2.26831">
        <ele>96.346</ele>
        <time>2016-11-08T14:25:29.000Z</time>
      </trkpt>
      <trkpt lat="48.77256" lon="2.26831">
        <ele>96.319</ele>
        <time>2016-11-08T14:25:31.000Z</time>
      </trkpt>
      <trkpt lat="48.77256" lon="2.26831">
        <ele>96.291</ele>
        <time>2016-11-08T14:25:44.332Z</time>
      </trkpt>
      <trkpt lat="48.77254" lon="2.26817">
        <ele>96.26</ele>
        <time>2016-11-08T14:25:56.000Z</time>
      </trkpt>
      <trkpt lat="48.77254" lon="2.26817">
        <ele>96.234</ele>
        <time>2016-11-08T14:26:05.000Z</time>
      </trkpt>
      <trkpt lat="48.77254" lon="2.26817">
        <ele>96.209</ele>
        <time>2016-11-08T14:26:22.909Z</time>
      </trkpt>
      <trkpt lat="48.77251" lon="2.26797">
        <ele>96.178</ele>
        <time>2016-11-08T14:26:42.898Z</time>
      </trkpt>
      <trkpt lat="48.77254" lon="2.26784">
        <ele>96.977</ele>
        <time>2016-11-08T14:26:50.772Z</time>
      </trkpt>
      <trkpt lat="48.7726" lon="2.26773">
        <ele>99.167</ele>
        <time>2016-11-08T14:26:58.000Z</time>
      </trkpt>
      <trkpt lat="48.7726" lon="2.26773">
        <ele>101.508</ele>
        <time>2016-11-08T14:27:02.000Z</time>
      </trkpt>
      <trkpt lat="48.7726" lon="2.26773">
        <ele>102.546</ele>
        <time>2016-11-08T14:28:19.005Z</time>
      </trkpt>
      <trkpt lat="48.77264" lon="2.26756">
        <ele>102.378</ele>
        <time>2016-11-08T14:28:50.000Z</time>
      </trkpt>
      <trkpt lat="48.77264" lon="2.26756">
        <ele>101.925</ele>
        <time>2016-11-08T14:28:59.000Z</time>
      </trkpt>
      <trkpt lat="48.77264" lon="2.26756">
        <ele>101.854</ele>
        <time>2016-11-08T14:28:59.100Z</time>
      </trkpt>
      <trkpt lat="48.77277" lon="2.26756">
        <ele>102.051</ele>
        <time>2016-11-08T14:29:08.936Z</time>
      </trkpt>
      <trkpt lat="48.77286" lon="2.26762">
        <ele>102.294</ele>
        <time>2016-11-08T14:29:14.000Z</time>
      </trkpt>
      <trkpt lat="48.77286" lon="2.26762">
        <ele>102.56</ele>
        <time>2016-11-08T14:29:22.000Z</time>
      </trkpt>
      <trkpt lat="48.77286" lon="2.26762">
        <ele>102.717</ele>
        <time>2016-11-08T14:29:22.100Z</time>
      </trkpt>
      <trkpt lat="48.77293" lon="2.26752">
        <ele>102.665</ele>
        <time>2016-11-08T14:30:18.132Z</time>
      </trkpt>
      <trkpt lat="48.77302" lon="2.26749">
        <ele>102.596</ele>
        <time>2016-11-08T14:30:26.145Z</time>
      </trkpt>
      <trkpt lat="48.77311" lon="2.26753">
        <ele>102.894</ele>
        <time>2016-11-08T14:30:33.000Z</time>
      </trkpt>
      <trkpt lat="48.77311" lon="2.26753">
        <ele>103.603</ele>
        <time>2016-11-08T14:30:35.000Z</time>
      </trkpt>
      <trkpt lat="48.77311" lon="2.26753">
        <ele>104.132</ele>
        <time>2016-11-08T14:30:46.399Z</time>
      </trkpt>
      <trkpt lat="48.77311" lon="2.26753">
        <ele>103.743</ele>
        <time>2016-11-08T14:31:04.000Z</time>
      </trkpt>
      <trkpt lat="48.77311" lon="2.26753">
        <ele>103.53</ele>
        <time>2016-11-08T14:31:04.100Z</time>
      </trkpt>
      <trkpt lat="48.77323" lon="2.26755">
        <ele>103.546</ele>
        <time>2016-11-08T14:31:12.000Z</time>
      </trkpt>
      <trkpt lat="48.77323" lon="2.26755">
        <ele>103.676</ele>
        <time>2016-11-08T14:31:19.000Z</time>
      </trkpt>
      <trkpt lat="48.77323" lon="2.26755">
        <ele>103.722</ele>
        <time>2016-11-08T14:33:13.438Z</time>
      </trkpt>
      <trkpt lat="48.77346" lon="2.26764">
        <ele>103.656</ele>
        <time>2016-11-08T14:33:53.156Z</time>
      </trkpt>
      <trkpt lat="48.77354" lon="2.2677">
        <ele>104.188</ele>
        <time>2016-11-08T14:34:02.618Z</time>
      </trkpt>
      <trkpt lat="48.77363" lon="2.26771">
        <ele>105.827</ele>
        <time>2016-11-08T14:34:11.738Z</time>
      </trkpt>
      <trkpt lat="48.77371" lon="2.26779">
        <ele>107.731</ele>
        <time>2016-11-08T14:34:20.526Z</time>
      </trkpt>
      <trkpt lat="48.77374" lon="2.26791">
        <ele>108.873</ele>
        <time>2016-11-08T14:34:29.913Z</time>
      </trkpt>
      <trkpt lat="48.77383" lon="2.26797">
        <ele>109.282</ele>
        <time>2016-11-08T14:34:40.944Z</time>
      </trkpt>
      <trkpt lat="48.7739" lon="2.26806">
        <ele>109.38</ele>
        <time>2016-11-08T14:34:51.789Z</time>
      </trkpt>
      <trkpt lat="48.77391" lon="2.2682">
        <ele>109.453</ele>
        <time>2016-11-08T14:34:59.932Z</time>
      </trkpt>
      <trkpt lat="48.77393" lon="2.26833">
        <ele>109.517</ele>
        <time>2016-11-08T14:35:07.560Z</time>
      </trkpt>
      <trkpt lat="48.77393" lon="2.26848">
        <ele>109.445</ele>
        <time>2016-11-08T14:35:15.801Z</time>
      </trkpt>
      <trkpt lat="48.77389" lon="2.26861">
        <ele>109.12</ele>
        <time>2016-11-08T14:35:23.747Z</time>
      </trkpt>
      <trkpt lat="48.77387" lon="2.26875">
        <ele>108.412</ele>
        <time>2016-11-08T14:35:32.380Z</time>
      </trkpt>
      <trkpt lat="48.77384" lon="2.26888">
        <ele>107.43</ele>
        <time>2016-11-08T14:35:42.056Z</time>
      </trkpt>
      <trkpt lat="48.77379" lon="2.26901">
        <ele>106.558</ele>
        <time>2016-11-08T14:35:52.006Z</time>
      </trkpt>
      <trkpt lat="48.77373" lon="2.26913">
        <ele>105.978</ele>
        <time>2016-11-08T14:36:02.064Z</time>
      </trkpt>
      <trkpt lat="48.77375" lon="2.26926">
        <ele>105.406</ele>
        <time>2016-11-08T14:36:12.769Z</time>
      </trkpt>
      <trkpt lat="48.77377" lon="2.2694">
        <ele>104.61</ele>
        <time>2016-11-08T14:36:22.508Z</time>
      </trkpt>
      <trkpt lat="48.7738" lon="2.26954">
        <ele>103.749</ele>
        <time>2016-11-08T14:36:30.727Z</time>
      </trkpt>
      <trkpt lat="48.77385" lon="2.26967">
        <ele>102.966</ele>
        <time>2016-11-08T14:36:39.831Z</time>
      </trkpt>
      <trkpt lat="48.77389" lon="2.2698">
        <ele>102.169</ele>
        <time>2016-11-08T14:36:50.197Z</time>
      </trkpt>
      <trkpt lat="48.77386" lon="2.26993">
        <ele>101.462</ele>
        <time>2016-11-08T14:37:00.160Z</time>
      </trkpt>
      <trkpt lat="48.77377" lon="2.26997">
        <ele>100.91</ele>
        <time>2016-11-08T14:37:09.283Z</time>
      </trkpt>
      <trkpt lat="48.77368" lon="2.27002">
        <ele>100.407</ele>
        <time>2016-11-08T14:37:16.822Z</time>
      </trkpt>
      <trkpt lat="48.77361" lon="2.27012">
        <ele>99.984</ele>
        <time>2016-11-08T14:37:24.552Z</time>
      </trkpt>
      <trkpt lat="48.77357" lon="2.27024">
        <ele>99.529</ele>
        <time>2016-11-08T14:37:32.225Z</time>
      </trkpt>
      <trkpt lat="48.77353" lon="2.27038">
        <ele>98.85</ele>
        <time>2016-11-08T14:37:40.827Z</time>
      </trkpt>
      <trkpt lat="48.77345" lon="2.27047">
        <ele>98.048</ele>
        <time>2016-11-08T14:37:49.806Z</time>
      </trkpt>
      <trkpt lat="48.77343" lon="2.27061">
        <ele>97.312</ele>
        <time>2016-11-08T14:37:57.397Z</time>
      </trkpt>
      <trkpt lat="48.77337" lon="2.27071">
        <ele>96.75</ele>
        <time>2016-11-08T14:38:05.269Z</time>
      </trkpt>
      <trkpt lat="48.77333" lon="2.27085">
        <ele>96.413</ele>
        <time>2016-11-08T14:38:13.785Z</time>
      </trkpt>
      <trkpt lat="48.77328" lon="2.27097">
        <ele>96.265</ele>
        <time>2016-11-08T14:38:22.098Z</time>
      </trkpt>
      <trkpt lat="48.77323" lon="2.27109">
        <ele>96.228</ele>
        <time>2016-11-08T14:38:29.538Z</time>
      </trkpt>
      <trkpt lat="48.77318" lon="2.27122">
        <ele>96.19</ele>
        <time>2016-11-08T14:38:37.657Z</time>
      </trkpt>
      <trkpt lat="48.77313" lon="2.27135">
        <ele>96.075</ele>
        <time>2016-11-08T14:38:46.447Z</time>
      </trkpt>
      <trkpt lat="48.77309" lon="2.27148">
        <ele>95.88</ele>
        <time>2016-11-08T14:38:55.230Z</time>
      </trkpt>
      <trkpt lat="48.77308" lon="2.27162">
        <ele>95.502</ele>
        <time>2016-11-08T14:39:04.373Z</time>
      </trkpt>
      <trkpt lat="48.77304" lon="2.27176">
        <ele>94.808</ele>
        <time>2016-11-08T14:39:12.728Z</time>
      </trkpt>
      <trkpt lat="48.77301" lon="2.2719">
        <ele>94.007</ele>
        <time>2016-11-08T14:39:19.745Z</time>
      </trkpt>
      <trkpt lat="48.77297" lon="2.27203">
        <ele>93.482</ele>
        <time>2016-11-08T14:39:26.600Z</time>
      </trkpt>
      <trkpt lat="48.77293" lon="2.27216">
        <ele>93.311</ele>
        <time>2016-11-08T14:39:34.516Z</time>
      </trkpt>
      <trkpt lat="48.77294" lon="2.2723">
        <ele>93.295</ele>
        <time>2016-11-08T14:39:42.818Z</time>
      </trkpt>
      <trkpt lat="48.77292" lon="2.27244">
        <ele>93.23</ele>
        <time>2016-11-08T14:39:50.363Z</time>
      </trkpt>
      <trkpt lat="48.7729" lon="2.27257">
        <ele>92.963</ele>
        <time>2016-11-08T14:39:57.296Z</time>
      </trkpt>
      <trkpt lat="48.77288" lon="2.27271">
        <ele>92.52</ele>
        <time>2016-11-08T14:40:04.849Z</time>
      </trkpt>
      <trkpt lat="48.77286" lon="2.27285">
        <ele>92.158</ele>
        <time>2016-11-08T14:40:12.403Z</time>
      </trkpt>
      <trkpt lat="48.77283" lon="2.27299">
        <ele>92.133</ele>
        <time>2016-11-08T14:40:20.307Z</time>
      </trkpt>
      <trkpt lat="48.77285" lon="2.27313">
        <ele>92.404</ele>
        <time>2016-11-08T14:40:27.182Z</time>
      </trkpt>
      <trkpt lat="48.7729" lon="2.27325">
        <ele>92.637</ele>
        <time>2016-11-08T14:40:34.428Z</time>
      </trkpt>
      <trkpt lat="48.77292" lon="2.2734">
        <ele>92.608</ele>
        <time>2016-11-08T14:40:42.667Z</time>
      </trkpt>
      <trkpt lat="48.77296" lon="2.27354">
        <ele>92.473</ele>
        <time>2016-11-08T14:40:51.402Z</time>
      </trkpt>
      <trkpt lat="48.77292" lon="2.27369">
        <ele>92.419</ele>
        <time>2016-11-08T14:40:59.974Z</time>
      </trkpt>
      <trkpt lat="48.7729" lon="2.27383">
        <ele>92.439</ele>
        <time>2016-11-08T14:41:06.764Z</time>
      </trkpt>
      <trkpt lat="48.77292" lon="2.27396">
        <ele>92.522</ele>
        <time>2016-11-08T14:41:12.925Z</time>
      </trkpt>
      <trkpt lat="48.77293" lon="2.27411">
        <ele>92.696</ele>
        <time>2016-11-08T14:41:20.040Z</time>
      </trkpt>
      <trkpt lat="48.77293" lon="2.27426">
        <ele>92.891</ele>
        <time>2016-11-08T14:41:28.372Z</time>
      </trkpt>
      <trkpt lat="48.77294" lon="2.27441">
        <ele>93.055</ele>
        <time>2016-11-08T14:41:36.573Z</time>
      </trkpt>
      <trkpt lat="48.77293" lon="2.27456">
        <ele>93.213</ele>
        <time>2016-11-08T14:41:43.724Z</time>
      </trkpt>
      <trkpt lat="48.77295" lon="2.2747">
        <ele>93.27</ele>
        <time>2016-11-08T14:41:50.768Z</time>
      </trkpt>
      <trkpt lat="48.77292" lon="2.27486">
        <ele>93.129</ele>
        <time>2016-11-08T14:41:58.464Z</time>
      </trkpt>
      <trkpt lat="48.77295" lon="2.27501">
        <ele>92.706</ele>
        <time>2016-11-08T14:42:05.750Z</time>
      </trkpt>
      <trkpt lat="48.77296" lon="2.27516">
        <ele>92.036</ele>
        <time>2016-11-08T14:42:13.143Z</time>
      </trkpt>
      <trkpt lat="48.77293" lon="2.27531">
        <ele>91.447</ele>
        <time>2016-11-08T14:42:20.224Z</time>
      </trkpt>
      <trkpt lat="48.7729" lon="2.27545">
        <ele>91.252</ele>
        <time>2016-11-08T14:42:27.165Z</time>
      </trkpt>
      <trkpt lat="48.77283" lon="2.27554">
        <ele>91.473</ele>
        <time>2016-11-08T14:42:34.726Z</time>
      </trkpt>
      <trkpt lat="48.77277" lon="2.27567">
        <ele>91.937</ele>
        <time>2016-11-08T14:42:45.107Z</time>
      </trkpt>
      <trkpt lat="48.7728" lon="2.27581">
        <ele>92.345</ele>
        <time>2016-11-08T14:42:55.371Z</time>
      </trkpt>
      <trkpt lat="48.77284" lon="2.27595">
        <ele>92.455</ele>
        <time>2016-11-08T14:43:04.101Z</time>
      </trkpt>
      <trkpt lat="48.77282" lon="2.2761">
        <ele>92.227</ele>
        <time>2016-11-08T14:43:12.855Z</time>
      </trkpt>
      <trkpt lat="48.77281" lon="2.27624">
        <ele>91.874</ele>
        <time>2016-11-08T14:43:21.151Z</time>
      </trkpt>
      <trkpt lat="48.77282" lon="2.27639">
        <ele>91.32</ele>
        <time>2016-11-08T14:43:30.455Z</time>
      </trkpt>
      <trkpt lat="48.7728" lon="2.27654">
        <ele>90.384</ele>
        <time>2016-11-08T14:43:39.521Z</time>
      </trkpt>
      <trkpt lat="48.7728" lon="2.27668">
        <ele>89.408</ele>
        <time>2016-11-08T14:43:47.377Z</time>
      </trkpt>
      <trkpt lat="48.77282" lon="2.27682">
        <ele>88.78</ele>
        <time>2016-11-08T14:43:54.478Z</time>
      </trkpt>
      <trkpt lat="48.77282" lon="2.27696">
        <ele>88.449</ele>
        <time>2016-11-08T14:44:01.603Z</time>
      </trkpt>
      <trkpt lat="48.77279" lon="2.27711">
        <ele>88.295</ele>
        <time>2016-11-08T14:44:09.891Z</time>
      </trkpt>
      <trkpt lat="48.77278" lon="2.27725">
        <ele>88.226</ele>
        <time>2016-11-08T14:44:17.909Z</time>
      </trkpt>
      <trkpt lat="48.77278" lon="2.27741">
        <ele>88.153</ele>
        <time>2016-11-08T14:44:25.502Z</time>
      </trkpt>
      <trkpt lat="48.77279" lon="2.27755">
        <ele>88.017</ele>
        <time>2016-11-08T14:44:31.745Z</time>
      </trkpt>
      <trkpt lat="48.7728" lon="2.2777">
        <ele>87.808</ele>
        <time>2016-11-08T14:44:38.531Z</time>
      </trkpt>
      <trkpt lat="48.7728" lon="2.27785">
        <ele>87.564</ele>
        <time>2016-11-08T14:44:46.482Z</time>
      </trkpt>
      <trkpt lat="48.77282" lon="2.27799">
        <ele>87.345</ele>
        <time>2016-11-08T14:44:54.084Z</time>
      </trkpt>
      <trkpt lat="48.77285" lon="2.27813">
        <ele>87.17</ele>
        <time>2016-11-08T14:45:02.138Z</time>
      </trkpt>
      <trkpt lat="48.77288" lon="2.27827">
        <ele>86.961</ele>
        <time>2016-11-08T14:45:09.841Z</time>
      </trkpt>
      <trkpt lat="48.77289" lon="2.27841">
        <ele>86.684</ele>
        <time>2016-11-08T14:45:17.862Z</time>
      </trkpt>
      <trkpt lat="48.7729" lon="2.27856">
        <ele>86.435</ele>
        <time>2016-11-08T14:45:26.511Z</time>
      </trkpt>
      <trkpt lat="48.77292" lon="2.2787">
        <ele>86.256</ele>
        <time>2016-11-08T14:45:33.528Z</time>
      </trkpt>
      <trkpt lat="48.77292" lon="2.27885">
        <ele>86.057</ele>
        <time>2016-11-08T14:45:41.213Z</time>
      </trkpt>
      <trkpt lat="48.77294" lon="2.27898">
        <ele>85.834</ele>
        <time>2016-11-08T14:45:49.084Z</time>
      </trkpt>
      <trkpt lat="48.77294" lon="2.27913">
        <ele>85.604</ele>
        <time>2016-11-08T14:45:56.441Z</time>
      </trkpt>
      <trkpt lat="48.77298" lon="2.27926">
        <ele>85.355</ele>
        <time>2016-11-08T14:46:03.418Z</time>
      </trkpt>
      <trkpt lat="48.77299" lon="2.27942">
        <ele>85.154</ele>
        <time>2016-11-08T14:46:10.955Z</time>
      </trkpt>
      <trkpt lat="48.77299" lon="2.27956">
        <ele>85.076</ele>
        <time>2016-11-08T14:46:18.256Z</time>
      </trkpt>
      <trkpt lat="48.77301" lon="2.27972">
        <ele>85.078</ele>
        <time>2016-11-08T14:46:25.504Z</time>
      </trkpt>
      <trkpt lat="48.77305" lon="2.27985">
        <ele>85.073</ele>
        <time>2016-11-08T14:46:32.447Z</time>
      </trkpt>
      <trkpt lat="48.77308" lon="2.27999">
        <ele>85.011</ele>
        <time>2016-11-08T14:46:39.217Z</time>
      </trkpt>
      <trkpt lat="48.77312" lon="2.28012">
        <ele>84.914</ele>
        <time>2016-11-08T14:46:46.659Z</time>
      </trkpt>
      <trkpt lat="48.77315" lon="2.28026">
        <ele>84.822</ele>
        <time>2016-11-08T14:46:53.727Z</time>
      </trkpt>
      <trkpt lat="48.77318" lon="2.28039">
        <ele>84.766</ele>
        <time>2016-11-08T14:47:00.167Z</time>
      </trkpt>
      <trkpt lat="48.7732" lon="2.28054">
        <ele>84.756</ele>
        <time>2016-11-08T14:47:07.259Z</time>
      </trkpt>
      <trkpt lat="48.77322" lon="2.28068">
        <ele>84.766</ele>
        <time>2016-11-08T14:47:14.000Z</time>
      </trkpt>
      <trkpt lat="48.77322" lon="2.28068">
        <ele>84.767</ele>
        <time>2016-11-08T14:47:20.000Z</time>
      </trkpt>
      <trkpt lat="48.77322" lon="2.28068">
        <ele>84.741</ele>
        <time>2016-11-08T14:47:39.042Z</time>
      </trkpt>
      <trkpt lat="48.77322" lon="2.28086">
        <ele>84.701</ele>
        <time>2016-11-08T14:47:56.754Z</time>
      </trkpt>
      <trkpt lat="48.77317" lon="2.28099">
        <ele>84.733</ele>
        <time>2016-11-08T14:48:05.391Z</time>
      </trkpt>
      <trkpt lat="48.77312" lon="2.28111">
        <ele>84.988</ele>
        <time>2016-11-08T14:48:12.327Z</time>
      </trkpt>
      <trkpt lat="48.77303" lon="2.28117">
        <ele>85.428</ele>
        <time>2016-11-08T14:48:19.108Z</time>
      </trkpt>
      <trkpt lat="48.77294" lon="2.28119">
        <ele>85.838</ele>
        <time>2016-11-08T14:48:25.881Z</time>
      </trkpt>
      <trkpt lat="48.77284" lon="2.28119">
        <ele>86.161</ele>
        <time>2016-11-08T14:48:32.816Z</time>
      </trkpt>
      <trkpt lat="48.77275" lon="2.28121">
        <ele>86.48</ele>
        <time>2016-11-08T14:48:40.304Z</time>
      </trkpt>
      <trkpt lat="48.77265" lon="2.28125">
        <ele>86.825</ele>
        <time>2016-11-08T14:48:48.714Z</time>
      </trkpt>
      <trkpt lat="48.77267" lon="2.2814">
        <ele>87.252</ele>
        <time>2016-11-08T14:48:57.396Z</time>
      </trkpt>
      <trkpt lat="48.77272" lon="2.28151">
        <ele>87.771</ele>
        <time>2016-11-08T14:49:05.058Z</time>
      </trkpt>
      <trkpt lat="48.77276" lon="2.28164">
        <ele>88.231</ele>
        <time>2016-11-08T14:49:12.993Z</time>
      </trkpt>
      <trkpt lat="48.77283" lon="2.28175">
        <ele>88.43</ele>
        <time>2016-11-08T14:49:21.571Z</time>
      </trkpt>
      <trkpt lat="48.77289" lon="2.28186">
        <ele>88.255</ele>
        <time>2016-11-08T14:49:29.847Z</time>
      </trkpt>
      <trkpt lat="48.77293" lon="2.28199">
        <ele>87.831</ele>
        <time>2016-11-08T14:49:37.934Z</time>
      </trkpt>
      <trkpt lat="48.77299" lon="2.2821">
        <ele>87.354</ele>
        <time>2016-11-08T14:49:45.497Z</time>
      </trkpt>
      <trkpt lat="48.77307" lon="2.28219">
        <ele>86.829</ele>
        <time>2016-11-08T14:49:52.328Z</time>
      </trkpt>
      <trkpt lat="48.77314" lon="2.28227">
        <ele>86.172</ele>
        <time>2016-11-08T14:49:59.294Z</time>
      </trkpt>
      <trkpt lat="48.77317" lon="2.28242">
        <ele>85.387</ele>
        <time>2016-11-08T14:50:07.266Z</time>
      </trkpt>
      <trkpt lat="48.77323" lon="2.28253">
        <ele>84.614</ele>
        <time>2016-11-08T14:50:15.260Z</time>
      </trkpt>
      <trkpt lat="48.77328" lon="2.28264">
        <ele>84.056</ele>
        <time>2016-11-08T14:50:22.767Z</time>
      </trkpt>
      <trkpt lat="48.77336" lon="2.28272">
        <ele>83.7</ele>
        <time>2016-11-08T14:50:30.248Z</time>
      </trkpt>
      <trkpt lat="48.77342" lon="2.28283">
        <ele>83.341</ele>
        <time>2016-11-08T14:50:37.830Z</time>
      </trkpt>
      <trkpt lat="48.77351" lon="2.28291">
        <ele>82.882</ele>
        <time>2016-11-08T14:50:46.183Z</time>
      </trkpt>
      <trkpt lat="48.77355" lon="2.28304">
        <ele>82.365</ele>
        <time>2016-11-08T14:50:54.585Z</time>
      </trkpt>
      <trkpt lat="48.7736" lon="2.28318">
        <ele>81.881</ele>
        <time>2016-11-08T14:51:03.549Z</time>
      </trkpt>
      <trkpt lat="48.77366" lon="2.2833">
        <ele>81.493</ele>
        <time>2016-11-08T14:51:11.732Z</time>
      </trkpt>
      <trkpt lat="48.77372" lon="2.28343">
        <ele>81.107</ele>
        <time>2016-11-08T14:51:19.599Z</time>
      </trkpt>
      <trkpt lat="48.77377" lon="2.28355">
        <ele>80.619</ele>
        <time>2016-11-08T14:51:27.405Z</time>
      </trkpt>
      <trkpt lat="48.77381" lon="2.28369">
        <ele>80.086</ele>
        <time>2016-11-08T14:51:35.396Z</time>
      </trkpt>
      <trkpt lat="48.77388" lon="2.28378">
        <ele>79.615</ele>
        <time>2016-11-08T14:51:43.209Z</time>
      </trkpt>
      <trkpt lat="48.77395" lon="2.28387">
        <ele>79.185</ele>
        <time>2016-11-08T14:51:50.902Z</time>
      </trkpt>
      <trkpt lat="48.77402" lon="2.28397">
        <ele>78.691</ele>
        <time>2016-11-08T14:51:58.024Z</time>
      </trkpt>
      <trkpt lat="48.77406" lon="2.28409">
        <ele>78.177</ele>
        <time>2016-11-08T14:52:05.039Z</time>
      </trkpt>
      <trkpt lat="48.77411" lon="2.2842">
        <ele>77.712</ele>
        <time>2016-11-08T14:52:12.128Z</time>
      </trkpt>
      <trkpt lat="48.77416" lon="2.28432">
        <ele>77.227</ele>
        <time>2016-11-08T14:52:19.554Z</time>
      </trkpt>
      <trkpt lat="48.77424" lon="2.28441">
        <ele>76.754</ele>
        <time>2016-11-08T14:52:28.049Z</time>
      </trkpt>
      <trkpt lat="48.77423" lon="2.28456">
        <ele>76.382</ele>
        <time>2016-11-08T14:52:37.192Z</time>
      </trkpt>
      <trkpt lat="48.77416" lon="2.28467">
        <ele>76.117</ele>
        <time>2016-11-08T14:52:45.979Z</time>
      </trkpt>
      <trkpt lat="48.77409" lon="2.28475">
        <ele>75.985</ele>
        <time>2016-11-08T14:52:53.785Z</time>
      </trkpt>
      <trkpt lat="48.77402" lon="2.28487">
        <ele>76.048</ele>
        <time>2016-11-08T14:53:02.737Z</time>
      </trkpt>
      <trkpt lat="48.77395" lon="2.28497">
        <ele>76.283</ele>
        <time>2016-11-08T14:53:10.413Z</time>
      </trkpt>
      <trkpt lat="48.77387" lon="2.28504">
        <ele>76.526</ele>
        <time>2016-11-08T14:53:17.872Z</time>
      </trkpt>
      <trkpt lat="48.77377" lon="2.28508">
        <ele>76.721</ele>
        <time>2016-11-08T14:53:25.712Z</time>
      </trkpt>
      <trkpt lat="48.77368" lon="2.2851">
        <ele>77.05</ele>
        <time>2016-11-08T14:53:33.100Z</time>
      </trkpt>
      <trkpt lat="48.77359" lon="2.28512">
        <ele>77.576</ele>
        <time>2016-11-08T14:53:39.716Z</time>
      </trkpt>
      <trkpt lat="48.77349" lon="2.28515">
        <ele>78.1</ele>
        <time>2016-11-08T14:53:47.092Z</time>
      </trkpt>
      <trkpt lat="48.7734" lon="2.28516">
        <ele>78.498</ele>
        <time>2016-11-08T14:53:54.586Z</time>
      </trkpt>
      <trkpt lat="48.7733" lon="2.28515">
        <ele>78.855</ele>
        <time>2016-11-08T14:54:02.508Z</time>
      </trkpt>
      <trkpt lat="48.77321" lon="2.28517">
        <ele>79.296</ele>
        <time>2016-11-08T14:54:10.148Z</time>
      </trkpt>
      <trkpt lat="48.77311" lon="2.28521">
        <ele>79.831</ele>
        <time>2016-11-08T14:54:17.459Z</time>
      </trkpt>
      <trkpt lat="48.77302" lon="2.28524">
        <ele>80.479</ele>
        <time>2016-11-08T14:54:25.404Z</time>
      </trkpt>
      <trkpt lat="48.77294" lon="2.28529">
        <ele>81.369</ele>
        <time>2016-11-08T14:54:33.498Z</time>
      </trkpt>
      <trkpt lat="48.77286" lon="2.28539">
        <ele>82.524</ele>
        <time>2016-11-08T14:54:42.048Z</time>
      </trkpt>
      <trkpt lat="48.77279" lon="2.28549">
        <ele>83.734</ele>
        <time>2016-11-08T14:54:50.702Z</time>
      </trkpt>
      <trkpt lat="48.7727" lon="2.28554">
        <ele>84.697</ele>
        <time>2016-11-08T14:54:58.478Z</time>
      </trkpt>
      <trkpt lat="48.77278" lon="2.28563">
        <ele>85.201</ele>
        <time>2016-11-08T14:55:08.025Z</time>
      </trkpt>
      <trkpt lat="48.77281" lon="2.28576">
        <ele>85.305</ele>
        <time>2016-11-08T14:55:20.869Z</time>
      </trkpt>
      <trkpt lat="48.77281" lon="2.2859">
        <ele>84.98</ele>
        <time>2016-11-08T14:55:31.710Z</time>
      </trkpt>
      <trkpt lat="48.77277" lon="2.28604">
        <ele>83.938</ele>
        <time>2016-11-08T14:55:41.000Z</time>
      </trkpt>
      <trkpt lat="48.77277" lon="2.28604">
        <ele>82.45</ele>
        <time>2016-11-08T14:55:47.000Z</time>
      </trkpt>
      <trkpt lat="48.77277" lon="2.28604">
        <ele>81.501</ele>
        <time>2016-11-08T14:55:53.680Z</time>
      </trkpt>
      <trkpt lat="48.77275" lon="2.2862">
        <ele>81.97</ele>
        <time>2016-11-08T14:56:07.962Z</time>
      </trkpt>
      <trkpt lat="48.77272" lon="2.28634">
        <ele>81.923</ele>
        <time>2016-11-08T14:56:17.537Z</time>
      </trkpt>
      <trkpt lat="48.77267" lon="2.28646">
        <ele>81.006</ele>
        <time>2016-11-08T14:56:26.335Z</time>
      </trkpt>
      <trkpt lat="48.77258" lon="2.28654">
        <ele>79.862</ele>
        <time>2016-11-08T14:56:33.707Z</time>
      </trkpt>
      <trkpt lat="48.77249" lon="2.28657">
        <ele>79.274</ele>
        <time>2016-11-08T14:56:40.000Z</time>
      </trkpt>
      <trkpt lat="48.77249" lon="2.28657">
        <ele>79.265</ele>
        <time>2016-11-08T14:56:46.000Z</time>
      </trkpt>
      <trkpt lat="48.77249" lon="2.28657">
        <ele>79.414</ele>
        <time>2016-11-08T14:56:49.309Z</time>
      </trkpt>
      <trkpt lat="48.77236" lon="2.28661">
        <ele>79.402</ele>
        <time>2016-11-08T14:57:12.849Z</time>
      </trkpt>
      <trkpt lat="48.77227" lon="2.28663">
        <ele>79.377</ele>
        <time>2016-11-08T14:57:26.124Z</time>
      </trkpt>
      <trkpt lat="48.77217" lon="2.28664">
        <ele>79.557</ele>
        <time>2016-11-08T14:57:37.014Z</time>
      </trkpt>
      <trkpt lat="48.77209" lon="2.28672">
        <ele>79.857</ele>
        <time>2016-11-08T14:57:46.442Z</time>
      </trkpt>
      <trkpt lat="48.772" lon="2.28678">
        <ele>80.157</ele>
        <time>2016-11-08T14:57:53.842Z</time>
      </trkpt>
      <trkpt lat="48.77191" lon="2.28678">
        <ele>80.535</ele>
        <time>2016-11-08T14:58:01.427Z</time>
      </trkpt>
      <trkpt lat="48.77181" lon="2.28683">
        <ele>80.994</ele>
        <time>2016-11-08T14:58:09.844Z</time>
      </trkpt>
      <trkpt lat="48.77173" lon="2.28688">
        <ele>81.379</ele>
        <time>2016-11-08T14:58:17.101Z</time>
      </trkpt>
      <trkpt lat="48.77162" lon="2.28692">
        <ele>81.64</ele>
        <time>2016-11-08T14:58:24.810Z</time>
      </trkpt>
      <trkpt lat="48.77153" lon="2.28694">
        <ele>81.961</ele>
        <time>2016-11-08T14:58:31.881Z</time>
      </trkpt>
      <trkpt lat="48.77144" lon="2.2869">
        <ele>82.42</ele>
        <time>2016-11-08T14:58:38.810Z</time>
      </trkpt>
      <trkpt lat="48.77134" lon="2.28687">
        <ele>82.883</ele>
        <time>2016-11-08T14:58:45.571Z</time>
      </trkpt>
      <trkpt lat="48.77125" lon="2.28689">
        <ele>83.258</ele>
        <time>2016-11-08T14:58:52.198Z</time>
      </trkpt>
      <trkpt lat="48.77116" lon="2.28694">
        <ele>83.534</ele>
        <time>2016-11-08T14:59:01.741Z</time>
      </trkpt>
      <trkpt lat="48.77109" lon="2.28704">
        <ele>83.727</ele>
        <time>2016-11-08T14:59:11.657Z</time>
      </trkpt>
      <trkpt lat="48.77098" lon="2.28704">
        <ele>83.91</ele>
        <time>2016-11-08T14:59:19.728Z</time>
      </trkpt>
      <trkpt lat="48.7709" lon="2.28712">
        <ele>84.141</ele>
        <time>2016-11-08T14:59:26.268Z</time>
      </trkpt>
      <trkpt lat="48.77083" lon="2.28721">
        <ele>84.444</ele>
        <time>2016-11-08T14:59:32.406Z</time>
      </trkpt>
      <trkpt lat="48.77075" lon="2.28729">
        <ele>84.794</ele>
        <time>2016-11-08T14:59:39.464Z</time>
      </trkpt>
      <trkpt lat="48.77065" lon="2.28734">
        <ele>85.09</ele>
        <time>2016-11-08T14:59:47.371Z</time>
      </trkpt>
      <trkpt lat="48.77056" lon="2.28737">
        <ele>85.243</ele>
        <time>2016-11-08T14:59:55.963Z</time>
      </trkpt>
      <trkpt lat="48.77047" lon="2.28744">
        <ele>85.234</ele>
        <time>2016-11-08T15:00:04.983Z</time>
      </trkpt>
      <trkpt lat="48.77038" lon="2.28749">
        <ele>85.113</ele>
        <time>2016-11-08T15:00:10.613Z</time>
      </trkpt>
      <trkpt lat="48.7703" lon="2.28756">
        <ele>84.941</ele>
        <time>2016-11-08T15:00:17.413Z</time>
      </trkpt>
      <trkpt lat="48.77024" lon="2.28768">
        <ele>84.789</ele>
        <time>2016-11-08T15:00:25.276Z</time>
      </trkpt>
      <trkpt lat="48.77016" lon="2.28779">
        <ele>84.706</ele>
        <time>2016-11-08T15:00:33.899Z</time>
      </trkpt>
      <trkpt lat="48.77008" lon="2.28785">
        <ele>84.686</ele>
        <time>2016-11-08T15:00:40.577Z</time>
      </trkpt>
      <trkpt lat="48.76999" lon="2.28787">
        <ele>84.696</ele>
        <time>2016-11-08T15:00:46.475Z</time>
      </trkpt>
      <trkpt lat="48.7699" lon="2.28793">
        <ele>84.687</ele>
        <time>2016-11-08T15:00:53.031Z</time>
      </trkpt>
      <trkpt lat="48.76981" lon="2.28801">
        <ele>84.617</ele>
        <time>2016-11-08T15:00:59.976Z</time>
      </trkpt>
      <trkpt lat="48.76972" lon="2.28806">
        <ele>84.48</ele>
        <time>2016-11-08T15:01:06.372Z</time>
      </trkpt>
      <trkpt lat="48.76964" lon="2.28813">
        <ele>84.3</ele>
        <time>2016-11-08T15:01:13.010Z</time>
      </trkpt>
      <trkpt lat="48.76958" lon="2.28825">
        <ele>84.125</ele>
        <time>2016-11-08T15:01:20.218Z</time>
      </trkpt>
      <trkpt lat="48.7695" lon="2.28831">
        <ele>83.975</ele>
        <time>2016-11-08T15:01:28.108Z</time>
      </trkpt>
      <trkpt lat="48.76941" lon="2.28837">
        <ele>83.83</ele>
        <time>2016-11-08T15:01:35.555Z</time>
      </trkpt>
      <trkpt lat="48.76932" lon="2.28843">
        <ele>83.683</ele>
        <time>2016-11-08T15:01:42.753Z</time>
      </trkpt>
      <trkpt lat="48.76924" lon="2.28851">
        <ele>83.547</ele>
        <time>2016-11-08T15:01:48.756Z</time>
      </trkpt>
      <trkpt lat="48.76917" lon="2.28858">
        <ele>83.447</ele>
        <time>2016-11-08T15:01:54.081Z</time>
      </trkpt>
      <trkpt lat="48.76909" lon="2.28866">
        <ele>83.39</ele>
        <time>2016-11-08T15:02:00.119Z</time>
      </trkpt>
      <trkpt lat="48.76899" lon="2.28871">
        <ele>83.324</ele>
        <time>2016-11-08T15:02:07.114Z</time>
      </trkpt>
      <trkpt lat="48.7689" lon="2.28878">
        <ele>83.229</ele>
        <time>2016-11-08T15:02:15.019Z</time>
      </trkpt>
      <trkpt lat="48.76881" lon="2.28884">
        <ele>83.147</ele>
        <time>2016-11-08T15:02:22.172Z</time>
      </trkpt>
      <trkpt lat="48.76873" lon="2.28891">
        <ele>83.061</ele>
        <time>2016-11-08T15:02:29.144Z</time>
      </trkpt>
      <trkpt lat="48.76864" lon="2.28896">
        <ele>82.92</ele>
        <time>2016-11-08T15:02:36.046Z</time>
      </trkpt>
      <trkpt lat="48.76855" lon="2.28903">
        <ele>82.754</ele>
        <time>2016-11-08T15:02:43.035Z</time>
      </trkpt>
      <trkpt lat="48.76848" lon="2.28913">
        <ele>82.597</ele>
        <time>2016-11-08T15:02:51.130Z</time>
      </trkpt>
      <trkpt lat="48.7684" lon="2.28918">
        <ele>82.458</ele>
        <time>2016-11-08T15:02:59.939Z</time>
      </trkpt>
      <trkpt lat="48.76832" lon="2.28926">
        <ele>82.334</ele>
        <time>2016-11-08T15:03:09.396Z</time>
      </trkpt>
      <trkpt lat="48.76823" lon="2.28931">
        <ele>82.161</ele>
        <time>2016-11-08T15:03:16.541Z</time>
      </trkpt>
      <trkpt lat="48.76813" lon="2.28937">
        <ele>81.898</ele>
        <time>2016-11-08T15:03:23.560Z</time>
      </trkpt>
      <trkpt lat="48.76806" lon="2.28945">
        <ele>81.586</ele>
        <time>2016-11-08T15:03:29.645Z</time>
      </trkpt>
      <trkpt lat="48.76798" lon="2.28954">
        <ele>81.246</ele>
        <time>2016-11-08T15:03:36.296Z</time>
      </trkpt>
      <trkpt lat="48.76789" lon="2.28961">
        <ele>80.881</ele>
        <time>2016-11-08T15:03:43.367Z</time>
      </trkpt>
      <trkpt lat="48.76781" lon="2.28968">
        <ele>80.532</ele>
        <time>2016-11-08T15:03:50.660Z</time>
      </trkpt>
      <trkpt lat="48.76772" lon="2.28973">
        <ele>80.242</ele>
        <time>2016-11-08T15:03:58.406Z</time>
      </trkpt>
      <trkpt lat="48.76764" lon="2.28981">
        <ele>79.939</ele>
        <time>2016-11-08T15:04:05.560Z</time>
      </trkpt>
      <trkpt lat="48.76756" lon="2.28989">
        <ele>79.558</ele>
        <time>2016-11-08T15:04:13.257Z</time>
      </trkpt>
      <trkpt lat="48.76747" lon="2.28997">
        <ele>79.138</ele>
        <time>2016-11-08T15:04:21.299Z</time>
      </trkpt>
      <trkpt lat="48.7674" lon="2.29007">
        <ele>78.707</ele>
        <time>2016-11-08T15:04:29.030Z</time>
      </trkpt>
      <trkpt lat="48.76732" lon="2.29013">
        <ele>78.26</ele>
        <time>2016-11-08T15:04:36.784Z</time>
      </trkpt>
      <trkpt lat="48.76723" lon="2.2902">
        <ele>77.822</ele>
        <time>2016-11-08T15:04:45.499Z</time>
      </trkpt>
      <trkpt lat="48.76714" lon="2.29023">
        <ele>77.427</ele>
        <time>2016-11-08T15:04:53.592Z</time>
      </trkpt>
      <trkpt lat="48.76706" lon="2.2903">
        <ele>77.112</ele>
        <time>2016-11-08T15:05:01.220Z</time>
      </trkpt>
      <trkpt lat="48.76699" lon="2.29039">
        <ele>76.843</ele>
        <time>2016-11-08T15:05:08.399Z</time>
      </trkpt>
      <trkpt lat="48.76691" lon="2.29048">
        <ele>76.568</ele>
        <time>2016-11-08T15:05:15.933Z</time>
      </trkpt>
      <trkpt lat="48.76683" lon="2.29054">
        <ele>76.327</ele>
        <time>2016-11-08T15:05:22.164Z</time>
      </trkpt>
      <trkpt lat="48.76674" lon="2.2906">
        <ele>76.228</ele>
        <time>2016-11-08T15:05:28.804Z</time>
      </trkpt>
      <trkpt lat="48.76664" lon="2.29062">
        <ele>76.293</ele>
        <time>2016-11-08T15:05:35.601Z</time>
      </trkpt>
      <trkpt lat="48.76657" lon="2.29072">
        <ele>76.408</ele>
        <time>2016-11-08T15:05:42.775Z</time>
      </trkpt>
      <trkpt lat="48.7665" lon="2.29082">
        <ele>76.461</ele>
        <time>2016-11-08T15:05:51.000Z</time>
      </trkpt>
      <trkpt lat="48.7665" lon="2.29082">
        <ele>76.44</ele>
        <time>2016-11-08T15:06:02.000Z</time>
      </trkpt>
      <trkpt lat="48.7665" lon="2.29082">
        <ele>76.392</ele>
        <time>2016-11-08T15:06:02.100Z</time>
      </trkpt>
      <trkpt lat="48.7664" lon="2.29086">
        <ele>76.359</ele>
        <time>2016-11-08T15:07:44.496Z</time>
      </trkpt>
      <trkpt lat="48.76631" lon="2.29093">
        <ele>76.335</ele>
        <time>2016-11-08T15:07:53.227Z</time>
      </trkpt>
      <trkpt lat="48.76623" lon="2.29101">
        <ele>76.304</ele>
        <time>2016-11-08T15:08:01.762Z</time>
      </trkpt>
      <trkpt lat="48.76615" lon="2.29108">
        <ele>76.234</ele>
        <time>2016-11-08T15:08:09.851Z</time>
      </trkpt>
      <trkpt lat="48.76606" lon="2.29114">
        <ele>76.063</ele>
        <time>2016-11-08T15:08:17.871Z</time>
      </trkpt>
      <trkpt lat="48.76597" lon="2.29121">
        <ele>75.76</ele>
        <time>2016-11-08T15:08:25.901Z</time>
      </trkpt>
      <trkpt lat="48.76589" lon="2.29127">
        <ele>75.383</ele>
        <time>2016-11-08T15:08:33.214Z</time>
      </trkpt>
      <trkpt lat="48.76581" lon="2.29134">
        <ele>74.989</ele>
        <time>2016-11-08T15:08:39.904Z</time>
      </trkpt>
      <trkpt lat="48.76573" lon="2.29143">
        <ele>74.561</ele>
        <time>2016-11-08T15:08:46.545Z</time>
      </trkpt>
      <trkpt lat="48.76565" lon="2.29151">
        <ele>74.047</ele>
        <time>2016-11-08T15:08:53.528Z</time>
      </trkpt>
      <trkpt lat="48.76556" lon="2.2916">
        <ele>73.468</ele>
        <time>2016-11-08T15:09:00.511Z</time>
      </trkpt>
      <trkpt lat="48.76548" lon="2.29166">
        <ele>72.889</ele>
        <time>2016-11-08T15:09:06.925Z</time>
      </trkpt>
      <trkpt lat="48.76539" lon="2.29172">
        <ele>72.323</ele>
        <time>2016-11-08T15:09:14.399Z</time>
      </trkpt>
      <trkpt lat="48.76532" lon="2.29181">
        <ele>71.747</ele>
        <time>2016-11-08T15:09:21.931Z</time>
      </trkpt>
      <trkpt lat="48.76523" lon="2.29189">
        <ele>71.217</ele>
        <time>2016-11-08T15:09:29.724Z</time>
      </trkpt>
      <trkpt lat="48.76514" lon="2.29195">
        <ele>70.791</ele>
        <time>2016-11-08T15:09:36.692Z</time>
      </trkpt>
      <trkpt lat="48.76505" lon="2.29202">
        <ele>70.475</ele>
        <time>2016-11-08T15:09:44.025Z</time>
      </trkpt>
      <trkpt lat="48.76496" lon="2.29207">
        <ele>70.231</ele>
        <time>2016-11-08T15:09:51.164Z</time>
      </trkpt>
      <trkpt lat="48.76488" lon="2.29212">
        <ele>69.979</ele>
        <time>2016-11-08T15:09:58.857Z</time>
      </trkpt>
      <trkpt lat="48.76479" lon="2.29218">
        <ele>69.708</ele>
        <time>2016-11-08T15:10:06.411Z</time>
      </trkpt>
      <trkpt lat="48.7647" lon="2.29226">
        <ele>69.523</ele>
        <time>2016-11-08T15:10:13.048Z</time>
      </trkpt>
      <trkpt lat="48.76462" lon="2.29233">
        <ele>69.523</ele>
        <time>2016-11-08T15:10:18.484Z</time>
      </trkpt>
      <trkpt lat="48.76453" lon="2.29241">
        <ele>69.702</ele>
        <time>2016-11-08T15:10:24.344Z</time>
      </trkpt>
      <trkpt lat="48.76445" lon="2.29249">
        <ele>69.928</ele>
        <time>2016-11-08T15:10:30.690Z</time>
      </trkpt>
      <trkpt lat="48.76438" lon="2.29257">
        <ele>70.085</ele>
        <time>2016-11-08T15:10:37.924Z</time>
      </trkpt>
      <trkpt lat="48.76429" lon="2.29263">
        <ele>70.157</ele>
        <time>2016-11-08T15:10:46.262Z</time>
      </trkpt>
      <trkpt lat="48.7642" lon="2.29269">
        <ele>70.163</ele>
        <time>2016-11-08T15:10:55.073Z</time>
      </trkpt>
      <trkpt lat="48.7641" lon="2.29269">
        <ele>70.146</ele>
        <time>2016-11-08T15:11:03.097Z</time>
      </trkpt>
      <trkpt lat="48.76402" lon="2.29274">
        <ele>70.139</ele>
        <time>2016-11-08T15:11:11.391Z</time>
      </trkpt>
      <trkpt lat="48.76395" lon="2.29283">
        <ele>70.152</ele>
        <time>2016-11-08T15:11:20.628Z</time>
      </trkpt>
      <trkpt lat="48.76386" lon="2.29289">
        <ele>70.261</ele>
        <time>2016-11-08T15:11:29.527Z</time>
      </trkpt>
      <trkpt lat="48.76382" lon="2.29302">
        <ele>70.514</ele>
        <time>2016-11-08T15:11:37.168Z</time>
      </trkpt>
      <trkpt lat="48.76373" lon="2.29309">
        <ele>70.794</ele>
        <time>2016-11-08T15:11:44.231Z</time>
      </trkpt>
      <trkpt lat="48.76365" lon="2.29316">
        <ele>71.019</ele>
        <time>2016-11-08T15:11:51.058Z</time>
      </trkpt>
      <trkpt lat="48.76355" lon="2.29322">
        <ele>71.216</ele>
        <time>2016-11-08T15:11:59.538Z</time>
      </trkpt>
      <trkpt lat="48.76348" lon="2.29329">
        <ele>71.401</ele>
        <time>2016-11-08T15:12:07.601Z</time>
      </trkpt>
      <trkpt lat="48.76339" lon="2.29337">
        <ele>71.596</ele>
        <time>2016-11-08T15:12:15.233Z</time>
      </trkpt>
      <trkpt lat="48.7633" lon="2.29342">
        <ele>71.83</ele>
        <time>2016-11-08T15:12:21.617Z</time>
      </trkpt>
      <trkpt lat="48.76322" lon="2.29349">
        <ele>72.204</ele>
        <time>2016-11-08T15:12:27.669Z</time>
      </trkpt>
      <trkpt lat="48.76315" lon="2.29357">
        <ele>72.737</ele>
        <time>2016-11-08T15:12:34.885Z</time>
      </trkpt>
      <trkpt lat="48.76306" lon="2.29354">
        <ele>73.22</ele>
        <time>2016-11-08T15:12:43.734Z</time>
      </trkpt>
      <trkpt lat="48.76299" lon="2.29365">
        <ele>73.488</ele>
        <time>2016-11-08T15:12:52.190Z</time>
      </trkpt>
      <trkpt lat="48.76291" lon="2.29374">
        <ele>73.622</ele>
        <time>2016-11-08T15:12:59.360Z</time>
      </trkpt>
      <trkpt lat="48.76283" lon="2.29381">
        <ele>73.73</ele>
        <time>2016-11-08T15:13:05.944Z</time>
      </trkpt>
      <trkpt lat="48.76275" lon="2.29387">
        <ele>73.854</ele>
        <time>2016-11-08T15:13:12.594Z</time>
      </trkpt>
      <trkpt lat="48.76269" lon="2.29398">
        <ele>74.006</ele>
        <time>2016-11-08T15:13:19.332Z</time>
      </trkpt>
      <trkpt lat="48.76262" lon="2.29408">
        <ele>74.175</ele>
        <time>2016-11-08T15:13:26.491Z</time>
      </trkpt>
      <trkpt lat="48.76253" lon="2.29415">
        <ele>74.317</ele>
        <time>2016-11-08T15:13:33.668Z</time>
      </trkpt>
      <trkpt lat="48.76245" lon="2.29422">
        <ele>74.431</ele>
        <time>2016-11-08T15:13:40.910Z</time>
      </trkpt>
      <trkpt lat="48.76238" lon="2.29431">
        <ele>74.531</ele>
        <time>2016-11-08T15:13:47.517Z</time>
      </trkpt>
      <trkpt lat="48.76228" lon="2.29436">
        <ele>74.598</ele>
        <time>2016-11-08T15:13:54.806Z</time>
      </trkpt>
      <trkpt lat="48.76219" lon="2.29442">
        <ele>74.627</ele>
        <time>2016-11-08T15:14:02.023Z</time>
      </trkpt>
      <trkpt lat="48.7621" lon="2.29449">
        <ele>74.642</ele>
        <time>2016-11-08T15:14:09.008Z</time>
      </trkpt>
      <trkpt lat="48.762" lon="2.29449">
        <ele>74.651</ele>
        <time>2016-11-08T15:14:15.858Z</time>
      </trkpt>
      <trkpt lat="48.76191" lon="2.29447">
        <ele>74.64</ele>
        <time>2016-11-08T15:14:22.662Z</time>
      </trkpt>
      <trkpt lat="48.76181" lon="2.29444">
        <ele>74.605</ele>
        <time>2016-11-08T15:14:29.452Z</time>
      </trkpt>
      <trkpt lat="48.76173" lon="2.29448">
        <ele>74.622</ele>
        <time>2016-11-08T15:14:36.889Z</time>
      </trkpt>
      <trkpt lat="48.76167" lon="2.29459">
        <ele>74.749</ele>
        <time>2016-11-08T15:14:44.529Z</time>
      </trkpt>
      <trkpt lat="48.76164" lon="2.29473">
        <ele>74.911</ele>
        <time>2016-11-08T15:14:52.317Z</time>
      </trkpt>
      <trkpt lat="48.76161" lon="2.29486">
        <ele>74.989</ele>
        <time>2016-11-08T15:14:59.430Z</time>
      </trkpt>
      <trkpt lat="48.76155" lon="2.29497">
        <ele>74.946</ele>
        <time>2016-11-08T15:15:06.359Z</time>
      </trkpt>
      <trkpt lat="48.76147" lon="2.29502">
        <ele>74.821</ele>
        <time>2016-11-08T15:15:13.274Z</time>
      </trkpt>
      <trkpt lat="48.76139" lon="2.2951">
        <ele>74.697</ele>
        <time>2016-11-08T15:15:20.756Z</time>
      </trkpt>
      <trkpt lat="48.7613" lon="2.29514">
        <ele>74.717</ele>
        <time>2016-11-08T15:15:28.533Z</time>
      </trkpt>
      <trkpt lat="48.76127" lon="2.29501">
        <ele>74.935</ele>
        <time>2016-11-08T15:15:36.964Z</time>
      </trkpt>
      <trkpt lat="48.76129" lon="2.29487">
        <ele>75.239</ele>
        <time>2016-11-08T15:15:44.971Z</time>
      </trkpt>
      <trkpt lat="48.76129" lon="2.29471">
        <ele>75.545</ele>
        <time>2016-11-08T15:15:52.982Z</time>
      </trkpt>
      <trkpt lat="48.76128" lon="2.29458">
        <ele>75.857</ele>
        <time>2016-11-08T15:16:00.618Z</time>
      </trkpt>
      <trkpt lat="48.76126" lon="2.29443">
        <ele>76.232</ele>
        <time>2016-11-08T15:16:09.248Z</time>
      </trkpt>
      <trkpt lat="48.76124" lon="2.29429">
        <ele>76.741</ele>
        <time>2016-11-08T15:16:18.035Z</time>
      </trkpt>
      <trkpt lat="48.76124" lon="2.29413">
        <ele>77.381</ele>
        <time>2016-11-08T15:16:27.062Z</time>
      </trkpt>
      <trkpt lat="48.76122" lon="2.294">
        <ele>78.052</ele>
        <time>2016-11-08T15:16:34.621Z</time>
      </trkpt>
      <trkpt lat="48.76122" lon="2.29385">
        <ele>78.614</ele>
        <time>2016-11-08T15:16:41.724Z</time>
      </trkpt>
      <trkpt lat="48.76122" lon="2.2937">
        <ele>78.988</ele>
        <time>2016-11-08T15:16:49.198Z</time>
      </trkpt>
      <trkpt lat="48.76121" lon="2.29356">
        <ele>79.292</ele>
        <time>2016-11-08T15:16:56.999Z</time>
      </trkpt>
      <trkpt lat="48.76121" lon="2.29356">
        <ele>79.621</ele>
        <time>2016-11-08T15:16:59.999Z</time>
      </trkpt>
      <trkpt lat="48.76121" lon="2.29356">
        <ele>79.829</ele>
        <time>2016-11-08T15:17:06.711Z</time>
      </trkpt>
      <trkpt lat="48.76122" lon="2.29342">
        <ele>79.636</ele>
        <time>2016-11-08T15:17:22.845Z</time>
      </trkpt>
      <trkpt lat="48.76122" lon="2.29327">
        <ele>79.671</ele>
        <time>2016-11-08T15:17:31.787Z</time>
      </trkpt>
      <trkpt lat="48.76122" lon="2.29311">
        <ele>80.067</ele>
        <time>2016-11-08T15:17:39.805Z</time>
      </trkpt>
      <trkpt lat="48.76122" lon="2.29297">
        <ele>80.692</ele>
        <time>2016-11-08T15:17:47.849Z</time>
      </trkpt>
      <trkpt lat="48.76123" lon="2.29282">
        <ele>81.238</ele>
        <time>2016-11-08T15:17:56.319Z</time>
      </trkpt>
      <trkpt lat="48.76123" lon="2.29268">
        <ele>81.579</ele>
        <time>2016-11-08T15:18:03.627Z</time>
      </trkpt>
      <trkpt lat="48.76123" lon="2.29254">
        <ele>81.779</ele>
        <time>2016-11-08T15:18:11.275Z</time>
      </trkpt>
      <trkpt lat="48.76124" lon="2.2924">
        <ele>81.91</ele>
        <time>2016-11-08T15:18:19.401Z</time>
      </trkpt>
      <trkpt lat="48.76125" lon="2.29226">
        <ele>82.034</ele>
        <time>2016-11-08T15:18:27.098Z</time>
      </trkpt>
      <trkpt lat="48.76127" lon="2.29212">
        <ele>82.211</ele>
        <time>2016-11-08T15:18:35.143Z</time>
      </trkpt>
      <trkpt lat="48.7613" lon="2.29197">
        <ele>82.495</ele>
        <time>2016-11-08T15:18:42.973Z</time>
      </trkpt>
      <trkpt lat="48.76132" lon="2.29183">
        <ele>82.903</ele>
        <time>2016-11-08T15:18:51.041Z</time>
      </trkpt>
      <trkpt lat="48.76136" lon="2.29169">
        <ele>83.286</ele>
        <time>2016-11-08T15:18:58.817Z</time>
      </trkpt>
      <trkpt lat="48.76139" lon="2.29155">
        <ele>83.534</ele>
        <time>2016-11-08T15:19:08.257Z</time>
      </trkpt>
      <trkpt lat="48.76134" lon="2.29142">
        <ele>83.743</ele>
        <time>2016-11-08T15:19:17.647Z</time>
      </trkpt>
      <trkpt lat="48.76125" lon="2.29144">
        <ele>83.969</ele>
        <time>2016-11-08T15:19:26.381Z</time>
      </trkpt>
      <trkpt lat="48.76119" lon="2.29155">
        <ele>84.183</ele>
        <time>2016-11-08T15:19:33.780Z</time>
      </trkpt>
      <trkpt lat="48.76116" lon="2.29168">
        <ele>84.341</ele>
        <time>2016-11-08T15:19:40.627Z</time>
      </trkpt>
      <trkpt lat="48.76114" lon="2.29182">
        <ele>84.4</ele>
        <time>2016-11-08T15:19:47.437Z</time>
      </trkpt>
      <trkpt lat="48.76112" lon="2.29196">
        <ele>84.334</ele>
        <time>2016-11-08T15:19:54.512Z</time>
      </trkpt>
      <trkpt lat="48.76111" lon="2.29211">
        <ele>84.119</ele>
        <time>2016-11-08T15:20:02.258Z</time>
      </trkpt>
      <trkpt lat="48.76109" lon="2.29226">
        <ele>83.801</ele>
        <time>2016-11-08T15:20:10.078Z</time>
      </trkpt>
      <trkpt lat="48.76107" lon="2.2924">
        <ele>83.49</ele>
        <time>2016-11-08T15:20:17.890Z</time>
      </trkpt>
      <trkpt lat="48.76105" lon="2.29254">
        <ele>83.235</ele>
        <time>2016-11-08T15:20:25.154Z</time>
      </trkpt>
      <trkpt lat="48.76103" lon="2.29269">
        <ele>82.995</ele>
        <time>2016-11-08T15:20:32.773Z</time>
      </trkpt>
      <trkpt lat="48.76101" lon="2.29284">
        <ele>82.753</ele>
        <time>2016-11-08T15:20:40.837Z</time>
      </trkpt>
      <trkpt lat="48.76099" lon="2.29297">
        <ele>82.52</ele>
        <time>2016-11-08T15:20:48.426Z</time>
      </trkpt>
      <trkpt lat="48.76096" lon="2.29311">
        <ele>82.299</ele>
        <time>2016-11-08T15:20:56.437Z</time>
      </trkpt>
      <trkpt lat="48.76093" lon="2.29326">
        <ele>82.12</ele>
        <time>2016-11-08T15:21:04.399Z</time>
      </trkpt>
      <trkpt lat="48.76089" lon="2.29339">
        <ele>81.988</ele>
        <time>2016-11-08T15:21:12.309Z</time>
      </trkpt>
      <trkpt lat="48.76084" lon="2.29352">
        <ele>81.824</ele>
        <time>2016-11-08T15:21:20.132Z</time>
      </trkpt>
      <trkpt lat="48.7608" lon="2.29363">
        <ele>81.599</ele>
        <time>2016-11-08T15:21:27.165Z</time>
      </trkpt>
      <trkpt lat="48.76074" lon="2.29376">
        <ele>81.387</ele>
        <time>2016-11-08T15:21:34.204Z</time>
      </trkpt>
      <trkpt lat="48.76069" lon="2.29388">
        <ele>81.251</ele>
        <time>2016-11-08T15:21:41.388Z</time>
      </trkpt>
      <trkpt lat="48.76066" lon="2.29401">
        <ele>81.158</ele>
        <time>2016-11-08T15:21:49.187Z</time>
      </trkpt>
      <trkpt lat="48.76062" lon="2.29414">
        <ele>81.019</ele>
        <time>2016-11-08T15:21:58.086Z</time>
      </trkpt>
      <trkpt lat="48.76058" lon="2.29427">
        <ele>80.781</ele>
        <time>2016-11-08T15:22:07.947Z</time>
      </trkpt>
      <trkpt lat="48.76052" lon="2.29437">
        <ele>80.506</ele>
        <time>2016-11-08T15:22:16.172Z</time>
      </trkpt>
      <trkpt lat="48.76042" lon="2.2944">
        <ele>80.248</ele>
        <time>2016-11-08T15:22:24.414Z</time>
      </trkpt>
      <trkpt lat="48.76033" lon="2.29439">
        <ele>80.021</ele>
        <time>2016-11-08T15:22:32.012Z</time>
      </trkpt>
      <trkpt lat="48.76024" lon="2.29442">
        <ele>79.874</ele>
        <time>2016-11-08T15:22:40.261Z</time>
      </trkpt>
      <trkpt lat="48.76014" lon="2.29443">
        <ele>79.865</ele>
        <time>2016-11-08T15:22:49.249Z</time>
      </trkpt>
      <trkpt lat="48.76005" lon="2.29446">
        <ele>79.962</ele>
        <time>2016-11-08T15:22:57.874Z</time>
      </trkpt>
      <trkpt lat="48.75995" lon="2.29447">
        <ele>80.119</ele>
        <time>2016-11-08T15:23:06.048Z</time>
      </trkpt>
      <trkpt lat="48.75986" lon="2.29448">
        <ele>80.301</ele>
        <time>2016-11-08T15:23:13.822Z</time>
      </trkpt>
      <trkpt lat="48.75976" lon="2.29449">
        <ele>80.456</ele>
        <time>2016-11-08T15:23:21.935Z</time>
      </trkpt>
      <trkpt lat="48.75967" lon="2.29449">
        <ele>80.541</ele>
        <time>2016-11-08T15:23:29.818Z</time>
      </trkpt>
      <trkpt lat="48.75957" lon="2.2945">
        <ele>80.622</ele>
        <time>2016-11-08T15:23:37.545Z</time>
      </trkpt>
      <trkpt lat="48.75948" lon="2.29449">
        <ele>80.783</ele>
        <time>2016-11-08T15:23:45.420Z</time>
      </trkpt>
      <trkpt lat="48.75938" lon="2.29449">
        <ele>81.038</ele>
        <time>2016-11-08T15:23:53.310Z</time>
      </trkpt>
      <trkpt lat="48.75929" lon="2.29452">
        <ele>81.325</ele>
        <time>2016-11-08T15:24:01.045Z</time>
      </trkpt>
      <trkpt lat="48.7592" lon="2.29455">
        <ele>81.578</ele>
        <time>2016-11-08T15:24:09.564Z</time>
      </trkpt>
      <trkpt lat="48.75911" lon="2.29462">
        <ele>81.775</ele>
        <time>2016-11-08T15:24:18.116Z</time>
      </trkpt>
      <trkpt lat="48.75902" lon="2.29467">
        <ele>81.926</ele>
        <time>2016-11-08T15:24:25.955Z</time>
      </trkpt>
      <trkpt lat="48.75893" lon="2.29473">
        <ele>82.057</ele>
        <time>2016-11-08T15:24:33.846Z</time>
      </trkpt>
      <trkpt lat="48.75884" lon="2.29478">
        <ele>82.189</ele>
        <time>2016-11-08T15:24:41.848Z</time>
      </trkpt>
      <trkpt lat="48.75877" lon="2.29488">
        <ele>82.292</ele>
        <time>2016-11-08T15:24:50.195Z</time>
      </trkpt>
      <trkpt lat="48.7587" lon="2.29498">
        <ele>82.284</ele>
        <time>2016-11-08T15:24:58.902Z</time>
      </trkpt>
      <trkpt lat="48.75863" lon="2.29509">
        <ele>82.085</ele>
        <time>2016-11-08T15:25:07.376Z</time>
      </trkpt>
      <trkpt lat="48.7586" lon="2.29524">
        <ele>81.756</ele>
        <time>2016-11-08T15:25:16.513Z</time>
      </trkpt>
      <trkpt lat="48.75852" lon="2.29534">
        <ele>81.442</ele>
        <time>2016-11-08T15:25:25.178Z</time>
      </trkpt>
      <trkpt lat="48.75845" lon="2.29541">
        <ele>81.208</ele>
        <time>2016-11-08T15:25:32.703Z</time>
      </trkpt>
      <trkpt lat="48.75838" lon="2.29552">
        <ele>81.065</ele>
        <time>2016-11-08T15:25:39.713Z</time>
      </trkpt>
      <trkpt lat="48.75831" lon="2.29563">
        <ele>80.984</ele>
        <time>2016-11-08T15:25:47.703Z</time>
      </trkpt>
      <trkpt lat="48.75822" lon="2.29568">
        <ele>80.861</ele>
        <time>2016-11-08T15:25:55.727Z</time>
      </trkpt>
      <trkpt lat="48.75816" lon="2.29579">
        <ele>80.635</ele>
        <time>2016-11-08T15:26:03.687Z</time>
      </trkpt>
      <trkpt lat="48.7581" lon="2.2959">
        <ele>80.391</ele>
        <time>2016-11-08T15:26:11.068Z</time>
      </trkpt>
      <trkpt lat="48.75803" lon="2.296">
        <ele>80.202</ele>
        <time>2016-11-08T15:26:18.854Z</time>
      </trkpt>
      <trkpt lat="48.75795" lon="2.29609">
        <ele>79.993</ele>
        <time>2016-11-08T15:26:26.941Z</time>
      </trkpt>
      <trkpt lat="48.75787" lon="2.29619">
        <ele>79.712</ele>
        <time>2016-11-08T15:26:35.063Z</time>
      </trkpt>
      <trkpt lat="48.7578" lon="2.29629">
        <ele>79.432</ele>
        <time>2016-11-08T15:26:42.460Z</time>
      </trkpt>
      <trkpt lat="48.75772" lon="2.29638">
        <ele>79.162</ele>
        <time>2016-11-08T15:26:49.897Z</time>
      </trkpt>
      <trkpt lat="48.75766" lon="2.2965">
        <ele>78.853</ele>
        <time>2016-11-08T15:26:57.342Z</time>
      </trkpt>
      <trkpt lat="48.75758" lon="2.29658">
        <ele>78.524</ele>
        <time>2016-11-08T15:27:05.255Z</time>
      </trkpt>
      <trkpt lat="48.7575" lon="2.29664">
        <ele>78.18</ele>
        <time>2016-11-08T15:27:13.380Z</time>
      </trkpt>
      <trkpt lat="48.75741" lon="2.2967">
        <ele>77.801</ele>
        <time>2016-11-08T15:27:21.178Z</time>
      </trkpt>
      <trkpt lat="48.75735" lon="2.29681">
        <ele>77.428</ele>
        <time>2016-11-08T15:27:28.744Z</time>
      </trkpt>
      <trkpt lat="48.75729" lon="2.29693">
        <ele>77.11</ele>
        <time>2016-11-08T15:27:36.384Z</time>
      </trkpt>
      <trkpt lat="48.75722" lon="2.29702">
        <ele>76.824</ele>
        <time>2016-11-08T15:27:43.791Z</time>
      </trkpt>
      <trkpt lat="48.75714" lon="2.29712">
        <ele>76.508</ele>
        <time>2016-11-08T15:27:51.970Z</time>
      </trkpt>
      <trkpt lat="48.75707" lon="2.29721">
        <ele>76.158</ele>
        <time>2016-11-08T15:28:00.086Z</time>
      </trkpt>
      <trkpt lat="48.757" lon="2.29732">
        <ele>75.79</ele>
        <time>2016-11-08T15:28:08.183Z</time>
      </trkpt>
      <trkpt lat="48.75692" lon="2.29739">
        <ele>75.423</ele>
        <time>2016-11-08T15:28:15.552Z</time>
      </trkpt>
      <trkpt lat="48.75685" lon="2.29749">
        <ele>75.074</ele>
        <time>2016-11-08T15:28:23.355Z</time>
      </trkpt>
      <trkpt lat="48.75679" lon="2.29759">
        <ele>74.736</ele>
        <time>2016-11-08T15:28:30.417Z</time>
      </trkpt>
      <trkpt lat="48.75671" lon="2.29767">
        <ele>74.432</ele>
        <time>2016-11-08T15:28:37.328Z</time>
      </trkpt>
      <trkpt lat="48.75665" lon="2.29778">
        <ele>74.175</ele>
        <time>2016-11-08T15:28:44.264Z</time>
      </trkpt>
      <trkpt lat="48.75663" lon="2.29792">
        <ele>73.908</ele>
        <time>2016-11-08T15:28:51.916Z</time>
      </trkpt>
      <trkpt lat="48.75656" lon="2.29802">
        <ele>73.618</ele>
        <time>2016-11-08T15:29:00.169Z</time>
      </trkpt>
      <trkpt lat="48.75648" lon="2.29809">
        <ele>73.247</ele>
        <time>2016-11-08T15:29:08.404Z</time>
      </trkpt>
      <trkpt lat="48.75643" lon="2.29821">
        <ele>72.736</ele>
        <time>2016-11-08T15:29:15.999Z</time>
      </trkpt>
      <trkpt lat="48.75643" lon="2.29821">
        <ele>72.239</ele>
        <time>2016-11-08T15:29:18.999Z</time>
      </trkpt>
      <trkpt lat="48.75643" lon="2.29821">
        <ele>71.981</ele>
        <time>2016-11-08T15:29:31.711Z</time>
      </trkpt>
      <trkpt lat="48.75634" lon="2.29828">
        <ele>72.07</ele>
        <time>2016-11-08T15:29:49.257Z</time>
      </trkpt>
      <trkpt lat="48.75625" lon="2.29826">
        <ele>72.07</ele>
        <time>2016-11-08T15:29:59.581Z</time>
      </trkpt>
      <trkpt lat="48.75615" lon="2.29823">
        <ele>71.859</ele>
        <time>2016-11-08T15:30:07.768Z</time>
      </trkpt>
      <trkpt lat="48.75607" lon="2.29821">
        <ele>71.521</ele>
        <time>2016-11-08T15:30:14.143Z</time>
      </trkpt>
      <trkpt lat="48.75598" lon="2.29819">
        <ele>71.237</ele>
        <time>2016-11-08T15:30:20.811Z</time>
      </trkpt>
      <trkpt lat="48.75588" lon="2.29817">
        <ele>71.063</ele>
        <time>2016-11-08T15:30:28.194Z</time>
      </trkpt>
      <trkpt lat="48.75579" lon="2.29818">
        <ele>70.956</ele>
        <time>2016-11-08T15:30:35.744Z</time>
      </trkpt>
      <trkpt lat="48.75569" lon="2.29819">
        <ele>70.866</ele>
        <time>2016-11-08T15:30:43.498Z</time>
      </trkpt>
      <trkpt lat="48.75559" lon="2.29818">
        <ele>70.748</ele>
        <time>2016-11-08T15:30:51.524Z</time>
      </trkpt>
      <trkpt lat="48.7555" lon="2.29817">
        <ele>70.579</ele>
        <time>2016-11-08T15:30:59.374Z</time>
      </trkpt>
      <trkpt lat="48.75542" lon="2.29828">
        <ele>70.306</ele>
        <time>2016-11-08T15:31:08.031Z</time>
      </trkpt>
      <trkpt lat="48.75537" lon="2.2984">
        <ele>69.735</ele>
        <time>2016-11-08T15:31:15.702Z</time>
      </trkpt>
      <trkpt lat="48.75533" lon="2.29852">
        <ele>68.848</ele>
        <time>2016-11-08T15:31:23.055Z</time>
      </trkpt>
      <trkpt lat="48.75528" lon="2.29866">
        <ele>68.015</ele>
        <time>2016-11-08T15:31:31.236Z</time>
      </trkpt>
      <trkpt lat="48.75526" lon="2.29879">
        <ele>67.547</ele>
        <time>2016-11-08T15:31:39.101Z</time>
      </trkpt>
      <trkpt lat="48.75525" lon="2.29894">
        <ele>67.423</ele>
        <time>2016-11-08T15:31:48.367Z</time>
      </trkpt>
      <trkpt lat="48.75526" lon="2.29909">
        <ele>67.486</ele>
        <time>2016-11-08T15:31:57.640Z</time>
      </trkpt>
      <trkpt lat="48.7552" lon="2.29919">
        <ele>67.582</ele>
        <time>2016-11-08T15:32:06.749Z</time>
      </trkpt>
      <trkpt lat="48.75516" lon="2.29931">
        <ele>67.3</ele>
        <time>2016-11-08T15:32:17.268Z</time>
      </trkpt>
      <trkpt lat="48.75515" lon="2.29945">
        <ele>66.395</ele>
        <time>2016-11-08T15:32:25.735Z</time>
      </trkpt>
      <trkpt lat="48.75512" lon="2.2996">
        <ele>65.326</ele>
        <time>2016-11-08T15:32:33.512Z</time>
      </trkpt>
      <trkpt lat="48.75508" lon="2.29972">
        <ele>64.555</ele>
        <time>2016-11-08T15:32:40.895Z</time>
      </trkpt>
      <trkpt lat="48.75499" lon="2.29973">
        <ele>64.047</ele>
        <time>2016-11-08T15:32:48.825Z</time>
      </trkpt>
      <trkpt lat="48.7549" lon="2.29967">
        <ele>63.734</ele>
        <time>2016-11-08T15:32:56.428Z</time>
      </trkpt>
      <trkpt lat="48.75481" lon="2.29965">
        <ele>63.585</ele>
        <time>2016-11-08T15:33:04.465Z</time>
      </trkpt>
      <trkpt lat="48.7547" lon="2.29962">
        <ele>63.547</ele>
        <time>2016-11-08T15:33:12.989Z</time>
      </trkpt>
      <trkpt lat="48.75462" lon="2.29957">
        <ele>63.498</ele>
        <time>2016-11-08T15:33:20.000Z</time>
      </trkpt>
      <trkpt lat="48.75462" lon="2.29957">
        <ele>63.354</ele>
        <time>2016-11-08T15:33:27.000Z</time>
      </trkpt>
      <trkpt lat="48.75462" lon="2.29957">
        <ele>63.217</ele>
        <time>2016-11-08T15:33:30.236Z</time>
      </trkpt>
      <trkpt lat="48.75455" lon="2.29966">
        <ele>63.193</ele>
        <time>2016-11-08T15:33:47.240Z</time>
      </trkpt>
      <trkpt lat="48.75453" lon="2.2998">
        <ele>63.025</ele>
        <time>2016-11-08T15:33:58.035Z</time>
      </trkpt>
      <trkpt lat="48.7545" lon="2.29994">
        <ele>62.465</ele>
        <time>2016-11-08T15:34:07.120Z</time>
      </trkpt>
      <trkpt lat="48.75448" lon="2.30008">
        <ele>61.745</ele>
        <time>2016-11-08T15:34:15.230Z</time>
      </trkpt>
      <trkpt lat="48.75445" lon="2.30021">
        <ele>61.245</ele>
        <time>2016-11-08T15:34:22.771Z</time>
      </trkpt>
      <trkpt lat="48.75443" lon="2.30035">
        <ele>61.017</ele>
        <time>2016-11-08T15:34:30.863Z</time>
      </trkpt>
      <trkpt lat="48.75444" lon="2.30049">
        <ele>60.944</ele>
        <time>2016-11-08T15:34:38.783Z</time>
      </trkpt>
      <trkpt lat="48.75452" lon="2.30058">
        <ele>60.931</ele>
        <time>2016-11-08T15:34:48.013Z</time>
      </trkpt>
      <trkpt lat="48.75457" lon="2.30069">
        <ele>61.131</ele>
        <time>2016-11-08T15:34:57.020Z</time>
      </trkpt>
      <trkpt lat="48.75451" lon="2.30081">
        <ele>61.635</ele>
        <time>2016-11-08T15:35:06.183Z</time>
      </trkpt>
      <trkpt lat="48.75444" lon="2.30092">
        <ele>62.109</ele>
        <time>2016-11-08T15:35:14.361Z</time>
      </trkpt>
      <trkpt lat="48.75436" lon="2.30101">
        <ele>62.058</ele>
        <time>2016-11-08T15:35:23.000Z</time>
      </trkpt>
      <trkpt lat="48.75436" lon="2.30101">
        <ele>61.489</ele>
        <time>2016-11-08T15:35:32.000Z</time>
      </trkpt>
      <trkpt lat="48.75436" lon="2.30101">
        <ele>60.987</ele>
        <time>2016-11-08T15:35:32.100Z</time>
      </trkpt>
      <trkpt lat="48.75436" lon="2.30101">
        <ele>61.202</ele>
        <time>2016-11-08T15:35:49.000Z</time>
      </trkpt>
      <trkpt lat="48.75436" lon="2.30101">
        <ele>61.344</ele>
        <time>2016-11-08T15:53:06.163Z</time>
      </trkpt>
      <trkpt lat="48.75449" lon="2.30112">
        <ele>61.279</ele>
        <time>2016-11-08T15:54:35.434Z</time>
      </trkpt>
      <trkpt lat="48.7544" lon="2.30109">
        <ele>60.536</ele>
        <time>2016-11-08T15:54:44.295Z</time>
      </trkpt>
      <trkpt lat="48.75431" lon="2.30105">
        <ele>58.938</ele>
        <time>2016-11-08T15:54:52.349Z</time>
      </trkpt>
      <trkpt lat="48.75424" lon="2.30096">
        <ele>57.402</ele>
        <time>2016-11-08T15:54:59.458Z</time>
      </trkpt>
      <trkpt lat="48.75415" lon="2.30087">
        <ele>56.718</ele>
        <time>2016-11-08T15:55:07.046Z</time>
      </trkpt>
      <trkpt lat="48.75406" lon="2.30084">
        <ele>56.648</ele>
        <time>2016-11-08T15:55:14.423Z</time>
      </trkpt>
      <trkpt lat="48.75396" lon="2.30078">
        <ele>56.765</ele>
        <time>2016-11-08T15:55:23.295Z</time>
      </trkpt>
      <trkpt lat="48.75388" lon="2.30072">
        <ele>56.825</ele>
        <time>2016-11-08T15:55:31.208Z</time>
      </trkpt>
      <trkpt lat="48.75378" lon="2.30069">
        <ele>56.78</ele>
        <time>2016-11-08T15:55:39.700Z</time>
      </trkpt>
      <trkpt lat="48.75368" lon="2.30068">
        <ele>56.671</ele>
        <time>2016-11-08T15:55:46.842Z</time>
      </trkpt>
      <trkpt lat="48.7536" lon="2.30062">
        <ele>56.565</ele>
        <time>2016-11-08T15:55:54.433Z</time>
      </trkpt>
      <trkpt lat="48.7535" lon="2.30062">
        <ele>56.409</ele>
        <time>2016-11-08T15:56:01.825Z</time>
      </trkpt>
      <trkpt lat="48.75341" lon="2.3006">
        <ele>56.09</ele>
        <time>2016-11-08T15:56:09.020Z</time>
      </trkpt>
      <trkpt lat="48.75331" lon="2.30059">
        <ele>55.645</ele>
        <time>2016-11-08T15:56:17.978Z</time>
      </trkpt>
      <trkpt lat="48.75323" lon="2.30052">
        <ele>55.193</ele>
        <time>2016-11-08T15:56:27.516Z</time>
      </trkpt>
      <trkpt lat="48.75314" lon="2.30048">
        <ele>54.811</ele>
        <time>2016-11-08T15:56:36.594Z</time>
      </trkpt>
      <trkpt lat="48.75304" lon="2.30047">
        <ele>54.547</ele>
        <time>2016-11-08T15:56:44.558Z</time>
      </trkpt>
      <trkpt lat="48.75297" lon="2.30039">
        <ele>54.404</ele>
        <time>2016-11-08T15:56:52.633Z</time>
      </trkpt>
      <trkpt lat="48.75288" lon="2.3004">
        <ele>54.323</ele>
        <time>2016-11-08T15:57:00.574Z</time>
      </trkpt>
      <trkpt lat="48.75279" lon="2.30049">
        <ele>54.236</ele>
        <time>2016-11-08T15:57:08.075Z</time>
      </trkpt>
      <trkpt lat="48.75272" lon="2.30056">
        <ele>54.221</ele>
        <time>2016-11-08T15:57:14.251Z</time>
      </trkpt>
      <trkpt lat="48.75265" lon="2.30067">
        <ele>54.452</ele>
        <time>2016-11-08T15:57:20.883Z</time>
      </trkpt>
      <trkpt lat="48.75258" lon="2.30077">
        <ele>54.881</ele>
        <time>2016-11-08T15:57:29.084Z</time>
      </trkpt>
      <trkpt lat="48.75249" lon="2.30075">
        <ele>55.229</ele>
        <time>2016-11-08T15:57:36.847Z</time>
      </trkpt>
      <trkpt lat="48.75238" lon="2.30075">
        <ele>55.317</ele>
        <time>2016-11-08T15:57:44.841Z</time>
      </trkpt>
      <trkpt lat="48.75228" lon="2.30074">
        <ele>55.169</ele>
        <time>2016-11-08T15:57:52.130Z</time>
      </trkpt>
      <trkpt lat="48.75219" lon="2.30074">
        <ele>54.896</ele>
        <time>2016-11-08T15:57:58.680Z</time>
      </trkpt>
      <trkpt lat="48.7521" lon="2.30071">
        <ele>54.635</ele>
        <time>2016-11-08T15:58:05.998Z</time>
      </trkpt>
      <trkpt lat="48.7521" lon="2.30071">
        <ele>54.479</ele>
        <time>2016-11-08T15:58:13.998Z</time>
      </trkpt>
      <trkpt lat="48.7521" lon="2.30071">
        <ele>54.421</ele>
        <time>2016-11-08T15:58:14.098Z</time>
      </trkpt>
      <trkpt lat="48.75196" lon="2.30065">
        <ele>54.409</ele>
        <time>2016-11-08T15:58:32.665Z</time>
      </trkpt>
      <trkpt lat="48.75187" lon="2.30062">
        <ele>54.285</ele>
        <time>2016-11-08T15:58:41.821Z</time>
      </trkpt>
      <trkpt lat="48.75177" lon="2.30058">
        <ele>53.954</ele>
        <time>2016-11-08T15:58:50.028Z</time>
      </trkpt>
      <trkpt lat="48.75168" lon="2.30059">
        <ele>53.547</ele>
        <time>2016-11-08T15:58:57.458Z</time>
      </trkpt>
      <trkpt lat="48.75158" lon="2.30057">
        <ele>53.156</ele>
        <time>2016-11-08T15:59:05.339Z</time>
      </trkpt>
      <trkpt lat="48.75148" lon="2.30054">
        <ele>52.734</ele>
        <time>2016-11-08T15:59:13.345Z</time>
      </trkpt>
      <trkpt lat="48.75139" lon="2.30053">
        <ele>52.31</ele>
        <time>2016-11-08T15:59:20.613Z</time>
      </trkpt>
      <trkpt lat="48.7513" lon="2.3005">
        <ele>51.971</ele>
        <time>2016-11-08T15:59:28.651Z</time>
      </trkpt>
      <trkpt lat="48.7512" lon="2.3005">
        <ele>51.724</ele>
        <time>2016-11-08T15:59:36.693Z</time>
      </trkpt>
      <trkpt lat="48.75111" lon="2.30049">
        <ele>51.497</ele>
        <time>2016-11-08T15:59:45.023Z</time>
      </trkpt>
      <trkpt lat="48.75102" lon="2.30047">
        <ele>51.255</ele>
        <time>2016-11-08T15:59:53.568Z</time>
      </trkpt>
      <trkpt lat="48.75092" lon="2.30047">
        <ele>51.016</ele>
        <time>2016-11-08T16:00:01.537Z</time>
      </trkpt>
      <trkpt lat="48.75083" lon="2.30047">
        <ele>50.787</ele>
        <time>2016-11-08T16:00:09.885Z</time>
      </trkpt>
      <trkpt lat="48.75074" lon="2.30044">
        <ele>50.527</ele>
        <time>2016-11-08T16:00:17.786Z</time>
      </trkpt>
      <trkpt lat="48.75064" lon="2.30045">
        <ele>50.233</ele>
        <time>2016-11-08T16:00:25.385Z</time>
      </trkpt>
      <trkpt lat="48.75055" lon="2.30049">
        <ele>49.975</ele>
        <time>2016-11-08T16:00:32.905Z</time>
      </trkpt>
      <trkpt lat="48.75046" lon="2.30044">
        <ele>49.814</ele>
        <time>2016-11-08T16:00:40.990Z</time>
      </trkpt>
      <trkpt lat="48.75037" lon="2.30041">
        <ele>49.762</ele>
        <time>2016-11-08T16:00:49.107Z</time>
      </trkpt>
      <trkpt lat="48.75028" lon="2.30036">
        <ele>49.912</ele>
        <time>2016-11-08T16:00:58.059Z</time>
      </trkpt>
      <trkpt lat="48.75023" lon="2.30023">
        <ele>50.453</ele>
        <time>2016-11-08T16:01:06.768Z</time>
      </trkpt>
      <trkpt lat="48.75019" lon="2.3001">
        <ele>51.446</ele>
        <time>2016-11-08T16:01:14.903Z</time>
      </trkpt>
      <trkpt lat="48.75015" lon="2.29996">
        <ele>52.628</ele>
        <time>2016-11-08T16:01:24.183Z</time>
      </trkpt>
      <trkpt lat="48.75015" lon="2.29983">
        <ele>53.706</ele>
        <time>2016-11-08T16:01:32.236Z</time>
      </trkpt>
      <trkpt lat="48.75015" lon="2.29968">
        <ele>54.54</ele>
        <time>2016-11-08T16:01:40.442Z</time>
      </trkpt>
      <trkpt lat="48.75002" lon="2.299">
        <ele>55.084</ele>
        <time>2016-11-08T16:02:20.179Z</time>
      </trkpt>
      <trkpt lat="48.74999" lon="2.29886">
        <ele>54.885</ele>
        <time>2016-11-08T16:02:28.920Z</time>
      </trkpt>
      <trkpt lat="48.74998" lon="2.29872">
        <ele>54.589</ele>
        <time>2016-11-08T16:02:37.717Z</time>
      </trkpt>
      <trkpt lat="48.74997" lon="2.29857">
        <ele>54.253</ele>
        <time>2016-11-08T16:02:45.747Z</time>
      </trkpt>
      <trkpt lat="48.74994" lon="2.29844">
        <ele>53.897</ele>
        <time>2016-11-08T16:02:54.113Z</time>
      </trkpt>
      <trkpt lat="48.74992" lon="2.2983">
        <ele>53.591</ele>
        <time>2016-11-08T16:03:02.266Z</time>
      </trkpt>
      <trkpt lat="48.74988" lon="2.29817">
        <ele>53.367</ele>
        <time>2016-11-08T16:03:11.287Z</time>
      </trkpt>
      <trkpt lat="48.74987" lon="2.29802">
        <ele>53.194</ele>
        <time>2016-11-08T16:03:20.981Z</time>
      </trkpt>
      <trkpt lat="48.74985" lon="2.29788">
        <ele>53.145</ele>
        <time>2016-11-08T16:03:30.158Z</time>
      </trkpt>
      <trkpt lat="48.74982" lon="2.29774">
        <ele>53.284</ele>
        <time>2016-11-08T16:03:39.000Z</time>
      </trkpt>
      <trkpt lat="48.74978" lon="2.2976">
        <ele>53.514</ele>
        <time>2016-11-08T16:03:47.000Z</time>
      </trkpt>
    </trkseg>
  </trk>
</gpx>